[[{"header":{"parameterUnit":"m.s-1","parameterCategory":1,"la1":31.0,"la2":29.5877,"lo1":-88.7671,"lo2":-86.6584,"dy":0.0162,"dx":0.0185,"nx":115,"ny":88,"refTime":"2024-03-04T06:00:00:Z","depth":0,"parameterNumber":2,"parameterNumberName":"U-component_of_WINDS"},"data":[0.0,0.0,0.0,0.0,0.0,0.0,0.0,0.0,0.0,0.0,0.0,0.0,0.0,0.0,0.0,0.0,0.0,0.0,0.0,0.0,0.0,0.0,0.0,0.0,0.0,0.0,0.0,0.0,0.0,0.0,0.0,0.0,0.0,0.0,0.0,0.0,0.0,0.0,0.0,0.0,0.0,0.0,0.0,0.0,0.0,0.0,0.0,0.0,0.0,0.0,0.0,0.0,0.0,0.0,0.0,0.0,0.0,0.0,0.0,0.0,0.0,0.0,0.0,0.0,0.0,0.0,0.0,0.0,0.0,0.0,0.0,0.0,0.0,0.0,0.0,0.0,0.0,0.0,0.0,0.0,0.0,0.0,0.0,0.0,0.0,0.0,0.0,0.0,0.0,0.0,0.0,0.0,0.0,0.0,0.0,0.0,0.0,0.0,0.0,0.0,0.0,0.0,0.0,0.0,0.0,0.0,0.0,0.0,0.0,0.0,0.0,0.0,0.0,0.0,0.0,0.0,0.0,0.0,0.0,0.0,0.0,0.0,0.0,0.0,0.0,0.0,0.0,0.0,0.0,0.0,0.0,0.0,0.0,0.0,0.0,0.0,0.0,0.0,0.0,0.0,0.0,0.0,0.0,0.0,0.0,0.0,0.0,0.0,0.0,0.0,0.0,0.0,0.0,0.0,0.0,0.0,0.0,0.0,0.0,0.0,0.0,0.0,0.0,0.0,0.0,0.0,0.0,0.0,0.0,0.0,0.0,0.0,0.0,0.0,0.0,0.0,0.0,0.0,0.0,0.0,0.0,0.0,0.0,0.0,0.0,0.0,0.0,0.0,0.0,0.0,0.0,0.0,0.0,0.0,0.0,0.0,0.0,0.0,0.0,0.0,0.0,0.0,0.0,0.0,0.0,0.0,0.0,0.0,0.0,0.0,0.0,0.0,0.0,0.0,0.0,0.0,0.0,0.0,0.0,0.0,0.0,0.0,0.0,0.0,0.0,0.0,0.0,0.0,0.0,0.0,0.0,0.0,0.0,0.0,0.0,0.0,0.0,0.0,0.0,0.0,0.0,0.0,0.0,0.0,0.0,0.0,0.0,0.0,0.0,0.0,0.0,0.0,0.0,0.0,0.0,0.0,0.0,0.0,0.0,0.0,0.0,0.0,0.0,0.0,0.0,0.0,0.0,0.0,0.0,0.0,0.0,0.0,0.0,0.0,0.0,0.0,0.0,0.0,0.0,0.0,0.0,0.0,0.0,0.0,0.0,0.0,0.0,0.0,0.0,0.0,0.0,0.0,0.0,0.0,0.0,0.0,0.0,0.0,0.0,0.0,0.0,0.0,0.0,0.0,0.0,0.0,0.0,0.0,0.0,0.0,0.0,0.0,0.0,0.0,0.0,0.0,0.0,0.0,0.0,0.0,0.0,0.0,0.0,0.0,0.0,0.0,0.0,0.0,0.0,0.0,0.0,0.0,0.0,0.0,0.0,0.0,0.0,0.0,0.0,0.0,0.0,0.0,0.0,0.0,0.0,0.0,0.0,0.0,0.0,0.0,0.0,0.0,0.0,0.0,0.0,0.0,0.0,0.0,0.0,0.0,0.0,0.0,0.0,0.0,0.0,0.0,0.0,0.0,0.0,0.0,0.0,0.0,0.0,0.0,0.0,0.0,0.0,0.0,0.0,0.0,0.0,0.0,0.0,0.0,0.0,0.0,0.0,0.0,0.0,0.0,0.0,0.0,0.0,0.0,0.0,0.0,0.0,0.0,0.0,0.0,0.0,0.0,0.0,0.0,0.0,0.0,0.0,0.0,0.0,0.0,0.0,0.0,0.0,0.0,0.0,0.0,0.0,0.0,0.0,0.0,0.0,0.0,0.0,0.0,0.0,0.0,0.0,0.0,0.0,0.0,0.0,0.0,0.0,0.0,0.0,0.0,0.0,0.0,0.0,0.0,0.0,0.0,0.0,0.0,0.0,0.0,0.0,0.0,0.0,0.0,0.0,0.0,0.0,0.0,0.0,0.0,0.0,0.0,0.0,0.0,0.0,0.0,0.0,0.0,0.0,0.0,0.0,0.0,0.0,0.0,0.0,0.0,0.0,0.0,0.0,0.0,0.0,0.0,0.0,0.0,0.0,0.0,0.0,0.0,0.0,0.0,0.0,0.0,0.0,0.0,0.0,0.0,0.0,0.0,0.0,0.0,0.0,0.0,0.0,0.0,0.0,0.0,0.0,0.0,0.0,0.0,0.0,0.0,0.0,0.0,0.0,0.0,0.0,0.0,0.0,0.0,0.0,0.0,0.0,0.0,0.0,0.0,0.0,0.0,0.0,0.0,0.0,0.0,0.0,0.0,0.0,0.0,0.0,0.0,0.0,0.0,0.0,0.0,0.0,0.0,0.0,0.0,0.0,0.0,0.0,0.0,0.0,0.0,0.0,0.0,0.0,0.0,0.0,0.0,0.0,0.0,0.0,0.0,0.0,0.0,0.0,0.0,0.0,0.0,0.0,0.0,0.0,0.0,0.0,0.0,0.0,0.0,0.0,0.0,0.0,0.0,0.0,0.0,0.0,0.0,0.0,0.0,0.0,0.0,0.0,0.0,0.0,0.0,0.0,0.0,0.0,0.0,0.0,0.0,0.0,0.0,0.0,0.0,0.0,0.0,0.0,0.0,0.0,0.0,0.0,0.0,0.0,0.0,0.0,0.0,0.0,0.0,0.0,0.0,0.0,0.0,0.0,0.0,0.0,0.0,0.0,0.0,0.0,0.0,0.0,0.0,0.0,0.0,0.0,0.0,0.0,0.0,0.0,0.0,0.0,0.0,0.0,0.0,0.0,0.0,0.0,0.0,0.0,0.0,0.0,0.0,0.0,0.0,0.0,0.0,0.0,0.0,0.0,0.0,0.0,0.0,0.0,0.0,0.0,0.0,0.0,0.0,0.0,0.0,0.0,0.0,0.0,0.0,0.0,0.0,0.0,0.0,0.0,0.0,0.0,0.0,0.0,0.0,0.0,0.0,0.0,0.0,0.0,0.0,0.0,0.0,0.0,0.0,0.0,0.0,0.0,0.0,0.0,0.0,0.0,0.0,0.0,0.0,0.0,0.0,0.0,0.0,0.0,0.0,0.0,0.0,0.0,0.0,0.0,0.0,0.0,0.0,0.0,0.0,0.0,0.0,0.0,0.0,0.0,0.0,0.0,0.0,0.0,0.0,0.0,0.0,0.0,0.0,0.0,0.0,0.0,0.0,0.0,0.0,0.0,0.0,0.0,0.0,0.0,0.0,0.0,0.0,0.0,0.0,0.0,0.0,0.0,0.0,0.0,0.0,0.0,0.0,0.0,0.0,0.0,0.0,0.0,0.0,0.0,0.0,0.0,0.0,0.0,0.0,0.0,0.0,0.0,0.0,0.0,0.0,0.0,0.0,0.0,0.0,0.0,0.0,0.0,0.0,0.0,0.0,0.0,0.0,0.0,0.0,0.0,0.0,0.0,0.0,0.0,0.0,0.0,0.0,0.0,0.0,0.0,0.0,0.0,0.0,0.0,0.0,0.0,0.0,0.0,0.0,0.0,0.0,0.0,0.0,0.0,0.0,0.0,0.0,0.0,0.0,0.0,0.0,0.0,0.0,0.0,0.0,0.0,0.0,0.0,0.0,0.0,0.0,0.0,0.0,0.0,0.0,0.0,0.0,0.0,0.0,0.0,0.0,0.0,0.0,0.0,0.0,0.0,0.0,0.0,0.0,0.0,0.0,0.0,0.0,0.0,0.0,0.0,0.0,0.0,0.0,0.0,0.0,0.0,0.0,0.0,0.0,0.0,0.0,0.0,0.0,0.0,0.0,0.0,0.0,0.0,0.0,0.0,0.0,0.0,0.0,0.0,0.0,0.0,0.0,0.0,0.0,0.0,0.0,0.0,0.0,0.0,0.0,0.0,0.0,0.0,0.0,0.0,0.0,0.0,0.0,0.0,0.0,0.0,0.0,0.0,0.0,0.0,0.0,0.0,0.0,0.0,0.0,0.0,0.0,0.0,0.0,0.0,0.0,0.0,0.0,0.0,0.0,0.0,0.0,0.0,0.0,0.0,0.0,0.0,0.0,0.0,0.0,0.0,0.0,0.0,0.0,0.0,0.0,0.0,0.0,0.0,0.0,0.0,0.0,0.0,0.0,0.0,0.0,0.0,0.0,0.0,0.0,0.0,0.0,0.0,0.0,0.0,0.0,0.0,0.0,0.0,0.0,0.0,0.0,0.0,0.0,0.0,0.0,0.0,0.0,0.0,0.0,0.6845,0.0,0.0,0.0,0.0,0.0,0.0,0.0,0.0,0.0,0.0,0.0,0.0,0.0,0.0,0.0,0.0,0.0,0.0,0.0,0.0,0.0,0.0,0.0,0.0,0.0,0.0,0.0,0.0,0.0,0.0,0.0,0.0,0.0,0.0,0.0,0.0,0.0,0.0,0.0,0.0,0.0,0.0,0.0,0.0,0.0,0.0,0.0,0.0,0.0,0.0,0.0,0.0,0.0,0.0,0.0,0.0,0.0,0.0,0.0,0.0,0.0,0.0,0.0,0.0,0.0,0.0,0.0,0.0,0.0,0.0,0.0,0.0,0.0,0.0,0.0,0.0,0.0,0.0,0.0,0.0,0.0,0.0,0.0,0.0,0.0,0.0,0.0,0.0,0.0,0.0,0.0,0.0,0.0,0.0,0.0,0.0,0.0,0.0,0.0,0.0,0.0,0.0,0.0,0.0,0.0,0.0,0.0,0.0,0.0,0.0,0.571,0.5983,0.6283,0.6513,0.6627,0.0,0.0,0.0,0.0,0.0,0.0,0.0,0.0,0.0,0.0,0.0,0.0,0.0,0.0,0.0,0.0,0.0,0.0,0.0,0.0,0.0,0.0,0.0,0.0,0.0,0.0,0.0,0.0,0.0,0.0,0.0,0.0,0.0,0.0,0.0,0.0,0.0,0.0,0.0,0.0,0.0,0.0,0.0,0.0,0.0,0.0,0.0,0.0,0.0,0.0,0.0,0.0,0.0,0.0,0.0,0.0,0.0,0.0,0.0,0.0,0.0,0.0,0.0,0.0,0.0,0.0,0.0,0.0,0.0,0.0,0.0,0.0,0.0,0.0,0.0,0.0,0.0,0.0,0.0,0.0,0.0,0.0,0.0,0.0,0.0,0.0,0.0,0.0,0.0,0.0,0.0,0.0,0.0,0.0,0.0,0.0,0.0,0.0,0.0,0.0,0.0,0.0,0.0,0.0,0.0,0.0,0.0,0.0,0.0,0.0,0.0,0.0,0.6245,0.6436,0.6506,0.0,0.0,0.0,0.0,0.0,0.0,0.0,0.0,0.0,0.0,0.0,0.0,0.0,0.0,0.0,0.0,0.0,0.0,0.0,0.0,0.0,0.0,0.0,0.0,0.0,0.0,0.0,0.0,0.0,0.0,0.0,0.0,0.0,0.0,0.0,0.0,0.0,0.0,0.0,0.0,0.0,0.0,0.0,0.0,0.0,0.0,0.0,0.0,0.0,0.0,0.0,0.0,0.0,0.0,0.0,0.0,0.0,0.0,0.0,0.0,0.0,0.0,0.0,0.0,0.0,0.0,0.0,0.0,0.0,0.0,0.0,0.0,0.0,0.0,0.0,0.0,0.0,0.0,0.0,0.0,0.0,0.0,0.0,0.0,0.0,0.0,0.0,0.0,0.0,0.0,0.0,0.0,0.0,0.0,0.0,0.0,0.0,0.0,0.0,0.0,0.0,0.0,0.0,0.0,0.0,0.0,0.0,0.0,0.0,0.0,0.5868,0.5898,0.6276,0.0,0.6506,0.0,0.0,0.0,0.0,0.0,0.0,0.0,0.0,0.0,0.0,0.0,0.0,0.0,0.0,0.0,0.0,0.0,0.0,0.0,0.0,0.0,0.0,0.0,0.0,0.0,0.0,0.0,0.0,0.0,0.0,0.0,0.0,0.0,0.0,0.0,0.0,0.0,0.0,0.0,0.0,0.0,0.0,0.0,0.0,0.0,0.0,0.0,0.0,0.0,0.0,0.0,0.0,0.0,0.0,0.0,0.0,0.0,0.0,0.0,0.0,0.0,0.0,0.0,0.0,0.0,0.0,0.0,0.0,0.0,0.0,0.0,0.0,0.0,0.0,0.0,0.0,0.0,0.0,0.0,0.0,0.0,0.0,0.0,0.0,0.0,0.0,0.0,0.0,0.0,0.0,0.0,0.0,0.0,0.0,0.0,0.0,0.0,0.0,0.0,0.0,0.0,0.0,0.0,0.0,0.0,0.0,0.0,0.0,0.0,0.0,0.5416,0.578,0.6052,0.6168,0.0,0.0,0.0,0.0,0.0,0.0,0.0,0.0,0.0,0.0,0.0,0.0,0.0,0.0,0.0,0.0,0.0,0.0,0.0,0.0,0.0,0.0,0.0,0.0,0.0,0.0,0.0,0.0,0.0,0.0,0.0,0.0,0.0,0.0,0.0,0.0,0.0,0.0,0.0,0.0,0.0,0.0,0.0,0.0,0.0,0.0,0.0,0.0,0.0,0.0,0.0,0.0,0.0,0.0,0.0,0.0,0.0,0.0,0.0,0.0,0.0,0.0,0.0,0.0,0.0,0.0,0.0,0.0,0.0,0.0,0.0,0.0,0.0,0.0,0.0,0.0,0.0,0.0,0.0,0.0,0.0,0.0,0.0,0.0,0.0,0.0,0.0,0.0,0.0,0.0,0.0,0.0,0.0,0.0,0.0,0.0,0.0,0.0,0.0,0.0,0.0,0.0,0.0,0.0,0.0,0.0,0.0,0.0,0.0,0.0,0.52,0.5381,0.5889,0.6067,0.6052,0.5866,0.0,0.0,0.0,0.0,0.0,0.0,0.0,0.0,0.0,0.0,0.0,0.0,0.0,0.0,0.0,0.0,0.0,0.0,0.0,0.0,0.0,0.0,0.0,0.0,0.0,0.0,0.0,0.0,0.0,0.0,0.0,0.0,0.0,0.0,0.0,0.0,0.0,0.0,0.0,0.0,0.0,0.0,0.0,0.0,0.0,0.0,0.0,0.0,0.0,0.0,0.0,0.0,0.0,0.0,0.0,0.0,0.0,0.0,0.0,0.0,0.0,0.0,0.0,0.0,0.0,0.0,0.0,0.0,0.0,0.0,0.0,0.0,0.0,0.0,0.0,0.0,0.0,0.0,0.0,0.0,0.0,0.0,0.0,0.0,0.0,0.0,0.0,0.0,0.0,0.0,0.0,0.0,0.0,0.0,0.0,0.0,0.0,0.0,0.0,0.0,0.0,0.0,0.0,0.0,0.0,0.0,0.0,0.0,0.5462,0.5774,0.6106,0.6437,0.6475,0.6314,0.0,0.0,0.0,0.0,0.0,0.0,0.0,0.0,0.0,0.0,0.0,0.0,0.0,0.0,0.0,0.0,0.0,0.0,0.0,0.0,0.0,0.0,0.0,0.0,0.0,0.0,0.0,0.0,0.0,0.0,0.0,0.0,0.0,0.0,0.0,0.0,0.0,0.0,0.0,0.0,0.0,0.0,0.0,0.0,0.0,0.0,0.0,0.0,0.0,0.0,0.0,0.0,0.0,0.0,0.0,0.0,0.0,0.0,0.0,0.0,0.0,0.0,0.0,0.0,0.0,0.0,0.0,0.0,0.0,0.0,0.0,0.0,0.0,0.0,0.0,0.0,0.0,0.0,0.0,0.0,0.0,0.0,0.0,0.0,0.0,0.0,0.0,0.0,0.0,0.0,0.0,0.0,0.0,0.0,0.0,0.0,0.0,0.0,0.0,0.0,0.0,0.0,0.0,0.0,0.0,0.0,0.0,0.0,0.0,0.5191,0.577,0.6206,0.6483,0.6467,0.6321,0.0,0.0,0.0,0.0,0.0,0.0,0.0,0.0,0.0,0.0,0.0,0.0,0.0,0.0,0.0,0.0,0.0,0.0,0.0,0.0,0.0,0.0,0.0,0.0,0.0,0.0,0.0,0.0,0.0,0.0,0.0,0.0,0.0,0.0,0.0,0.0,0.0,0.0,0.0,0.0,0.0,0.0,0.0,0.0,0.0,0.0,0.0,0.0,0.0,0.0,0.0,0.0,0.0,0.0,0.0,0.0,0.0,0.0,0.0,0.0,0.0,0.0,0.0,0.0,0.0,0.0,0.0,0.0,0.0,0.0,0.0,0.0,0.0,0.0,0.0,0.0,0.0,0.0,0.0,0.0,0.0,0.0,0.0,0.0,0.0,0.0,0.0,0.0,0.0,0.0,0.0,0.0,0.0,0.0,0.0,0.0,0.0,0.0,0.0,0.0,0.0,0.0,0.0,0.0,0.0,0.0,0.0,0.0,0.0,0.5289,0.0,0.616,0.6414,0.6291,0.6168,0.0,0.0,0.0,0.0,0.0,0.0,0.0,0.0,0.0,0.0,0.0,0.0,0.0,0.0,0.0,0.0,0.0,0.0,0.0,0.0,0.0,0.0,0.0,0.0,0.0,0.0,0.0,0.0,0.0,0.0,0.0,0.0,0.0,0.0,0.0,0.0,0.0,0.0,0.0,0.0,0.0,0.0,0.0,0.0,0.0,0.0,0.0,0.0,0.0,0.0,0.0,0.0,0.0,0.0,0.0,0.0,0.0,0.0,0.0,0.0,0.0,0.0,0.0,0.0,0.0,0.0,0.0,0.0,0.0,0.0,0.0,0.0,0.0,0.0,0.0,0.0,0.0,0.0,0.0,0.0,0.0,0.0,0.0,0.0,0.0,0.0,0.0,0.0,0.0,0.0,0.0,0.0,0.0,0.0,0.0,0.0,0.0,0.0,0.0,0.0,0.0,0.0,0.0,0.0,0.0,0.0,0.0,0.0,0.5109,0.5859,0.5912,0.6067,0.6283,0.6013,0.5897,0.0,0.0,0.0,0.0,0.0,0.0,0.0,0.0,0.0,0.0,0.0,0.0,0.0,0.0,0.0,0.0,0.0,0.0,0.0,0.0,0.0,0.0,0.0,0.0,0.0,0.0,0.0,0.0,0.0,0.0,0.0,0.0,0.0,0.0,0.0,0.0,0.0,0.0,0.0,0.0,0.0,0.0,0.0,0.0,0.0,0.0,0.0,0.0,0.0,0.0,0.0,0.0,0.0,0.0,0.0,0.0,0.0,0.0,0.0,0.0,0.0,0.0,0.0,0.0,0.0,0.0,0.0,0.0,0.0,0.0,0.0,0.0,0.0,0.0,0.0,0.0,0.0,0.0,0.0,0.0,0.0,0.0,0.0,0.0,0.0,0.0,0.0,0.0,0.0,0.0,0.0,0.0,0.0,0.0,0.0,0.0,0.0,0.0,0.0,0.0,0.0,0.0,0.0,0.0,0.0,0.0,0.0,0.0,0.0,0.6299,0.633,0.6513,0.6882,0.6459,0.6253,0.0,0.0,0.0,0.0,0.0,0.0,0.0,0.0,0.0,0.0,0.0,0.0,0.0,0.0,0.0,0.0,0.0,0.0,0.0,0.0,0.0,0.0,0.0,0.0,0.0,0.0,0.0,0.0,0.0,0.0,0.0,0.0,0.0,0.0,0.0,0.0,0.0,0.0,0.0,0.0,0.0,0.0,0.0,0.0,0.0,0.0,0.0,0.0,0.0,0.0,0.0,0.0,0.0,0.0,0.0,0.0,0.0,0.0,0.0,0.0,0.0,0.0,0.0,0.0,0.0,0.0,0.0,0.0,0.0,0.0,0.0,0.0,0.0,0.0,0.0,0.0,0.0,0.0,0.0,0.0,0.0,0.0,0.0,0.0,0.0,0.0,0.0,0.0,0.0,0.0,0.0,0.0,0.0,0.0,0.0,0.0,0.0,0.0,0.0,0.0,0.0,0.0,0.0,0.0,0.0,0.0,0.0,0.0,0.0,0.6664,0.6625,0.675,0.7108,0.675,0.6568,0.6606,0.0,0.0,0.0,0.0,0.0,0.0,0.0,0.0,0.0,0.0,0.0,0.0,0.0,0.0,0.0,0.0,0.0,0.0,0.0,0.0,0.0,0.0,0.0,0.0,0.0,0.0,0.0,0.0,0.0,0.0,0.0,0.0,0.0,0.0,0.0,0.0,0.0,0.0,0.0,0.0,0.0,0.0,0.0,0.0,0.0,0.0,0.0,0.0,0.0,0.0,0.0,0.0,0.0,0.0,0.0,0.0,0.0,0.0,0.0,0.0,0.0,0.0,0.0,0.0,0.0,0.0,0.0,0.0,0.0,0.0,0.0,0.0,0.0,0.0,0.0,0.0,0.0,0.0,0.0,0.0,0.0,0.0,0.0,0.0,0.0,0.0,0.0,0.0,0.0,0.0,0.0,0.0,0.0,0.0,0.0,0.0,0.0,0.0,0.0,0.0,0.0,0.0,0.0,0.0,0.0,0.0,0.0,0.0,0.7057,0.6912,0.6904,0.7065,0.6899,0.6804,0.0,0.0,0.0,0.0,0.0,0.0,0.0,0.0,0.0,0.0,0.0,0.0,0.0,0.0,0.0,0.0,0.0,0.0,0.0,0.0,0.0,0.0,0.0,0.0,0.0,0.0,0.0,0.0,0.0,0.0,0.0,0.0,0.0,0.0,0.0,0.0,0.0,0.0,0.0,0.0,0.0,0.0,0.0,0.0,0.0,0.0,0.0,0.0,0.0,0.0,0.0,0.0,0.0,0.0,0.0,0.0,0.0,0.0,0.0,0.0,0.0,0.0,0.0,0.0,0.0,0.0,0.0,0.0,0.0,0.0,0.0,0.0,0.0,0.0,0.0,0.0,0.0,0.0,0.0,0.0,0.0,0.0,0.0,0.0,0.0,0.0,0.0,0.0,0.0,0.0,0.0,0.0,0.0,0.0,0.0,0.0,0.0,0.0,0.0,0.0,0.0,0.0,0.0,0.0,0.0,0.0,0.0,0.0,0.0,0.7912,0.8191,0.8135,0.774,0.7131,0.6852,0.0,0.0,0.0,0.0,0.0,0.0,0.0,0.0,0.0,0.0,0.0,0.0,0.0,0.0,0.0,0.0,0.0,0.0,0.0,0.0,0.0,0.0,0.0,0.0,0.0,0.0,0.0,0.0,0.0,0.0,0.0,0.0,0.0,0.0,0.0,0.0,0.0,0.0,0.0,0.0,0.0,0.0,0.0,0.0,0.0,0.0,0.0,0.0,0.0,0.0,0.0,0.0,0.0,0.0,0.0,0.0,0.0,0.0,0.0,0.0,0.0,0.0,0.0,0.0,0.0,0.0,0.0,0.0,0.0,0.0,0.0,0.0,0.0,0.0,0.0,0.0,0.0,0.0,0.0,0.0,0.0,0.0,0.0,0.0,0.0,0.0,0.0,0.0,0.0,0.0,0.0,0.0,0.0,0.0,0.0,0.0,0.0,0.0,0.0,0.0,0.0,0.0,0.0,0.0,0.0,0.0,0.0,0.0,0.7351,0.831,0.8744,0.8816,0.8548,0.7933,0.7532,0.0,0.0,0.0,0.0,0.0,0.0,0.0,0.0,0.0,0.0,0.0,0.0,0.0,0.0,0.0,0.0,0.0,0.0,0.0,0.0,0.0,0.0,0.0,0.0,0.0,0.0,0.0,0.0,0.0,0.0,0.0,0.0,0.0,0.0,0.0,0.0,0.0,0.0,0.0,0.0,0.0,0.0,0.0,0.0,0.0,0.0,0.0,0.0,0.0,0.0,0.0,0.0,0.0,0.0,0.0,0.0,0.0,0.0,0.0,0.0,0.0,0.0,0.0,0.0,0.0,0.0,0.0,0.0,0.0,0.0,0.0,0.0,0.0,0.0,0.0,0.0,0.0,0.0,0.0,0.0,0.0,0.0,0.0,0.0,0.0,0.0,0.0,0.0,0.0,0.0,0.0,0.0,0.0,0.0,0.0,0.0,0.0,0.0,0.0,0.0,0.0,0.0,0.0,0.0,0.0,0.0,0.0,0.0,0.7603,0.8496,0.89,0.9224,0.9454,0.8942,0.8402,0.0,0.0,0.0,0.0,0.0,0.0,0.0,0.0,0.0,0.0,0.0,0.0,0.0,0.0,0.0,0.0,0.0,0.0,0.0,0.0,0.0,0.0,0.0,0.0,0.0,0.0,0.0,0.0,0.0,0.0,0.0,0.0,0.0,0.0,0.0,0.0,0.0,0.0,0.0,0.0,0.0,0.0,0.0,0.0,0.0,0.0,0.0,0.0,0.0,0.0,0.0,0.0,0.0,0.0,0.0,0.0,0.0,0.0,0.0,0.0,0.0,0.0,0.0,0.0,0.0,0.0,0.0,0.0,0.0,0.0,0.0,0.0,0.0,0.0,0.0,0.0,0.0,0.0,0.0,0.0,0.0,0.0,0.0,0.0,0.0,0.0,0.0,0.0,0.0,0.0,0.0,0.0,0.0,0.0,0.0,0.0,0.0,0.0,0.0,0.0,0.0,0.0,0.0,0.0,0.0,0.0,0.0,0.0,0.8154,0.9142,0.9582,1.0089,1.07,0.9049,0.7936,0.0,0.0,0.0,0.0,0.0,0.0,0.0,0.0,0.0,0.0,0.0,0.0,0.0,0.0,0.0,0.0,0.0,0.0,0.0,0.0,0.0,0.0,0.0,0.0,0.0,0.0,0.0,0.0,0.0,0.0,0.0,0.0,0.0,0.0,0.0,0.0,0.0,0.0,0.0,0.0,0.0,0.0,0.0,0.0,0.0,0.0,0.0,0.0,1.0457,0.0,0.0,0.0,0.0,0.0,0.0,0.0,0.0,0.0,0.0,0.0,0.0,0.0,0.0,0.0,0.0,0.0,0.0,0.0,0.0,0.0,0.0,0.0,0.0,0.0,0.0,0.0,0.0,0.0,0.0,0.0,0.0,0.0,0.0,0.0,0.0,0.0,0.0,0.0,0.0,0.0,0.0,0.0,0.0,0.0,0.0,0.0,0.0,0.0,0.0,0.0,0.0,0.0,0.0,0.0,0.0,0.0,0.0,0.0,0.8814,0.9919,1.0143,1.0392,1.0693,0.9303,0.8285,0.0,0.0,0.0,0.0,0.0,0.0,0.0,0.0,0.0,0.0,0.0,0.0,0.0,0.0,0.0,0.0,0.0,0.0,0.0,0.0,0.0,0.0,0.0,0.0,0.0,0.0,0.0,0.0,0.0,0.0,0.0,0.0,0.0,0.0,0.0,0.0,0.0,0.0,0.0,0.0,0.0,0.0,0.0,0.0,0.0,0.0,0.0,0.0,0.0,0.0,0.0,0.0,0.0,0.0,0.0,0.0,0.0,0.0,0.0,0.0,0.0,0.0,0.0,0.0,0.0,0.0,0.0,0.0,0.0,0.0,0.0,0.0,0.0,0.0,0.0,0.0,0.0,0.0,0.0,0.0,0.0,0.0,0.0,0.0,0.0,0.0,0.0,0.0,0.0,0.0,0.0,0.0,0.0,0.0,0.0,0.0,0.0,0.0,0.0,0.0,0.0,0.0,0.0,0.0,0.0,0.0,0.0,0.8574,0.9577,1.0556,1.0619,1.0543,1.0348,0.9549,0.884,0.8214,0.0,0.0,0.0,0.0,0.0,0.0,0.0,0.0,0.0,0.0,0.0,0.0,0.0,0.0,0.0,0.0,0.0,0.0,0.0,0.0,0.0,0.0,0.0,0.0,0.0,0.0,0.0,0.0,0.0,0.0,0.0,0.0,0.0,0.0,0.0,0.0,0.0,0.0,0.94,0.9541,0.0,0.0,0.0,0.0,0.0,0.0,0.0,0.0,1.06,0.0,0.0,0.0,0.0,0.0,0.0,0.0,0.0,0.0,0.0,0.0,0.0,0.0,0.0,0.0,0.0,0.0,0.0,0.0,0.0,0.0,0.0,0.0,0.0,0.0,0.0,0.0,0.0,0.0,0.0,0.0,0.0,0.0,0.0,0.0,0.0,0.0,0.0,0.0,0.0,0.0,0.0,0.0,0.0,0.0,0.0,0.0,0.0,0.0,0.0,0.0,0.0,0.0,0.0,0.0,0.0,0.8561,0.9703,1.0426,1.0682,1.1,1.0838,1.0162,0.9524,0.8746,0.7842,0.0,0.0,0.0,0.0,0.0,0.0,0.0,0.0,0.0,0.0,0.0,0.0,0.0,0.0,0.0,0.0,0.0,0.0,0.0,0.0,0.0,0.0,0.0,0.0,0.0,0.0,0.0,0.0,0.0,0.0,0.0,0.0,0.0,0.0,0.0,0.0,0.0,0.0,0.0,0.9832,0.9895,0.0,0.0,0.0,0.0,0.0,0.0,0.0,0.0,1.12,0.0,0.0,0.0,0.0,0.0,0.0,0.0,0.0,0.0,0.0,0.0,0.0,0.0,0.0,0.0,0.0,0.0,0.0,0.0,0.0,0.0,0.0,0.0,0.0,0.0,0.0,0.0,0.0,0.0,0.0,0.0,0.0,0.0,0.0,0.0,0.0,0.0,0.0,0.0,0.0,0.0,0.0,0.0,0.0,0.0,0.0,0.0,0.0,0.0,0.0,0.0,0.0,0.0,0.0,0.0,0.8646,0.9904,1.0664,1.0909,1.1235,1.1167,1.0661,0.9844,0.9106,0.0,0.0,0.0,0.0,0.0,0.0,0.0,0.0,0.0,0.0,0.0,0.0,0.0,0.0,0.0,0.0,0.0,0.0,0.0,0.0,0.0,0.0,0.0,0.0,0.0,0.0,0.0,0.0,0.0,0.0,0.0,0.0,0.0,0.0,0.0,0.0,0.0,0.0,0.0,0.0,1.0548,1.082,1.1134,0.0,0.0,0.0,0.0,0.0,0.0,1.1601,1.1692,0.0,0.0,0.0,0.0,0.0,0.0,0.0,0.0,0.0,0.0,0.0,0.0,0.0,0.0,0.0,0.0,0.0,0.0,0.0,0.0,0.0,0.0,0.0,0.0,0.0,0.0,0.0,0.0,0.0,0.0,0.0,0.0,0.0,0.0,0.0,0.0,0.0,0.0,0.0,0.0,0.0,0.0,0.0,0.0,0.0,0.0,0.0,0.0,0.0,0.0,0.0,0.0,0.0,0.0,0.0,0.8875,1.0168,1.1009,1.1328,1.1567,1.1523,1.1111,1.0096,0.9358,0.0,0.0,0.0,0.0,0.0,0.0,0.0,0.0,0.0,0.0,0.0,0.0,0.0,0.0,0.0,0.0,0.0,0.0,0.0,0.0,0.0,0.0,0.0,0.0,0.0,0.0,0.0,0.0,0.0,0.0,0.0,0.0,0.0,0.0,0.0,0.0,0.0,0.0,0.0,0.0,0.0,1.1553,1.1759,1.1735,0.0,0.0,0.0,0.0,1.1655,1.22,0.0,0.0,0.0,0.0,0.0,0.0,0.0,0.0,0.0,0.0,0.0,0.0,0.0,0.0,0.0,0.0,0.0,0.0,0.0,0.0,0.0,0.0,0.0,0.0,0.0,0.0,0.0,0.0,0.0,0.0,0.0,0.0,0.0,0.0,0.0,0.0,0.0,0.0,0.0,0.0,0.0,0.0,0.0,0.0,0.0,0.0,0.0,0.0,0.0,0.0,0.0,0.0,0.0,0.0,0.0,0.0,1.0083,1.1353,1.2034,1.207,1.2261,1.1898,1.0883,0.9914,0.9052,0.0,0.0,0.0,0.0,0.0,0.0,0.0,0.0,0.0,0.0,0.0,0.0,0.0,0.0,0.0,0.0,0.0,0.0,0.0,0.0,0.0,0.0,0.0,0.0,0.0,0.0,0.0,0.0,0.0,0.0,0.0,0.0,0.0,0.0,0.0,0.0,0.0,0.0,0.0,0.0,0.0,1.131,1.1956,1.1895,1.1809,0.0,0.0,0.0,1.3607,1.4424,0.0,0.0,0.0,0.0,0.0,0.0,0.0,0.0,0.0,0.0,0.0,0.0,0.0,0.0,0.0,0.0,0.0,0.0,0.0,0.0,0.0,0.0,0.0,0.0,0.0,0.0,0.0,0.0,0.0,0.0,0.0,0.0,0.0,0.0,0.0,0.0,0.0,0.0,0.0,0.0,0.0,0.0,0.0,0.0,0.0,0.0,0.0,0.0,0.0,0.0,0.0,0.0,0.0,0.0,0.0,0.8734,0.9995,1.104,1.1667,1.1796,1.1989,1.1823,1.1213,1.0042,0.9149,0.0,0.0,0.0,0.0,0.0,0.0,0.0,0.0,0.0,0.0,0.0,0.0,0.0,0.0,0.0,0.0,0.0,0.0,0.0,0.0,0.0,0.0,0.0,0.0,0.0,0.0,0.0,0.0,0.0,0.0,0.0,0.0,0.0,0.0,0.0,0.0,0.0,0.0,0.0,0.0,0.0,0.0,1.2862,1.298,0.0,0.0,0.0,1.4228,1.3492,0.0,0.0,0.0,0.0,0.0,0.0,0.0,0.0,0.0,0.0,0.0,0.0,0.0,0.0,0.0,0.0,0.0,0.0,0.0,0.0,0.0,0.0,0.0,0.0,0.0,0.0,0.0,0.0,0.0,0.0,0.0,0.0,0.0,0.0,0.0,0.0,0.0,0.0,0.0,0.0,0.0,0.0,0.0,0.0,0.0,0.0,0.0,0.0,0.0,0.0,0.0,0.0,0.0,0.0,0.0,0.0,0.0,1.0062,1.0809,1.1383,1.1757,1.1872,1.1764,1.1382,1.0268,0.0,0.0,0.0,0.0,0.0,0.0,0.0,0.0,0.0,0.0,0.0,0.0,0.0,0.0,0.0,0.0,0.0,0.0,0.0,0.0,0.0,0.0,0.0,0.0,0.0,0.0,0.0,0.8174,0.0,0.0,0.0,0.0,0.0,0.0,0.0,0.0,0.0,0.0,0.0,0.0,0.0,0.0,1.3518,1.3797,1.4171,1.4417,0.0,0.0,1.5209,1.4068,1.5555,1.6273,0.0,0.0,0.0,0.0,0.0,0.0,0.0,0.0,0.0,0.0,0.0,0.0,0.0,0.0,0.0,0.0,0.0,0.0,0.0,0.0,0.0,0.0,0.0,0.0,0.0,0.0,0.0,0.0,0.0,0.0,0.0,0.0,0.0,0.0,0.0,0.0,0.0,0.0,0.0,0.0,0.0,0.0,0.0,0.0,0.0,0.0,0.0,0.0,0.0,0.0,0.0,0.0,0.0,0.0,0.0,1.0784,1.125,1.1798,1.2487,1.2358,1.1902,1.1151,1.0608,0.9784,0.0,0.0,0.0,0.0,0.0,0.0,0.0,0.0,0.0,0.0,0.0,0.0,0.0,0.0,0.0,0.0,0.0,0.0,0.0,0.0,0.0,0.0,0.0,0.0,0.0,0.0,0.0,0.0,0.0,0.0,0.0,0.0,0.0,0.0,0.0,0.0,0.0,0.0,0.0,0.0,0.0,1.4698,1.4549,1.5302,1.5968,0.0,0.0,1.6513,1.6523,1.7743,1.7972,1.5745,0.0,0.0,0.0,0.0,0.0,0.0,0.0,0.0,0.0,0.0,0.0,0.0,0.0,0.0,0.0,0.0,0.0,0.0,0.0,0.0,0.0,0.0,0.0,0.0,0.0,0.0,0.0,0.0,0.0,0.0,0.0,0.0,0.0,0.0,0.0,0.0,0.0,0.0,0.0,0.0,0.0,0.0,0.0,0.0,0.0,0.0,0.0,0.0,0.0,0.0,0.0,0.0,0.0,0.8909,1.0442,1.098,1.1627,1.2374,1.2019,1.1619,1.1228,1.0456,0.954,0.0,0.0,0.0,0.0,0.0,0.0,0.0,0.0,0.0,0.0,0.0,0.0,0.0,0.0,0.0,0.0,0.0,0.0,0.0,0.0,0.0,0.0,0.0,0.0,0.0,0.0,0.0,0.0,1.0326,1.0685,1.0433,0.0,0.0,0.0,0.0,0.0,0.0,0.0,0.0,0.0,0.0,1.4629,1.5769,1.6095,0.0,0.0,1.7359,1.7513,1.7116,1.7813,1.7745,1.5867,1.5466,0.0,0.0,0.0,0.0,0.0,0.0,0.0,0.0,0.0,0.0,0.0,0.0,0.0,0.0,0.0,0.0,0.0,0.0,0.0,0.0,0.0,0.0,0.0,0.0,0.0,0.0,0.0,0.0,0.0,0.0,0.0,0.0,0.0,0.0,0.0,0.0,0.0,0.0,0.0,0.0,0.0,0.0,0.0,0.0,0.0,0.0,0.0,0.0,0.0,0.0,0.0,0.0,0.8837,1.0118,1.0841,1.1544,1.2243,1.1859,1.1515,1.115,1.047,0.9654,0.0,0.0,0.0,0.0,0.0,0.0,0.0,0.0,0.0,0.0,0.0,0.0,0.0,0.0,0.0,0.0,0.0,0.0,0.0,0.0,0.0,0.0,0.0,0.0,0.0,0.0,0.0,0.0,1.0645,1.0966,1.0509,0.0,0.0,0.0,0.0,0.0,0.0,0.0,0.0,0.0,0.0,1.5399,1.6585,1.6632,1.6745,1.7202,1.751,1.758,1.7161,1.7455,1.7334,1.6105,0.0,0.0,0.0,0.0,0.0,0.0,0.0,0.0,0.0,0.0,0.0,0.0,0.0,0.0,0.0,0.0,0.0,0.0,0.0,0.0,0.0,0.0,0.0,0.0,0.0,0.0,0.0,0.0,0.0,0.0,0.0,0.0,0.0,0.0,0.0,0.0,0.0,0.0,0.0,0.0,0.0,0.0,0.0,0.0,0.0,0.0,0.0,0.0,0.0,0.0,0.0,0.0,0.0,0.9236,0.9981,1.0962,1.1684,1.2081,1.2081,1.1684,1.0881,1.0793,1.0261,0.9205,0.0,0.0,0.0,0.0,0.0,0.0,0.0,0.0,0.0,0.0,0.0,0.0,0.0,0.0,0.0,0.0,0.0,0.0,0.0,0.0,0.0,0.0,0.0,0.0,0.0,0.0,0.8924,0.9704,1.0283,0.0,0.0,0.0,0.0,0.0,0.0,0.0,0.0,0.0,0.0,1.6006,1.734,1.6689,1.6919,1.716,1.7228,1.6748,1.6494,1.6891,1.693,1.6845,0.0,0.0,0.0,0.0,0.0,0.0,0.0,0.0,0.0,0.0,0.0,0.0,0.0,0.0,0.0,0.0,0.0,0.0,0.0,0.0,0.0,0.0,0.0,0.0,0.0,0.0,0.0,0.5666,0.567,0.0,0.0,0.0,0.0,0.0,0.0,0.0,0.0,0.0,0.0,0.0,0.8452,0.8798,0.0,0.0,0.0,0.0,0.0,0.0,0.0,0.0,0.0,0.0,0.0,0.0,0.9134,0.963,1.0766,1.1526,1.1888,1.1809,1.157,1.1137,1.0827,1.0215,0.9301,0.0,0.0,0.0,0.0,0.0,0.0,0.0,0.0,0.0,0.0,0.0,0.0,0.0,0.0,0.0,0.0,0.0,0.0,0.0,0.0,0.0,0.0,0.0,0.0,0.0,1.0393,0.0,0.0,0.0,0.0,0.0,0.0,0.0,0.0,0.0,0.0,0.0,1.4647,1.5373,1.5762,1.6127,1.6544,1.6696,1.711,0.0,0.0,0.0,0.0,0.0,0.0,0.0,0.0,0.0,0.0,0.0,0.0,0.0,0.0,1.7378,1.5477,1.5701,1.6139,1.5945,0.0,0.0,0.0,0.0,0.0,0.0,0.0,0.0,0.0,0.0,0.0,0.0,0.0,0.0,0.0,0.0,0.6191,0.0,0.0,0.0,0.0,0.0,0.0,0.0,0.0,0.8383,0.8711,0.8737,0.922,0.9133,0.0,0.9124,0.8873,0.0,0.0,0.0,0.0,0.0,0.0,0.0,0.0,0.921,0.9519,1.0751,1.1516,1.1717,1.1638,1.1483,1.1227,1.0717,1.0146,0.9594,0.8995,0.8461,0.0,0.0,0.0,0.0,0.0,0.0,0.0,0.0,0.0,0.0,0.0,0.0,0.0,0.0,0.0,0.0,0.0,0.0,0.0,0.0,0.0,0.0,0.0,1.0881,0.0,0.0,0.0,0.0,0.0,0.0,0.0,0.0,0.0,1.4426,1.4879,1.5435,1.6057,1.6019,1.5969,1.612,0.0,0.0,0.0,0.0,0.0,0.0,0.0,1.6304,1.6522,1.6393,1.6504,1.7281,1.8057,1.8537,1.8438,0.0,0.0,1.6756,1.6917,1.738,1.738,1.7226,1.7399,1.8344,1.8337,1.8303,0.0,0.0,0.0,0.0,0.0,0.0,0.0,0.0,0.5657,0.5756,0.0,0.6535,0.0,0.0,0.0,0.0,0.0,0.0,0.0,0.0,0.8701,0.9147,0.9141,0.9391,0.9581,0.979,0.971,0.9655,0.9574,0.9246,0.0,0.0,0.0,0.0,0.0,0.0,0.949,0.968,1.0938,1.1591,1.1591,1.1591,1.1437,1.1107,1.0484,1.0141,1.0125,0.9752,0.9355,0.8952,0.8443,0.0,0.0,0.0,0.0,0.0,0.0,0.0,0.0,0.0,0.0,0.0,0.0,0.0,0.0,0.0,0.0,0.0,0.0,0.0,0.0,1.0282,0.0,0.0,0.0,0.0,0.0,0.0,0.0,0.0,0.0,0.0,1.4197,1.5359,1.6174,1.5925,0.0,0.0,0.0,0.0,1.6423,1.5164,1.5411,1.5793,1.5851,1.6478,1.7275,1.817,0.0,0.0,1.9552,1.9476,1.9207,1.8405,1.9434,1.9918,1.8868,1.8722,1.8697,1.8333,1.8371,1.8502,1.8535,1.8835,1.8808,0.6105,0.0,0.0,0.0,0.0,0.6212,0.6357,0.6383,0.6431,0.6558,0.6738,0.6929,0.0,0.0,0.0,0.0,0.0,0.0,0.8544,0.86,0.9646,1.0035,0.9786,1.0589,1.0626,0.999,1.0672,1.0703,1.0139,1.0617,0.998,0.8342,0.0,0.0,0.0,0.0,0.9852,1.045,1.1226,1.1591,1.1591,1.1591,1.1437,1.1114,1.0924,1.0821,1.0821,1.0474,1.0207,1.0043,0.9455,0.0,0.0,0.0,0.0,0.0,0.0,0.0,0.0,0.0,0.0,0.0,0.0,0.0,0.0,0.0,0.0,0.0,0.0,0.0,1.0499,1.1133,1.141,0.0,0.0,0.0,0.0,0.0,0.0,0.0,0.0,0.0,1.5654,1.5846,1.5869,0.0,0.0,1.5787,1.5112,1.5883,1.6651,1.6908,0.0,0.0,0.0,1.7163,1.6948,1.7454,1.8734,1.9953,2.0715,2.1221,2.1415,2.1114,2.1339,2.1337,2.0732,2.0149,1.9885,1.9981,2.0075,2.036,2.0955,2.1131,2.1114,0.6408,0.6408,0.6466,0.6373,0.6228,0.6473,0.6641,0.6715,0.6741,0.6882,0.7127,0.7352,0.7408,0.7291,0.7321,0.0,0.0,0.0,0.9005,0.9135,1.0247,1.062,1.047,1.1263,1.1358,1.0768,1.1569,1.1678,1.1168,1.1457,1.1049,0.9951,0.0,0.0,0.9236,0.9792,1.0289,1.0738,1.1352,1.1654,1.1591,1.1591,1.1468,1.1189,1.113,1.1107,1.11,1.096,1.0832,1.0733,1.026,0.9678,0.0,0.0,0.0,0.0,0.0,0.0,0.0,0.0,0.0,0.0,0.0,0.944,0.8934,0.0,0.0,0.0,1.0395,1.0738,1.1438,1.169,0.0,0.0,0.0,0.0,0.0,0.0,0.0,1.3609,1.5087,1.6126,1.6138,1.6169,1.6177,1.6217,1.6266,1.6127,1.5565,0.0,1.7183,1.7384,1.7388,1.7568,1.8056,1.8081,1.8239,1.8958,1.9649,2.045,2.1246,2.1756,2.1977,2.1948,2.1878,2.18,2.1778,2.1356,2.102,2.1115,2.1201,2.1453,2.1962,2.2126,2.2182,0.6404,0.6408,0.6513,0.6339,0.5985,0.641,0.6624,0.6704,0.672,0.6857,0.716,0.7714,0.7752,0.7406,0.7575,0.0,0.0,0.9008,0.9565,0.9518,1.0615,1.1091,1.1033,1.1584,1.1806,1.1727,1.2257,1.2453,1.2361,1.1911,1.1682,1.1663,1.1138,1.0465,0.9784,1.0428,1.0731,1.066,1.136,1.1687,1.1578,1.1586,1.1477,1.1286,1.1175,1.1122,1.1107,1.1241,1.1263,1.1171,1.0925,1.0656,1.0348,0.0,0.0,0.0,0.0,0.0,0.0,0.0,0.0,0.0,0.0,0.0,0.0,0.0,0.0,0.0,1.1664,0.0,1.2467,1.2152,0.0,0.0,0.0,1.2958,1.3575,1.4234,1.4716,1.4913,0.0,0.0,0.0,0.0,1.6914,1.7563,1.7614,1.7284,1.6515,1.741,1.7882,1.719,1.7506,1.7946,1.8326,1.9284,2.045,2.1537,2.1529,2.1342,2.1697,2.1772,2.1702,2.1765,2.1629,2.1778,2.2292,2.2334,2.2248,2.1827,2.188,2.2019,2.188,2.2018,2.2159,0.6404,0.6404,0.6441,0.6388,0.6306,0.6387,0.6546,0.6704,0.6724,0.6976,0.7406,0.7551,0.7843,0.8243,0.8788,0.9023,0.9099,1.0554,1.0848,1.027,1.1536,1.1806,1.12,1.1942,1.185,1.1072,1.1999,1.2193,1.163,1.2049,1.2052,1.163,1.1468,1.1108,1.0531,1.0614,1.0762,1.0975,1.1174,1.1293,1.1368,1.1383,1.1271,1.1087,1.1196,1.1249,1.1249,1.1433,1.1629,1.1829,1.15,1.1152,1.0843,1.0166,0.0,0.0,0.0,0.0,0.0,0.0,0.0,0.0,0.0,1.0352,0.9272,0.0,1.1072,0.0,1.2327,1.3221,1.3451,1.3682,0.0,0.0,1.3761,1.3929,1.4058,1.5095,1.5679,1.5395,1.6261,1.6921,1.7049,1.7141,1.7458,1.8114,1.7585,1.6998,1.6645,1.7495,1.8285,1.8412,1.8571,1.9098,2.0078,2.0987,2.175,2.2605,2.2594,2.2809,2.3604,2.3766,2.3715,2.3514,2.3472,2.335,2.3039,2.2971,2.2957,2.282,2.2653,2.2368,2.1929,2.2006,2.2173,0.6037,0.6169,0.6189,0.6268,0.6404,0.6404,0.6548,0.679,0.679,0.7068,0.751,0.7588,0.7847,0.8204,0.8729,0.8962,0.9085,1.0526,1.0941,1.0519,1.1803,1.2135,1.1717,1.217,1.2046,1.1462,1.227,1.2438,1.2071,1.2636,1.2757,1.2457,1.244,1.2151,1.1542,1.0931,1.0689,1.0887,1.1034,1.1189,1.1391,1.1413,1.1219,1.0791,1.0971,1.0936,1.0645,1.0738,1.0906,1.1165,1.1079,1.089,1.0529,1.0108,0.9646,0.0,0.0,0.0,0.0,0.0,0.0,0.0,0.0,0.0,0.0,0.0,1.1603,0.0,1.299,1.3874,1.3796,1.3969,1.4105,1.4161,1.4499,1.4835,1.5235,1.6179,1.6729,1.6604,1.7172,1.7632,1.7712,1.7792,1.7977,1.8334,1.7999,1.7684,1.7634,1.8115,1.8593,1.8927,1.9016,1.9503,2.0877,2.1432,2.1964,2.2648,2.268,2.2741,2.3391,2.3527,2.345,2.335,2.3419,2.3514,2.3447,2.3528,2.3595,2.3553,2.329,2.2789,2.2147,2.2058,2.2065,0.5673,0.5958,0.5954,0.6136,0.6404,0.6432,0.6613,0.6876,0.6876,0.7122,0.7508,0.7745,0.7905,0.7971,0.8343,0.8509,0.8595,1.0006,1.0634,1.0652,1.177,1.2286,1.2231,1.2268,1.2211,1.2086,1.2586,1.278,1.2771,1.3215,1.3411,1.3375,1.3349,1.3038,1.2363,1.1275,1.0718,1.0675,1.099,1.1271,1.1465,1.145,1.1115,1.0494,1.0589,1.0408,0.9836,0.9799,0.9864,0.9999,1.0293,1.0356,1.0108,0.9773,0.9631,0.0,0.9066,0.0,0.0,0.0,0.0,0.0,0.0,0.0,0.0,1.2086,1.2254,1.2612,1.371,1.4289,1.4066,1.398,1.4175,1.4734,1.5226,1.5868,1.6715,1.7341,1.781,1.8074,1.8155,1.8189,1.8242,1.8346,1.8423,1.8437,1.8484,1.8534,1.8737,1.875,1.8843,1.9052,1.9267,2.0073,2.0989,2.1492,2.2062,2.269,2.2648,2.2266,2.2632,2.266,2.2594,2.2622,2.2933,2.3202,2.3668,2.3956,2.4136,2.4122,2.3784,2.3236,2.2489,2.2095,2.194,0.5987,0.6317,0.6301,0.6338,0.6416,0.6581,0.6679,0.6741,0.6741,0.7019,0.7522,0.8,0.8436,0.8799,0.9356,0.962,0.9676,1.0904,1.1298,1.1002,1.1884,1.2139,1.1855,1.215,1.1775,1.0949,1.1917,1.2239,1.1928,1.2672,1.2917,1.2699,1.2692,1.238,1.1797,0.0,0.0,0.0,1.1335,1.1448,1.1323,1.081,1.0412,1.0113,1.0027,0.0,0.9807,0.9799,0.9877,0.9999,1.0159,0.0,0.0,0.0,0.0,0.0,0.0,0.0,0.0,0.0,0.0,0.0,1.2106,1.2113,1.1847,1.2688,1.347,1.3902,1.4513,1.4997,1.5317,1.5666,1.6012,1.6341,1.6927,1.7488,1.7872,1.8466,1.8928,1.9082,1.8914,1.8778,1.8869,1.8721,1.8572,1.8572,1.8587,1.864,1.8784,1.8798,1.8959,1.9444,2.0475,2.1413,2.1432,2.2569,2.338,2.3791,2.3765,2.3648,2.3638,2.368,2.3733,2.3693,2.3804,2.3861,2.402,2.4249,2.4422,2.4421,2.4188,2.3634,2.2548,2.2051,2.1831,0.4916,0.0,0.5584,0.5859,0.0,0.6544,0.6741,0.6811,0.6888,0.7226,0.7669,0.8034,0.8395,0.8728,0.9127,0.9311,0.933,1.0143,1.0406,1.0255,1.1031,1.1316,1.1111,1.1521,1.1397,1.0838,1.1618,1.2004,1.2014,1.2403,1.2739,1.3001,1.2808,1.2642,1.2543,1.2552,1.2213,1.1553,1.1714,1.1819,1.1891,1.1573,1.1204,1.0859,0.0,0.0,0.0,0.0,0.0,0.0,0.0,0.0,0.0,0.0,0.0,1.1236,1.1069,1.1114,1.1522,1.1754,1.2205,1.2887,1.3712,1.3834,1.2993,1.4199,1.508,1.5331,1.5742,1.609,1.6318,1.6729,1.7068,1.7305,1.794,1.8489,1.8776,1.9085,1.9358,1.9461,1.9232,1.9035,1.9094,1.8875,1.8704,1.8706,1.8747,1.8826,1.8879,1.8851,1.8932,1.9301,2.0615,2.155,2.1484,2.2584,2.3617,2.3603,2.3603,2.3603,2.3603,2.3603,2.3617,2.3632,2.3868,2.4102,2.4146,2.445,2.4737,2.4711,2.4392,2.396,2.3282,2.288,2.2497,0.3773,0.4357,0.4794,0.5266,0.5816,0.6424,0.6844,0.7077,0.0,0.0,0.0,0.8007,0.8216,0.8411,0.8614,0.8703,0.8723,0.9108,0.9303,0.9322,1.0048,1.0387,1.0425,1.0818,1.0999,1.1018,1.1391,1.1799,1.2187,1.2187,1.2599,1.3291,1.2991,1.2991,1.3382,1.3481,1.3079,1.2312,1.2149,1.2215,1.2494,1.2399,1.2143,1.1685,1.1626,1.1352,1.0856,1.055,1.0393,1.0385,1.0536,1.0575,1.0487,1.0941,1.1146,1.0985,1.0958,1.1223,1.1819,1.2173,1.2799,1.385,1.5191,1.565,1.4834,1.5914,1.6608,1.6626,1.6896,1.7082,1.721,1.7448,1.7758,1.802,1.8714,1.9287,1.9542,1.9572,1.9666,1.9743,1.9443,1.9134,1.9125,1.8981,1.8838,1.8839,1.8907,1.906,1.9134,1.9127,1.9112,1.9359,2.055,2.1327,2.1453,2.2311,2.303,2.3155,2.3153,2.3095,2.3095,2.3095,2.3095,2.3155,2.3617,2.3941,2.4031,2.445,2.4892,2.492,2.4569,2.4272,2.4259,2.4,2.353,0.4075,0.452,0.4961,0.5221,0.5367,0.6311,0.7063,0.7648,0.7525,0.7579,0.7809,0.8012,0.8216,0.8415,0.8609,0.8703,0.8718,0.9108,0.9303,0.0,0.9771,0.9992,1.0011,1.0387,1.0594,1.0607,1.0975,1.1391,1.1744,1.1799,1.2187,1.2863,1.2588,1.2599,1.2973,1.3328,1.3426,1.3279,1.2721,1.2451,1.2494,1.2001,1.1702,1.1622,1.1357,1.1151,1.1056,1.0856,1.0735,1.0742,1.0958,1.1205,1.1492,1.2038,1.2461,1.271,1.2734,1.2909,1.3267,1.3092,1.3592,1.4996,1.5879,1.6519,1.6997,1.7221,1.7395,1.7492,1.7384,1.7486,1.7934,1.7894,1.8148,1.8877,1.9526,1.996,2.0205,2.0236,2.0247,2.0282,1.9674,1.9287,1.9305,1.9117,1.8972,1.8972,1.9047,1.9209,1.9655,1.9853,1.9838,2.0014,2.1059,2.1847,2.1975,2.2578,2.3043,2.3095,2.3095,2.3095,2.3095,2.3095,2.3095,2.3095,2.3439,2.3675,2.3732,2.416,2.4537,2.4651,2.4687,2.4829,2.4913,2.4833,2.4434,0.3295,0.3706,0.4372,0.4739,0.4985,0.6286,0.7295,0.7929,0.7873,0.7949,0.8118,0.8235,0.8386,0.8566,0.8661,0.8703,0.8703,0.8899,0.8975,0.9013,0.9392,0.9563,0.9638,1.0218,1.0494,1.0513,1.0906,1.1292,1.1657,1.1477,1.1781,1.2544,1.2599,1.2838,1.3193,1.3408,1.3492,1.3492,1.3181,1.3053,1.3045,1.2777,1.2648,1.2614,1.2477,1.2404,1.2404,1.2242,1.216,1.2144,1.2303,1.2461,1.2624,1.279,1.2941,1.3092,1.3084,1.3171,1.3323,1.3843,1.4563,1.5472,1.6152,1.6831,1.755,1.7859,1.8018,1.8071,1.8067,1.8149,1.8464,1.868,1.9014,1.9422,2.0066,2.0531,2.0626,2.0606,2.0621,2.0733,2.0082,1.9644,1.9818,1.9354,1.9012,1.9037,1.9257,1.9655,1.999,2.0667,2.0996,2.0767,2.1453,2.2,2.2141,2.2682,2.3043,2.3095,2.3095,2.3095,2.3095,2.3095,2.3095,2.311,2.3363,2.3645,2.3808,2.4204,2.4508,2.4751,2.4864,2.5033,2.5076,2.4888,2.4484,0.2574,0.2913,0.3664,0.4293,0.4877,0.62,0.7241,0.8021,0.8133,0.8287,0.8448,0.8406,0.851,0.8694,0.8703,0.8703,0.8703,0.8703,0.8703,0.8742,0.9032,0.9165,0.9227,0.9916,1.0237,1.0288,1.0719,1.1111,1.1372,1.1205,1.1465,1.215,1.2654,1.3046,1.3364,1.3463,1.3492,1.3492,1.3492,1.3492,1.3492,1.3492,1.3484,1.3492,1.3477,1.3492,1.3495,1.3429,1.3409,1.3419,1.355,1.3585,1.3492,1.3445,1.341,1.3338,1.3322,1.3314,1.3403,1.431,1.5197,1.5804,1.6199,1.682,1.7772,1.8058,1.8316,1.8559,1.8684,1.8807,1.911,1.9452,1.9812,2.0013,2.0527,2.0874,2.094,2.0744,2.0724,2.0937,2.0375,1.9951,1.9989,1.9602,1.9268,1.9344,1.9679,2.004,2.0491,2.1477,2.1807,2.1807,2.2,2.2319,2.2359,2.276,2.307,2.3095,2.3095,2.3095,2.3095,2.3095,2.3095,2.3125,2.3363,2.3645,2.3941,2.4205,2.448,2.4736,2.4836,2.4892,2.5021,2.4554,2.4107,0.2548,0.2695,0.312,0.4089,0.5329,0.5897,0.6765,0.7805,0.8208,0.8486,0.8614,0.8468,0.8524,0.8685,0.8703,0.8703,0.8703,0.8703,0.8703,0.8703,0.8742,0.878,0.8818,0.9222,0.9416,0.9525,1.0199,1.0588,1.07,1.0999,1.1335,1.1799,1.2526,1.2936,1.3017,1.3328,1.3492,1.3492,1.3492,1.3492,1.3492,1.3492,1.3492,1.3492,1.3492,1.3492,1.3528,1.3669,1.3745,1.3789,1.4089,1.4147,1.3865,1.4192,1.4304,1.4021,1.4005,1.4004,1.4037,1.4396,1.5095,1.6079,1.6009,1.6603,1.8117,1.7845,1.8019,1.888,1.9002,1.9254,2.0084,2.0041,2.0171,2.078,2.0874,2.0967,2.1033,2.0638,2.0365,2.0722,2.0382,1.9976,1.9852,1.9757,1.9803,1.9875,2.0115,2.0566,2.1475,2.1962,2.2371,2.2707,2.2965,2.2952,2.2965,2.3017,2.3095,2.3095,2.3095,2.3095,2.3095,2.3095,2.3095,2.3138,2.3318,2.3569,2.3704,2.3897,2.4218,2.448,2.4609,2.468,2.4939,2.4486,2.3816,0.2505,0.2599,0.3142,0.4292,0.5678,0.5932,0.6611,0.762,0.8174,0.8445,0.8539,0.8687,0.8727,0.8708,0.8703,0.8703,0.8703,0.8703,0.8703,0.8703,0.8703,0.8703,0.8742,0.9113,0.9303,0.934,0.9884,1.028,1.0569,1.113,1.1669,1.204,1.2415,1.279,1.3193,1.3181,1.3255,1.3492,1.3492,1.3492,1.3492,1.3492,1.3492,1.3492,1.3492,1.3546,1.3681,1.3873,1.4036,1.4163,1.4379,1.4452,1.4285,1.431,1.425,1.4107,1.4099,1.4195,1.4393,1.4526,1.4794,1.5285,1.5613,1.6333,1.7415,1.7774,1.8368,1.921,1.9206,1.9332,1.9998,2.0163,2.0354,2.0656,2.0658,2.069,2.0866,2.0569,2.0493,2.0887,2.0644,2.0452,2.0466,2.0425,2.0427,2.0538,2.0848,2.1463,2.2064,2.2424,2.2785,2.3017,2.3095,2.3095,2.3095,2.3095,2.3095,2.3095,2.3095,2.3095,2.3095,2.3095,2.3095,2.3095,2.3228,2.342,2.3599,2.369,2.3896,2.4189,2.4552,2.4698,2.4696,2.4291,2.3744,0.2581,0.2708,0.3244,0.432,0.5623,0.5771,0.6393,0.733,0.7911,0.8206,0.8352,0.8677,0.8818,0.8798,0.8713,0.8703,0.8703,0.8703,0.8703,0.8703,0.8703,0.8703,0.8742,0.8975,0.9132,0.9203,0.9544,1.0011,1.0494,1.1055,1.1614,1.204,1.2132,1.2489,1.309,1.2973,1.3035,1.3302,1.3411,1.3492,1.3492,1.3492,1.3492,1.3492,1.3546,1.3663,1.379,1.4054,1.4245,1.4407,1.4515,1.4587,1.4571,1.4377,1.4242,1.4242,1.4234,1.4328,1.4571,1.4587,1.4677,1.4856,1.5275,1.586,1.6716,1.7449,1.825,1.9131,1.9187,1.9375,1.996,2.0264,2.041,2.0475,2.0443,2.0475,2.0658,2.0556,2.0663,2.1087,2.0985,2.0864,2.1003,2.0891,2.0768,2.1118,2.1625,2.2201,2.2357,2.2785,2.3083,2.3095,2.3078,2.3063,2.308,2.3095,2.3095,2.3095,2.3095,2.3095,2.3095,2.3095,2.3095,2.3095,2.3095,2.3153,2.3345,2.3465,2.369,2.4058,2.448,2.4784,2.475,2.436,2.4099,0.2823,0.2928,0.3256,0.3964,0.4798,0.5226,0.5985,0.6918,0.735,0.7739,0.8123,0.8361,0.864,0.8991,0.8831,0.8689,0.8713,0.8718,0.8713,0.8703,0.8703,0.8703,0.8703,0.8723,0.8742,0.8822,0.9146,0.9714,1.0438,1.0575,1.0962,1.1694,1.1744,1.1972,1.2397,1.2698,1.29,1.2991,1.3291,1.3473,1.3492,1.3492,1.3492,1.351,1.3681,1.379,1.3844,1.4181,1.4389,1.4407,1.4533,1.4587,1.4579,1.4555,1.4557,1.4557,1.4565,1.4573,1.4597,1.4587,1.4802,1.5256,1.5026,1.5232,1.6446,1.6829,1.7457,1.8449,1.9027,1.9534,2.0161,2.0302,2.0443,2.0604,2.0508,2.0491,2.0701,2.0685,2.0834,2.1142,2.1263,2.1257,2.1133,2.083,2.1115,2.1589,2.1893,2.2184,2.2775,2.304,2.3065,2.3063,2.3002,2.2954,2.3063,2.3078,2.3078,2.3095,2.3095,2.3095,2.3095,2.3095,2.3095,2.3095,2.3095,2.3108,2.3123,2.3303,2.3603,2.4031,2.4622,2.4897,2.5067,2.4764,2.4583,0.2889,0.324,0.3475,0.4033,0.4691,0.4796,0.5336,0.6232,0.6706,0.7382,0.8082,0.844,0.8887,0.9366,0.9155,0.901,0.8892,0.8887,0.8816,0.8718,0.8703,0.8703,0.8703,0.8703,0.8703,0.8723,0.8861,0.933,1.0105,1.0631,1.1167,1.1614,1.1688,1.191,1.2206,1.2176,1.2378,1.2845,1.3046,1.3229,1.3473,1.3492,1.3492,1.351,1.3699,1.3863,1.4,1.4245,1.4451,1.4533,1.4587,1.4587,1.4587,1.4587,1.4587,1.4587,1.4587,1.4587,1.4587,1.4587,1.4677,1.4909,1.524,1.5533,1.6219,1.6975,1.7748,1.8317,1.8838,1.9429,1.9917,2.014,2.0297,2.0459,2.0459,2.0524,2.0738,2.0834,2.093,2.1169,2.1321,2.1444,2.1571,2.1622,2.178,2.2137,2.2385,2.2637,2.2837,2.2957,2.2969,2.2957,2.2924,2.2909,2.2954,2.2972,2.2987,2.3078,2.3095,2.3095,2.3095,2.3095,2.3095,2.311,2.311,2.323,2.329,2.3516,2.3796,2.4464,2.5019,2.5314,2.5591,2.5323,2.53,0.3087,0.3502,0.3718,0.412,0.4607,0.459,0.4938,0.5612,0.6131,0.6897,0.7786,0.8304,0.8886,0.951,0.9538,0.9392,0.9198,0.9071,0.8949,0.8788,0.8737,0.8703,0.8703,0.8703,0.8703,0.8723,0.8856,0.9255,0.9903,1.0588,1.1093,1.1484,1.1521,1.1626,1.1843,1.1744,1.2058,1.2599,1.282,1.3101,1.3437,1.3492,1.3492,1.3546,1.3754,1.3964,1.4101,1.4335,1.4497,1.4587,1.4587,1.4587,1.4587,1.4587,1.4587,1.4587,1.4587,1.4587,1.4587,1.4587,1.4587,1.4641,1.532,1.5815,1.5868,1.7131,1.7901,1.8165,1.8881,1.9495,1.9671,2.0025,2.0346,2.0475,2.0491,2.0604,2.0791,2.0871,2.0999,2.1185,2.1321,2.151,2.1781,2.1984,2.2161,2.2374,2.2604,2.2757,2.2818,2.283,2.2876,2.2878,2.2848,2.2878,2.2954,2.2984,2.3,2.3063,2.3095,2.3095,2.3095,2.3095,2.311,2.3125,2.323,2.338,2.356,2.3783,2.4308,2.4977,2.537,2.5647,2.5822,2.5906,2.5904,0.3441,0.3707,0.3912,0.4197,0.4492,0.4559,0.4843,0.515,0.56,0.6384,0.7301,0.786,0.8658,0.9458,0.9762,0.9788,0.9561,0.9231,0.9014,0.8963,0.8793,0.8703,0.8703,0.8727,0.8755,0.8779,0.9118,0.9492,0.993,1.0361,1.0775,1.1049,1.1173,1.1205,1.1149,1.1502,1.1873,1.2323,1.2673,1.3072,1.3437,1.3492,1.3492,1.3528,1.3884,1.4075,1.4101,1.4425,1.4587,1.4587,1.4587,1.4587,1.4587,1.4587,1.4587,1.4587,1.4587,1.4587,1.4605,1.4641,1.4695,1.4713,1.5356,1.571,1.5692,1.6914,1.7799,1.7782,1.8787,1.9638,1.9407,2.0047,2.0593,2.0685,2.0653,2.0717,2.0765,2.085,2.0983,2.1174,2.1321,2.1463,2.1659,2.1843,2.2046,2.2309,2.2436,2.2512,2.2635,2.2678,2.2754,2.2845,2.2815,2.2815,2.2921,2.3015,2.3045,2.3075,2.3093,2.3095,2.3095,2.3095,2.3095,2.314,2.3444,2.3621,2.422,2.4465,2.4738,2.53,2.5633,2.6029,2.6266,2.6427,2.641,0.3463,0.3687,0.4043,0.4267,0.4331,0.4246,0.443,0.484,0.512,0.5825,0.6822,0.7578,0.8367,0.912,0.955,0.9761,0.9838,0.9547,0.9283,0.9019,0.8807,0.8718,0.8741,0.8835,0.8996,0.9097,0.9227,0.9588,1.0061,1.0377,1.0706,1.1018,1.1117,1.1117,1.1117,1.1242,1.1589,1.2224,1.2415,1.2808,1.3419,1.3492,1.3492,1.3546,1.3884,1.4101,1.4119,1.4418,1.4579,1.4587,1.4587,1.4587,1.4587,1.4587,1.4587,1.4587,1.4587,1.4587,1.4641,1.4945,1.4981,1.4892,1.555,1.5912,1.5762,1.6733,1.7459,1.7527,1.8496,1.9158,1.9522,2.0053,2.0442,2.0296,2.063,2.0898,2.101,2.1074,2.1138,2.119,2.1321,2.1474,2.1655,2.1812,2.1999,2.2216,2.2328,2.242,2.2466,2.2509,2.2571,2.272,2.2708,2.2739,2.2848,2.2969,2.303,2.3047,2.3078,2.3095,2.3095,2.311,2.3095,2.3337,2.3651,2.4092,2.468,2.5034,2.5231,2.5646,2.6069,2.6472,2.6854,2.6946,2.6901,0.3539,0.3738,0.4112,0.4253,0.4242,0.4107,0.4234,0.4533,0.4805,0.5437,0.6296,0.7047,0.7882,0.867,0.9169,0.9534,0.9809,0.9653,0.9465,0.9231,0.9014,0.8935,0.893,0.9043,0.9118,0.9216,0.9424,0.9765,1.0186,1.0467,1.078,1.1061,1.1117,1.1117,1.1117,1.1136,1.1502,1.2176,1.2305,1.268,1.3328,1.3492,1.3492,1.3546,1.3902,1.4083,1.4129,1.4418,1.4587,1.4587,1.4587,1.4587,1.4587,1.4587,1.4587,1.4587,1.4587,1.4587,1.4641,1.4909,1.5078,1.4945,1.563,1.6105,1.6123,1.6821,1.7417,1.7608,1.8506,1.9158,1.939,2.0215,2.0495,2.0253,2.07,2.1047,2.1185,2.1201,2.1237,2.1285,2.1364,2.1506,2.1706,2.1816,2.1984,2.2154,2.2263,2.2325,2.2328,2.2325,2.2432,2.254,2.2571,2.265,2.2787,2.2909,2.3002,2.3032,2.3047,2.3093,2.3095,2.311,2.3125,2.3693,2.4076,2.4581,2.5146,2.5203,2.5384,2.5933,2.6484,2.6827,2.7154,2.7295,2.7278,0.3672,0.3911,0.413,0.4215,0.4213,0.4214,0.4247,0.4294,0.4698,0.5241,0.5854,0.6575,0.7384,0.8218,0.891,0.9315,0.9591,0.9652,0.966,0.9576,0.9429,0.9332,0.9246,0.9222,0.9164,0.9211,0.9601,1.0018,1.0326,1.0615,1.0927,1.1187,1.1153,1.1117,1.1141,1.1135,1.1502,1.2194,1.2305,1.2698,1.3437,1.3492,1.3492,1.351,1.3902,1.4137,1.4137,1.4407,1.4587,1.4587,1.4587,1.4587,1.4587,1.4587,1.4587,1.4587,1.4587,1.4623,1.4623,1.4901,1.4909,1.4981,1.5718,1.6053,1.6254,1.6976,1.7588,1.7625,1.8758,1.9374,1.9308,2.0232,2.0812,2.0608,2.0892,2.1158,2.1201,2.1201,2.1253,2.1352,2.1404,2.1526,2.1847,2.1894,2.203,2.2123,2.2213,2.2216,2.2216,2.2232,2.2278,2.2355,2.2451,2.2586,2.2739,2.2863,2.2957,2.3017,2.3093,2.3243,2.3305,2.3335,2.3558,2.4104,2.4524,2.5062,2.5425,2.5508,2.5797,2.6352,2.6803,2.7155,2.7335,2.7423,2.7496,0.3829,0.392,0.4164,0.4267,0.4277,0.4372,0.4428,0.4482,0.4992,0.5461,0.606,0.6812,0.7559,0.8529,0.897,0.9453,0.9771,0.9868,0.9892,0.9883,0.9845,0.9592,0.9316,0.9161,0.9211,0.9447,0.9747,1.0177,1.069,1.0758,1.1112,1.1651,1.1285,1.1226,1.1352,1.1214,1.1533,1.2176,1.2305,1.2709,1.3364,1.3492,1.3492,1.3554,1.4036,1.4227,1.4155,1.4425,1.4587,1.4587,1.4587,1.4587,1.4587,1.4587,1.4605,1.4605,1.4605,1.4677,1.4909,1.5409,1.5586,1.5293,1.6219,1.683,1.6307,1.7038,1.752,1.7845,1.8831,1.9555,1.9605,2.0474,2.0999,2.1047,2.111,2.1201,2.1201,2.1217,2.1253,2.1372,2.1537,2.1702,2.1859,2.203,2.2123,2.2182,2.2197,2.2197,2.2197,2.2213,2.2247,2.2328,2.2436,2.254,2.2662,2.2818,2.2924,2.3,2.3195,2.3524,2.366,2.3824,2.4218,2.4722,2.4935,2.5356,2.5674,2.5866,2.6326,2.6632,2.6816,2.7026,2.731,2.7461,2.7537,0.4034,0.4259,0.4478,0.461,0.4605,0.4682,0.4726,0.4758,0.5076,0.5368,0.5738,0.6257,0.7039,0.7898,0.8491,0.9096,0.9663,0.9907,1.0011,0.9975,0.9868,0.9672,0.9467,0.9398,0.9502,0.9594,0.9847,1.0277,1.0783,1.0849,1.1241,1.1679,1.1478,1.1364,1.1479,1.1451,1.1651,1.2206,1.2452,1.2874,1.3455,1.3492,1.3492,1.3619,1.4083,1.4389,1.4543,1.4758,1.4776,1.4651,1.4587,1.4587,1.4587,1.4587,1.4623,1.4695,1.4713,1.482,1.5052,1.5568,1.5807,1.5851,1.6578,1.6864,1.7028,1.7348,1.751,1.8344,1.9115,1.9611,2.002,2.07,2.1138,2.1185,2.1201,2.1201,2.1201,2.1201,2.1253,2.1384,2.158,2.1761,2.1878,2.2077,2.2166,2.2197,2.2197,2.2197,2.2197,2.2213,2.2216,2.2309,2.2328,2.2386,2.2521,2.2678,2.2924,2.3015,2.3378,2.3704,2.4042,2.4262,2.4608,2.5019,2.53,2.5564,2.5811,2.6029,2.6259,2.6499,2.6671,2.6961,2.7271,2.7499,2.7562,0.4253,0.4728,0.4924,0.501,0.4988,0.5033,0.5045,0.5053,0.5105,0.5235,0.5463,0.5608,0.6542,0.7078,0.8206,0.8647,0.941,0.9825,0.9973,0.9952,0.9814,0.967,0.9675,0.9729,0.9715,0.967,0.9873,1.0371,1.081,1.0941,1.1314,1.18,1.1725,1.1563,1.1622,1.1664,1.1943,1.228,1.2654,1.3021,1.3419,1.3492,1.3546,1.3728,1.4209,1.4731,1.5026,1.5169,1.5026,1.4677,1.4669,1.4669,1.4659,1.4641,1.4748,1.4882,1.4935,1.5017,1.523,1.5435,1.5745,1.6281,1.6167,1.6525,1.7552,1.763,1.7784,1.8674,1.9363,1.9922,2.0431,2.0955,2.1169,2.1201,2.1201,2.1201,2.1201,2.1217,2.1253,2.1384,2.1565,2.1734,2.189,2.2046,2.2197,2.2197,2.2197,2.2197,2.2197,2.2197,2.2197,2.2213,2.2216,2.2213,2.2352,2.2509,2.2818,2.3075,2.3573,2.3972,2.4421,2.4693,2.4935,2.5216,2.5425,2.5619,2.5839,2.6043,2.6218,2.6473,2.6711,2.7013,2.731,2.7473,2.7585,0.4498,0.4944,0.4966,0.501,0.5033,0.5213,0.5327,0.5327,0.5485,0.5861,0.6492,0.6684,0.7303,0.835,0.8612,0.9244,0.9423,0.9777,1.0016,1.0007,0.9966,0.9928,0.9868,0.9804,0.9658,0.9667,0.9883,1.0411,1.0963,1.1069,1.1451,1.2278,1.2012,1.1816,1.1839,1.192,1.2099,1.2351,1.2691,1.3101,1.3419,1.351,1.3655,1.3974,1.4479,1.4971,1.5284,1.5275,1.5151,1.508,1.5062,1.5008,1.4892,1.4973,1.5062,1.5124,1.5159,1.5266,1.5488,1.593,1.6298,1.6464,1.6795,1.7323,1.7672,1.7845,1.7998,1.8623,1.9369,2.0221,2.0871,2.111,2.1201,2.1201,2.1201,2.1201,2.1201,2.1201,2.1253,2.1384,2.1565,2.1734,2.189,2.2073,2.2151,2.2182,2.2197,2.2197,2.2197,2.2197,2.2197,2.2197,2.2388,2.244,2.2613,2.2917,2.3431,2.3646,2.402,2.4218,2.4678,2.4921,2.509,2.5286,2.5495,2.5688,2.5852,2.5961,2.6097,2.6433,2.6737,2.7,2.7233,2.7423,2.7585,0.4587,0.4988,0.501,0.5122,0.5305,0.5371,0.5463,0.553,0.5644,0.5952,0.6349,0.6438,0.6922,0.7713,0.8113,0.8398,0.8859,0.9428,0.9803,0.9929,1.0011,1.0011,0.9985,0.9878,0.9769,0.9809,0.9911,1.0397,1.0816,1.1113,1.1522,1.2301,1.2176,1.2099,1.2069,1.2113,1.2254,1.25,1.2753,1.3101,1.3437,1.3492,1.3793,1.4245,1.4641,1.5025,1.5567,1.5558,1.5426,1.539,1.5426,1.5337,1.5106,1.5159,1.5222,1.5329,1.5541,1.5683,1.5982,1.6385,1.6838,1.7054,1.7149,1.7689,1.8046,1.8209,1.8472,1.9198,1.9889,2.0382,2.1106,2.1201,2.1201,2.1201,2.1201,2.1201,2.1201,2.1217,2.1221,2.1321,2.1443,2.1612,2.1781,2.2047,2.2187,2.223,2.2273,2.2273,2.2197,2.2197,2.2197,2.2273,2.258,2.2779,2.2931,2.3424,2.4246,2.4497,2.473,2.4788,2.4917,2.5046,2.5132,2.5314,2.5481,2.5647,2.5784,2.5893,2.6016,2.6272,2.658,2.6883,2.7155,2.7384,2.7537,0.4634,0.5055,0.5099,0.5327,0.5644,0.553,0.5552,0.5688,0.571,0.5799,0.5819,0.5797,0.6305,0.6631,0.7161,0.7514,0.812,0.8777,0.9411,0.9781,0.982,0.9886,0.9941,0.9975,0.9966,1.0011,1.0011,1.025,1.0636,1.1003,1.1423,1.1959,1.2163,1.2206,1.2224,1.2293,1.2389,1.2654,1.2886,1.314,1.3444,1.351,1.3866,1.4443,1.4731,1.5114,1.562,1.5752,1.5708,1.5576,1.5708,1.5611,1.5408,1.5293,1.5346,1.5558,1.5797,1.5991,1.6211,1.6586,1.7028,1.7799,1.7131,1.7552,1.858,1.8519,1.8754,1.9567,2.0264,2.0463,2.1106,2.1201,2.1201,2.1201,2.1201,2.1201,2.1201,2.1201,2.1217,2.1221,2.1364,2.1522,2.1777,2.2036,2.2165,2.2318,2.2401,2.2468,2.244,2.2504,2.2684,2.2836,2.3223,2.3603,2.3779,2.4082,2.4882,2.5227,2.5437,2.5309,2.5205,2.51,2.5159,2.5286,2.5439,2.555,2.5674,2.5784,2.5934,2.6152,2.6473,2.6868,2.7141,2.7359,2.7486,0.4904,0.5349,0.5508,0.5644,0.5666,0.5644,0.5644,0.5688,0.571,0.593,0.6235,0.6279,0.6457,0.694,0.7455,0.794,0.8336,0.8745,0.9082,0.9437,0.9498,0.9602,0.9951,1.0016,1.0016,1.0016,1.0016,1.0207,1.0484,1.0722,1.1176,1.1832,1.2049,1.2129,1.2319,1.2567,1.2672,1.2794,1.3025,1.3324,1.3444,1.3583,1.3884,1.4569,1.4866,1.5301,1.5655,1.5805,1.5788,1.577,1.5788,1.5761,1.5691,1.5647,1.5691,1.5744,1.585,1.607,1.6351,1.6429,1.6847,1.721,1.7028,1.7278,1.8243,1.8445,1.8771,1.9458,2.0215,2.0619,2.1138,2.1201,2.1201,2.1201,2.1201,2.1201,2.1201,2.1201,2.1201,2.1217,2.1332,2.1486,2.1769,2.2139,2.2515,2.2874,2.3207,2.3364,2.3469,2.3587,2.3765,2.3896,2.4067,2.4432,2.475,2.5059,2.5537,2.5871,2.5995,2.5764,2.5579,2.5221,2.5185,2.5379,2.5368,2.5328,2.5467,2.5647,2.5934,2.6192,2.6538,2.6906,2.7192,2.7423,2.7511,0.4768,0.5169,0.5196,0.5399,0.5644,0.5599,0.5599,0.5688,0.5713,0.5822,0.5997,0.606,0.6238,0.6631,0.7033,0.7636,0.8214,0.8399,0.8759,0.9161,0.9327,0.9541,0.9951,1.0016,1.0016,1.0016,1.0016,1.0081,1.0311,1.0506,1.0874,1.1257,1.1714,1.2053,1.2247,1.2671,1.2883,1.2974,1.319,1.3417,1.3536,1.3688,1.4134,1.4559,1.5015,1.539,1.5708,1.5805,1.5805,1.5805,1.5805,1.5805,1.5805,1.5805,1.5805,1.5841,1.5956,1.6228,1.6578,1.6778,1.722,1.7598,1.7296,1.7647,1.8361,1.867,1.8861,1.9797,2.0415,2.0908,2.1185,2.1213,2.1201,2.1201,2.1236,2.1247,2.1224,2.1236,2.127,2.1305,2.1334,2.1516,2.1753,2.2214,2.2803,2.3353,2.3916,2.4222,2.4431,2.4513,2.4604,2.4666,2.481,2.5421,2.5809,2.6155,2.6366,2.6618,2.661,2.638,2.6104,2.5817,2.5616,2.5619,2.5485,2.531,2.5328,2.5536,2.5893,2.6232,2.6525,2.6841,2.7218,2.7461,2.7549,0.4634,0.4988,0.4882,0.5174,0.5644,0.5552,0.5552,0.5688,0.571,0.571,0.571,0.5733,0.5886,0.6181,0.6625,0.7213,0.7921,0.8042,0.8579,0.9037,0.9336,0.9622,0.989,1.0016,1.0016,1.0016,1.0016,1.0016,1.0103,1.0294,1.0528,1.1003,1.1607,1.2015,1.2256,1.2832,1.3045,1.324,1.3457,1.3613,1.3788,1.4087,1.4465,1.4803,1.5228,1.5649,1.6059,1.6122,1.6063,1.5994,1.5934,1.5891,1.5822,1.5805,1.5805,1.5841,1.6052,1.6421,1.6821,1.696,1.7254,1.7837,1.7573,1.7974,1.8529,1.8804,1.9237,2.0416,2.0914,2.111,2.1197,2.1305,2.1346,2.1415,2.1489,2.1535,2.1615,2.1673,2.1719,2.1661,2.1489,2.1629,2.1958,2.267,2.334,2.4115,2.4669,2.5095,2.5282,2.5161,2.5219,2.5274,2.5569,2.6344,2.6871,2.7302,2.7463,2.7601,2.7415,2.7124,2.6818,2.6484,2.6294,2.6063,2.566,2.5514,2.5478,2.5439,2.5729,2.6042,2.6405,2.6788,2.7218,2.7461,2.7575,0.4792,0.501,0.5235,0.5463,0.5688,0.5666,0.5688,0.5688,0.571,0.571,0.571,0.5713,0.5863,0.6212,0.674,0.7066,0.742,0.7987,0.8465,0.8821,0.9265,0.9677,0.997,1.0016,1.0016,1.0016,1.0016,1.0016,1.0038,1.0103,1.0489,1.1047,1.1348,1.1757,1.2437,1.3005,1.3389,1.358,1.3958,1.4216,1.4367,1.4717,1.513,1.5491,1.5918,1.6277,1.6589,1.6609,1.655,1.6304,1.6232,1.6087,1.5874,1.5805,1.5805,1.5805,1.5903,1.6167,1.6691,1.6752,1.702,1.764,1.7478,1.7512,1.8252,1.9031,1.9616,2.0529,2.0889,2.1156,2.141,2.1617,2.175,2.195,2.2104,2.2305,2.2397,2.2109,2.2167,2.2224,2.2109,2.213,2.2329,2.3136,2.3925,2.4707,2.539,2.5797,2.6003,2.5844,2.5777,2.5815,2.5938,2.6658,2.7083,2.7647,2.8016,2.8228,2.8096,2.7786,2.7501,2.7162,2.6849,2.6565,2.6107,2.5647,2.5459,2.5465,2.5619,2.588,2.6245,2.675,2.7299,2.745,2.7522,0.4679,0.5033,0.5282,0.5508,0.5688,0.571,0.571,0.571,0.571,0.571,0.571,0.571,0.5967,0.6451,0.7011,0.7249,0.7422,0.7956,0.837,0.8679,0.9173,0.9636,0.9926,1.0016,1.0016,1.0009,1.0016,1.0016,1.006,1.025,1.0593,1.0895,1.1413,1.1864,1.247,1.3073,1.3394,1.3708,1.4105,1.4406,1.4631,1.5072,1.5516,1.5728,1.6319,1.6697,1.6858,1.6891,1.673,1.6449,1.6345,1.6267,1.6166,1.6114,1.6087,1.6096,1.6087,1.6234,1.65,1.6569,1.7073,1.7573,1.7779,1.8236,1.8825,1.9339,2.0046,2.1017,2.1252,2.1518,2.1899,2.2214,2.2294,2.2455,2.2667,2.2713,2.2805,2.2719,2.2615,2.2684,2.2753,2.2781,2.2934,2.3676,2.4321,2.4801,2.5534,2.6077,2.628,2.6272,2.6272,2.6327,2.6497,2.6782,2.7086,2.746,2.7852,2.8136,2.846,2.8204,2.8112,2.7841,2.7486,2.6971,2.6431,2.5969,2.5575,2.5392,2.5439,2.5757,2.6083,2.6539,2.6959,2.7258,2.7359,0.4674,0.501,0.5213,0.5441,0.5644,0.5666,0.571,0.571,0.571,0.571,0.5733,0.5822,0.6182,0.6608,0.705,0.7288,0.7351,0.7887,0.8308,0.8724,0.9194,0.9713,1.0046,1.0146,1.0089,1.0066,1.0013,1.0086,1.0294,1.0549,1.0782,1.0804,1.1585,1.2036,1.2378,1.2963,1.351,1.3858,1.4458,1.4703,1.4786,1.5391,1.5701,1.6073,1.6516,1.7019,1.7028,1.7188,1.7047,1.6774,1.6714,1.667,1.6552,1.6482,1.6463,1.6438,1.6378,1.6308,1.6475,1.6668,1.7138,1.7681,1.8281,1.8856,1.9427,1.9856,2.0357,2.1269,2.1632,2.206,2.2542,2.2759,2.2868,2.2926,2.3052,2.3046,2.3069,2.3138,2.323,2.3357,2.3426,2.3414,2.3694,2.4322,2.4776,2.5019,2.5583,2.6282,2.6452,2.6487,2.6487,2.6504,2.6696,2.6918,2.7188,2.7456,2.7769,2.8046,2.839,2.8527,2.8383,2.8277,2.8017,2.7447,2.6864,2.6714,2.6552,2.5882,2.5272,2.5605,2.5921,2.6204,2.6551,2.6907,2.7286,0.4966,0.501,0.5033,0.5213,0.5441,0.5621,0.5716,0.5727,0.5719,0.5719,0.5755,0.6114,0.6345,0.6542,0.6894,0.7158,0.717,0.7889,0.8419,0.8962,0.9532,1.0063,1.0309,1.0346,1.0265,1.0232,1.0094,1.0217,1.0576,1.0917,1.1154,1.1348,1.1826,1.2223,1.2601,1.3059,1.3527,1.3995,1.4634,1.4899,1.5045,1.5491,1.597,1.6228,1.683,1.737,1.7362,1.7632,1.7638,1.7308,1.7237,1.7124,1.6918,1.6857,1.6848,1.6728,1.6663,1.6531,1.6505,1.6661,1.7277,1.7991,1.8687,1.9264,1.9703,2.0101,2.0665,2.1353,2.1818,2.2303,2.2719,2.3064,2.3322,2.3425,2.3523,2.3557,2.3626,2.3787,2.389,2.4039,2.3971,2.3764,2.3812,2.4284,2.4818,2.5069,2.5662,2.6349,2.6452,2.6487,2.6487,2.6555,2.6752,2.7023,2.7356,2.7606,2.7802,2.8049,2.839,2.8536,2.8546,2.8454,2.8345,2.8112,2.7623,2.7583,2.7325,2.6436,2.579,2.5646,2.5799,2.6269,2.659,2.6931,2.731,0.4723,0.461,0.5057,0.5394,0.5602,0.5761,0.5836,0.5813,0.5836,0.577,0.5735,0.6267,0.6485,0.6561,0.6874,0.7117,0.7274,0.8196,0.8646,0.9177,0.981,1.0352,1.0527,1.0464,1.0312,1.0284,1.014,1.0207,1.0614,1.1138,1.1363,1.1617,1.2101,1.2431,1.2781,1.3002,1.3321,1.3613,1.4142,1.4435,1.4763,1.5339,1.5894,1.6162,1.6943,1.7351,1.7456,1.7809,1.7749,1.7606,1.752,1.7409,1.7314,1.7261,1.7167,1.7028,1.6963,1.6827,1.6506,1.6626,1.706,1.8189,1.886,1.9401,1.983,1.9991,2.0724,2.1417,2.2059,2.2478,2.3515,2.3775,2.3895,2.3959,2.3982,2.4005,2.3959,2.4005,2.3879,2.3729,2.3746,2.3712,2.3847,2.407,2.462,2.5133,2.5767,2.6297,2.6418,2.6487,2.6487,2.6487,2.6679,2.6786,2.7087,2.7406,2.7769,2.8082,2.8373,2.849,2.8587,2.8573,2.8478,2.837,2.8207,2.7895,2.742,2.6728,2.629,2.6097,2.6217,2.6554,2.6826,2.7039,2.7311,0.4592,0.45,0.5035,0.5371,0.5496,0.5749,0.5852,0.583,0.5847,0.5834,0.5872,0.6378,0.6597,0.665,0.6896,0.7095,0.738,0.8099,0.8677,0.9275,0.9894,1.052,1.0646,1.0626,1.0541,1.0441,1.0422,1.0555,1.0976,1.1343,1.169,1.2064,1.2394,1.2587,1.2614,1.2864,1.3046,1.3282,1.3607,1.4131,1.4547,1.5056,1.5706,1.6075,1.68,1.7229,1.7453,1.7769,1.7889,1.7757,1.7672,1.7655,1.7638,1.7603,1.7483,1.7398,1.7295,1.7231,1.6905,1.6954,1.7343,1.8382,1.9074,1.9588,1.9904,2.0041,2.0896,2.1899,2.2323,2.2891,2.4054,2.4131,2.4108,2.4097,2.4108,2.4085,2.3769,2.3689,2.3459,2.3293,2.3322,2.3316,2.3531,2.3758,2.456,2.5183,2.5913,2.6332,2.6435,2.6487,2.6487,2.6487,2.6538,2.6594,2.6696,2.7205,2.7719,2.8049,2.8324,2.8506,2.8587,2.8587,2.8587,2.8505,2.8315,2.8044,2.7802,2.7517,2.7038,2.6529,2.6741,2.6974,2.7084,2.7305,2.737,0.4683,0.4728,0.4921,0.5033,0.5124,0.5515,0.571,0.5757,0.5759,0.5858,0.6064,0.6522,0.6745,0.6786,0.696,0.7051,0.7313,0.7986,0.8631,0.9265,1.0056,1.0626,1.0875,1.0948,1.0749,1.089,1.0863,1.0998,1.148,1.1722,1.2104,1.2381,1.2527,1.2563,1.2369,1.2772,1.3184,1.3533,1.3712,1.417,1.4609,1.4944,1.551,1.6044,1.6685,1.7147,1.7412,1.7797,1.7931,1.7909,1.79,1.79,1.7909,1.7917,1.7866,1.7803,1.7603,1.7494,1.7433,1.7797,1.8024,1.8348,1.8874,1.954,2.0071,2.0534,2.1051,2.1872,2.2501,2.3191,2.3838,2.42,2.42,2.4189,2.4189,2.3948,2.3608,2.3476,2.3304,2.2851,2.2731,2.2776,2.302,2.3455,2.4394,2.5204,2.5995,2.6354,2.6427,2.6487,2.6487,2.6487,2.6487,2.6555,2.6714,2.7188,2.7653,2.7997,2.8292,2.849,2.8587,2.8587,2.8587,2.8587,2.8492,2.8302,2.8426,2.851,2.789,2.7319,2.7238,2.738,2.7484,2.7528,2.7555,0.4592,0.4478,0.4855,0.501,0.5065,0.5453,0.5691,0.5818,0.592,0.5963,0.6037,0.6323,0.6549,0.6686,0.6853,0.6995,0.732,0.8425,0.9129,0.9323,1.0284,1.0862,1.1098,1.1,1.0858,1.0785,1.089,1.1159,1.1386,1.185,1.2124,1.2368,1.2524,1.2478,1.2543,1.2704,1.2759,1.2934,1.3296,1.3779,1.4302,1.4995,1.5604,1.6108,1.6778,1.7168,1.7392,1.7777,1.7983,1.7986,1.7977,1.8011,1.8011,1.8011,1.7909,1.7823,1.7649,1.7567,1.7288,1.7225,1.7369,1.7861,1.8503,1.9067,1.9151,1.9906,2.0691,2.1592,2.2355,2.3149,2.3972,2.4159,2.4182,2.42,2.4074,2.3644,2.3339,2.3373,2.3206,2.2513,2.2163,2.2594,2.2916,2.3342,2.4184,2.4935,2.569,2.6149,2.6293,2.6436,2.6487,2.6487,2.6504,2.6555,2.6731,2.7082,2.741,2.7719,2.8148,2.8538,2.8587,2.8587,2.8587,2.8587,2.8587,2.8587,2.8619,2.8615,2.8467,2.8172,2.7947,2.7656,2.7556,2.7593,2.7622,0.4478,0.4344,0.4632,0.4855,0.5042,0.5383,0.5643,0.5835,0.6018,0.6053,0.6054,0.6227,0.6472,0.6667,0.6777,0.7152,0.7551,0.8609,0.9458,0.9646,1.0657,1.1083,1.1127,1.1019,1.1001,1.0929,1.1098,1.1364,1.1734,1.2066,1.2314,1.2445,1.243,1.256,1.268,1.2771,1.3108,1.3395,1.3905,1.4356,1.487,1.5365,1.5805,1.6359,1.6854,1.7188,1.7432,1.77,1.796,1.7917,1.7926,1.7994,1.7991,1.7968,1.7883,1.7834,1.778,1.7658,1.7304,1.728,1.7393,1.7351,1.8033,1.8694,1.9079,1.9924,2.0576,2.1353,2.2052,2.2861,2.3627,2.3808,2.3989,2.4007,2.4051,2.3615,2.3121,2.3144,2.28,2.2117,2.185,2.2317,2.2864,2.3397,2.3988,2.4675,2.5339,2.5731,2.6151,2.6361,2.6373,2.626,2.6336,2.6408,2.6548,2.6866,2.7161,2.7456,2.7934,2.8441,2.8587,2.8587,2.8587,2.8587,2.8587,2.8603,2.8635,2.8595,2.8547,2.8492,2.8395,2.8084,2.7723,2.7683,2.7733,0.4297,0.4297,0.4297,0.4589,0.4988,0.5292,0.5518,0.5738,0.5961,0.6078,0.6081,0.6239,0.6452,0.6735,0.683,0.732,0.8144,0.8925,0.9516,1.0118,1.0782,1.104,1.1099,1.1005,1.0991,1.1296,1.1499,1.1553,1.2175,1.2431,1.2601,1.2653,1.2632,1.2769,1.2966,1.3404,1.3768,1.4047,1.458,1.5098,1.5638,1.5779,1.6164,1.661,1.6973,1.7179,1.7404,1.7728,1.778,1.778,1.7797,1.7914,1.7974,1.7974,1.7974,1.7991,1.7962,1.7695,1.7514,1.7535,1.7548,1.7481,1.8061,1.91,1.9707,1.9989,2.0581,2.1086,2.168,2.2362,2.3014,2.3327,2.3622,2.3842,2.4116,2.3654,2.3018,2.2662,2.2277,2.1873,2.1634,2.1939,2.2599,2.3182,2.4015,2.487,2.5432,2.5439,2.5866,2.6348,2.626,2.5829,2.5954,2.618,2.6418,2.6743,2.6997,2.7306,2.7786,2.8259,2.8422,2.8571,2.8587,2.8587,2.8587,2.8635,2.8748,2.8766,2.8698,2.8647,2.8567,2.8359,2.7961,2.7853,2.7796,0.4297,0.4297,0.4297,0.45,0.4815,0.5238,0.5508,0.5688,0.578,0.586,0.5963,0.5919,0.621,0.6643,0.7099,0.7636,0.8383,0.9121,0.9647,1.0227,1.0724,1.0914,1.0967,1.092,1.0924,1.1033,1.1253,1.1539,1.1772,1.2256,1.2705,1.2699,1.2705,1.2967,1.3541,1.4197,1.4291,1.4576,1.5184,1.572,1.6147,1.6232,1.6507,1.6725,1.7173,1.7317,1.7462,1.7777,1.786,1.79,1.7697,1.7723,1.7991,1.7797,1.7689,1.7931,1.7797,1.7572,1.7488,1.7302,1.7358,1.7747,1.8196,1.8238,1.8927,1.9746,2.0437,2.0834,2.1356,2.2037,2.2507,2.2849,2.3205,2.3556,2.3815,2.3696,2.3126,2.2811,2.2415,2.2057,2.1811,2.208,2.27,2.3328,2.4191,2.5103,2.5561,2.5492,2.5661,2.618,2.6097,2.564,2.5891,2.6218,2.6425,2.6722,2.693,2.7175,2.7606,2.8013,2.8243,2.839,2.8522,2.8603,2.8619,2.8764,2.8956,2.8912,2.8851,2.8676,2.859,2.8413,2.8252,2.8149,2.8068,0.4297,0.4297,0.4297,0.45,0.4879,0.5327,0.5599,0.5688,0.571,0.5734,0.58,0.5763,0.6017,0.6532,0.7078,0.772,0.8556,0.9298,0.9887,1.0361,1.0669,1.0829,1.0901,1.091,1.1,1.1058,1.1193,1.1505,1.1762,1.2236,1.2705,1.2705,1.2705,1.3197,1.3804,1.4349,1.4725,1.5132,1.5625,1.6068,1.6315,1.6446,1.6508,1.6845,1.7313,1.7346,1.7462,1.7777,1.792,1.7891,1.7612,1.7783,1.8003,1.7834,1.7749,1.7957,1.7874,1.7775,1.7706,1.7541,1.7689,1.8044,1.8469,1.8777,1.8981,1.9621,2.0023,2.0397,2.1044,2.1645,2.2006,2.2394,2.2815,2.325,2.3462,2.3688,2.3409,2.3144,2.2777,2.2397,2.2405,2.2614,2.3078,2.3641,2.4101,2.4599,2.5109,2.5392,2.5673,2.6203,2.5921,2.5385,2.5866,2.6373,2.6531,2.6616,2.6803,2.6985,2.7226,2.7606,2.7934,2.8227,2.8373,2.8522,2.8651,2.8812,2.8956,2.9038,2.9002,2.8863,2.8877,2.8893,2.8701,2.8358,2.8324,0.4297,0.4297,0.4297,0.4565,0.501,0.5441,0.5644,0.571,0.571,0.5713,0.5716,0.5735,0.6022,0.649,0.7137,0.7949,0.8742,0.9492,1.0086,1.0593,1.0702,1.0834,1.0886,1.0915,1.1005,1.1302,1.1502,1.1575,1.2165,1.2537,1.2705,1.2705,1.2705,1.317,1.4094,1.4375,1.4878,1.5693,1.6066,1.6426,1.6331,1.6257,1.6269,1.6815,1.7004,1.704,1.7367,1.7637,1.7846,1.7755,1.7712,1.79,1.7891,1.7986,1.7974,1.7974,1.7951,1.7943,1.7917,1.782,1.7871,1.8335,1.9016,1.9143,1.9264,1.9888,2.0342,2.0333,2.0885,2.131,2.1674,2.213,2.2572,2.3131,2.3537,2.3727,2.3709,2.339,2.3,2.2667,2.2557,2.2785,2.3023,2.3548,2.4048,2.4258,2.4685,2.5201,2.5726,2.6269,2.6,2.5435,2.5917,2.6399,2.6302,2.6425,2.6654,2.6833,2.7007,2.7226,2.7606,2.7918,2.8227,2.8438,2.8635,2.8748,2.8892,2.899,2.9164,2.9286,2.9311,2.9425,2.9208,2.878,2.8773,0.4297,0.4297,0.4297,0.4563,0.4988,0.5124,0.5394,0.5688,0.571,0.571,0.5733,0.593,0.6146,0.6479,0.7566,0.8414,0.8896,0.9647,1.0254,1.0499,1.0659,1.0773,1.0872,1.0896,1.1001,1.1085,1.128,1.1692,1.222,1.2543,1.2705,1.2705,1.2738,1.3265,1.4409,1.4552,1.4873,1.5817,1.5965,1.6243,1.6294,1.6593,1.684,1.7018,1.7075,1.7355,1.7622,1.774,1.7917,1.7917,1.7692,1.764,1.7634,1.7866,1.7994,1.8011,1.8011,1.8011,1.8011,1.8011,1.8011,1.8031,1.8465,1.8825,1.9371,2.0313,2.0741,2.0586,2.0702,2.1099,2.1464,2.193,2.2421,2.3057,2.3622,2.3777,2.3939,2.362,2.323,2.3029,2.2817,2.2932,2.315,2.3473,2.395,2.4425,2.4908,2.5409,2.5943,2.6418,2.6422,2.6042,2.6155,2.6411,2.6285,2.6273,2.6539,2.6692,2.6833,2.704,2.7276,2.7673,2.8063,2.8392,2.8619,2.8716,2.8844,2.902,2.9194,2.9399,2.9493,2.9509,2.954,2.9241,2.9332,0.4297,0.4297,0.4433,0.4679,0.4988,0.5124,0.5371,0.5666,0.571,0.571,0.5755,0.5972,0.6213,0.6583,0.7786,0.855,0.8934,0.9744,1.015,1.0399,1.0527,1.0664,1.0773,1.091,1.0986,1.1072,1.1476,1.1896,1.2314,1.2531,1.2705,1.2705,1.2799,1.3287,1.4361,1.4307,1.4542,1.5427,1.5419,1.564,1.5994,1.6351,1.6838,1.6993,1.7325,1.761,1.7785,1.789,1.7951,1.7994,1.7823,1.7792,1.7817,1.7926,1.8003,1.8011,1.8011,1.8011,1.8011,1.8011,1.8011,1.8031,1.8676,1.9323,1.94,2.0265,2.1069,2.1031,2.1482,2.1883,2.193,2.2289,2.2647,2.3168,2.3464,2.364,2.3897,2.3948,2.3752,2.3672,2.3552,2.358,2.3746,2.3775,2.4223,2.4572,2.507,2.5471,2.602,2.6465,2.6482,2.6487,2.6487,2.6487,2.6424,2.6399,2.6479,2.6607,2.6679,2.6884,2.7121,2.7536,2.7914,2.8229,2.849,2.8622,2.8766,2.8972,2.9194,2.9383,2.9462,2.9509,2.9556,2.9587,2.9594,0.4297,0.4344,0.4547,0.4768,0.501,0.5235,0.5463,0.5666,0.571,0.5735,0.5799,0.6038,0.6254,0.6827,0.7687,0.8241,0.8893,0.9696,1.0094,1.028,1.0366,1.0603,1.0811,1.0962,1.113,1.1428,1.1801,1.208,1.2388,1.2592,1.2705,1.2705,1.2866,1.313,1.3566,1.3715,1.3928,1.4553,1.4808,1.5007,1.5402,1.5935,1.6642,1.7118,1.7473,1.7656,1.7899,1.8011,1.8011,1.8003,1.7977,1.7951,1.7943,1.7986,1.7994,1.8011,1.8011,1.8011,1.8011,1.8011,1.8011,1.8244,1.9215,1.9609,1.9588,2.0138,2.0944,2.1587,2.2025,2.2271,2.2308,2.259,2.2927,2.3298,2.3482,2.3641,2.3922,2.4177,2.4143,2.412,2.412,2.4131,2.4143,2.4166,2.4413,2.4766,2.5105,2.5512,2.5898,2.6263,2.6487,2.6487,2.6487,2.6487,2.6487,2.6487,2.6487,2.6504,2.6594,2.6748,2.6935,2.7272,2.7653,2.8049,2.8278,2.8444,2.87,2.8924,2.9131,2.9305,2.9415,2.9462,2.9509,2.9556,2.9587,0.4297,0.4297,0.4366,0.4632,0.4966,0.5077,0.5327,0.5666,0.571,0.5819,0.6016,0.6235,0.6542,0.7007,0.8039,0.8701,0.9104,0.976,1.0088,1.0303,1.0361,1.0636,1.0877,1.1048,1.1419,1.1763,1.2078,1.2347,1.2502,1.2636,1.2705,1.2705,1.2705,1.3056,1.3666,1.3679,1.3621,1.4089,1.4335,1.4538,1.5422,1.6051,1.6792,1.7282,1.7716,1.7858,1.7979,1.7991,1.8011,1.8011,1.8011,1.8011,1.8011,1.8011,1.8011,1.8011,1.8011,1.8011,1.8011,1.8011,1.8011,1.8031,1.8756,1.9085,1.9332,1.9933,2.0731,2.153,2.193,2.212,2.2289,2.2852,2.3261,2.3685,2.3989,2.4007,2.4134,2.4189,2.4177,2.4166,2.4166,2.4166,2.4177,2.4298,2.4485,2.4802,2.507,2.5495,2.605,2.628,2.6452,2.6487,2.6487,2.6487,2.6487,2.6487,2.6487,2.6487,2.6521,2.6658,2.6816,2.6973,2.7343,2.7789,2.8082,2.8278,2.8538,2.8828,2.8956,2.9115,2.932,2.9415,2.9462,2.9509,2.954]},{"header":{"parameterUnit":"m.s-1","parameterCategory":1,"la1":31.0,"la2":29.5877,"lo1":-88.7671,"lo2":-86.6584,"dy":0.0162,"dx":0.0185,"nx":115,"ny":88,"refTime":"2024-03-04T06:00:00:Z","depth":0,"parameterNumber":3,"parameterNumberName":"V-component_of_WINDS"},"data":[0.0,0.0,0.0,0.0,0.0,0.0,0.0,0.0,0.0,0.0,0.0,0.0,0.0,0.0,0.0,0.0,0.0,0.0,0.0,0.0,0.0,0.0,0.0,0.0,0.0,0.0,0.0,0.0,0.0,0.0,0.0,0.0,0.0,0.0,0.0,0.0,0.0,0.0,0.0,0.0,0.0,0.0,0.0,0.0,0.0,0.0,0.0,0.0,0.0,0.0,0.0,0.0,0.0,0.0,0.0,0.0,0.0,0.0,0.0,0.0,0.0,0.0,0.0,0.0,0.0,0.0,0.0,0.0,0.0,0.0,0.0,0.0,0.0,0.0,0.0,0.0,0.0,0.0,0.0,0.0,0.0,0.0,0.0,0.0,0.0,0.0,0.0,0.0,0.0,0.0,0.0,0.0,0.0,0.0,0.0,0.0,0.0,0.0,0.0,0.0,0.0,0.0,0.0,0.0,0.0,0.0,0.0,0.0,0.0,0.0,0.0,0.0,0.0,0.0,0.0,0.0,0.0,0.0,0.0,0.0,0.0,0.0,0.0,0.0,0.0,0.0,0.0,0.0,0.0,0.0,0.0,0.0,0.0,0.0,0.0,0.0,0.0,0.0,0.0,0.0,0.0,0.0,0.0,0.0,0.0,0.0,0.0,0.0,0.0,0.0,0.0,0.0,0.0,0.0,0.0,0.0,0.0,0.0,0.0,0.0,0.0,0.0,0.0,0.0,0.0,0.0,0.0,0.0,0.0,0.0,0.0,0.0,0.0,0.0,0.0,0.0,0.0,0.0,0.0,0.0,0.0,0.0,0.0,0.0,0.0,0.0,0.0,0.0,0.0,0.0,0.0,0.0,0.0,0.0,0.0,0.0,0.0,0.0,0.0,0.0,0.0,0.0,0.0,0.0,0.0,0.0,0.0,0.0,0.0,0.0,0.0,0.0,0.0,0.0,0.0,0.0,0.0,0.0,0.0,0.0,0.0,0.0,0.0,0.0,0.0,0.0,0.0,0.0,0.0,0.0,0.0,0.0,0.0,0.0,0.0,0.0,0.0,0.0,0.0,0.0,0.0,0.0,0.0,0.0,0.0,0.0,0.0,0.0,0.0,0.0,0.0,0.0,0.0,0.0,0.0,0.0,0.0,0.0,0.0,0.0,0.0,0.0,0.0,0.0,0.0,0.0,0.0,0.0,0.0,0.0,0.0,0.0,0.0,0.0,0.0,0.0,0.0,0.0,0.0,0.0,0.0,0.0,0.0,0.0,0.0,0.0,0.0,0.0,0.0,0.0,0.0,0.0,0.0,0.0,0.0,0.0,0.0,0.0,0.0,0.0,0.0,0.0,0.0,0.0,0.0,0.0,0.0,0.0,0.0,0.0,0.0,0.0,0.0,0.0,0.0,0.0,0.0,0.0,0.0,0.0,0.0,0.0,0.0,0.0,0.0,0.0,0.0,0.0,0.0,0.0,0.0,0.0,0.0,0.0,0.0,0.0,0.0,0.0,0.0,0.0,0.0,0.0,0.0,0.0,0.0,0.0,0.0,0.0,0.0,0.0,0.0,0.0,0.0,0.0,0.0,0.0,0.0,0.0,0.0,0.0,0.0,0.0,0.0,0.0,0.0,0.0,0.0,0.0,0.0,0.0,0.0,0.0,0.0,0.0,0.0,0.0,0.0,0.0,0.0,0.0,0.0,0.0,0.0,0.0,0.0,0.0,0.0,0.0,0.0,0.0,0.0,0.0,0.0,0.0,0.0,0.0,0.0,0.0,0.0,0.0,0.0,0.0,0.0,0.0,0.0,0.0,0.0,0.0,0.0,0.0,0.0,0.0,0.0,0.0,0.0,0.0,0.0,0.0,0.0,0.0,0.0,0.0,0.0,0.0,0.0,0.0,0.0,0.0,0.0,0.0,0.0,0.0,0.0,0.0,0.0,0.0,0.0,0.0,0.0,0.0,0.0,0.0,0.0,0.0,0.0,0.0,0.0,0.0,0.0,0.0,0.0,0.0,0.0,0.0,0.0,0.0,0.0,0.0,0.0,0.0,0.0,0.0,0.0,0.0,0.0,0.0,0.0,0.0,0.0,0.0,0.0,0.0,0.0,0.0,0.0,0.0,0.0,0.0,0.0,0.0,0.0,0.0,0.0,0.0,0.0,0.0,0.0,0.0,0.0,0.0,0.0,0.0,0.0,0.0,0.0,0.0,0.0,0.0,0.0,0.0,0.0,0.0,0.0,0.0,0.0,0.0,0.0,0.0,0.0,0.0,0.0,0.0,0.0,0.0,0.0,0.0,0.0,0.0,0.0,0.0,0.0,0.0,0.0,0.0,0.0,0.0,0.0,0.0,0.0,0.0,0.0,0.0,0.0,0.0,0.0,0.0,0.0,0.0,0.0,0.0,0.0,0.0,0.0,0.0,0.0,0.0,0.0,0.0,0.0,0.0,0.0,0.0,0.0,0.0,0.0,0.0,0.0,0.0,0.0,0.0,0.0,0.0,0.0,0.0,0.0,0.0,0.0,0.0,0.0,0.0,0.0,0.0,0.0,0.0,0.0,0.0,0.0,0.0,0.0,0.0,0.0,0.0,0.0,0.0,0.0,0.0,0.0,0.0,0.0,0.0,0.0,0.0,0.0,0.0,0.0,0.0,0.0,0.0,0.0,0.0,0.0,0.0,0.0,0.0,0.0,0.0,0.0,0.0,0.0,0.0,0.0,0.0,0.0,0.0,0.0,0.0,0.0,0.0,0.0,0.0,0.0,0.0,0.0,0.0,0.0,0.0,0.0,0.0,0.0,0.0,0.0,0.0,0.0,0.0,0.0,0.0,0.0,0.0,0.0,0.0,0.0,0.0,0.0,0.0,0.0,0.0,0.0,0.0,0.0,0.0,0.0,0.0,0.0,0.0,0.0,0.0,0.0,0.0,0.0,0.0,0.0,0.0,0.0,0.0,0.0,0.0,0.0,0.0,0.0,0.0,0.0,0.0,0.0,0.0,0.0,0.0,0.0,0.0,0.0,0.0,0.0,0.0,0.0,0.0,0.0,0.0,0.0,0.0,0.0,0.0,0.0,0.0,0.0,0.0,0.0,0.0,0.0,0.0,0.0,0.0,0.0,0.0,0.0,0.0,0.0,0.0,0.0,0.0,0.0,0.0,0.0,0.0,0.0,0.0,0.0,0.0,0.0,0.0,0.0,0.0,0.0,0.0,0.0,0.0,0.0,0.0,0.0,0.0,0.0,0.0,0.0,0.0,0.0,0.0,0.0,0.0,0.0,0.0,0.0,0.0,0.0,0.0,0.0,0.0,0.0,0.0,0.0,0.0,0.0,0.0,0.0,0.0,0.0,0.0,0.0,0.0,0.0,0.0,0.0,0.0,0.0,0.0,0.0,0.0,0.0,0.0,0.0,0.0,0.0,0.0,0.0,0.0,0.0,0.0,0.0,0.0,0.0,0.0,0.0,0.0,0.0,0.0,0.0,0.0,0.0,0.0,0.0,0.0,0.0,0.0,0.0,0.0,0.0,0.0,0.0,0.0,0.0,0.0,0.0,0.0,0.0,0.0,0.0,0.0,0.0,0.0,0.0,0.0,0.0,0.0,0.0,0.0,0.0,0.0,0.0,0.0,0.0,0.0,0.0,0.0,0.0,0.0,0.0,0.0,0.0,0.0,0.0,0.0,0.0,0.0,0.0,0.0,0.0,0.0,0.0,0.0,0.0,0.0,0.0,0.0,0.0,0.0,0.0,0.0,0.0,0.0,0.0,0.0,0.0,0.0,0.0,0.0,0.0,0.0,0.0,0.0,0.0,0.0,0.0,0.0,0.0,0.0,0.0,0.0,0.0,0.0,0.0,0.0,0.0,0.0,0.0,0.0,0.0,0.0,0.0,0.0,0.0,0.0,0.0,0.0,0.0,0.0,0.0,0.0,0.0,0.0,0.0,0.0,0.0,0.0,0.0,0.0,0.0,0.0,0.0,0.0,0.0,0.0,0.0,0.0,0.0,0.0,0.0,0.0,0.0,0.0,0.0,0.0,0.0,0.0,0.0,0.0,0.0,0.0,0.0,0.0,0.0,0.0,0.0,0.0,0.0,0.0,0.0,0.0,0.0,0.0,0.0,0.0,0.0,0.0,0.0,0.0,0.0,0.0,0.0,0.0,0.0,0.0,0.0,0.0,0.0,0.0,0.0,0.0,0.0,0.0,0.0,0.0,0.0,0.0,0.0,0.0,0.0,0.0,0.0,0.0,0.0,0.0,0.0,0.0,0.0,0.0,0.0,0.0,0.0,0.0,1.3785,0.0,0.0,0.0,0.0,0.0,0.0,0.0,0.0,0.0,0.0,0.0,0.0,0.0,0.0,0.0,0.0,0.0,0.0,0.0,0.0,0.0,0.0,0.0,0.0,0.0,0.0,0.0,0.0,0.0,0.0,0.0,0.0,0.0,0.0,0.0,0.0,0.0,0.0,0.0,0.0,0.0,0.0,0.0,0.0,0.0,0.0,0.0,0.0,0.0,0.0,0.0,0.0,0.0,0.0,0.0,0.0,0.0,0.0,0.0,0.0,0.0,0.0,0.0,0.0,0.0,0.0,0.0,0.0,0.0,0.0,0.0,0.0,0.0,0.0,0.0,0.0,0.0,0.0,0.0,0.0,0.0,0.0,0.0,0.0,0.0,0.0,0.0,0.0,0.0,0.0,0.0,0.0,0.0,0.0,0.0,0.0,0.0,0.0,0.0,0.0,0.0,0.0,0.0,0.0,0.0,0.0,0.0,0.0,0.0,0.0,1.3786,1.4138,1.405,1.3966,1.3913,0.0,0.0,0.0,0.0,0.0,0.0,0.0,0.0,0.0,0.0,0.0,0.0,0.0,0.0,0.0,0.0,0.0,0.0,0.0,0.0,0.0,0.0,0.0,0.0,0.0,0.0,0.0,0.0,0.0,0.0,0.0,0.0,0.0,0.0,0.0,0.0,0.0,0.0,0.0,0.0,0.0,0.0,0.0,0.0,0.0,0.0,0.0,0.0,0.0,0.0,0.0,0.0,0.0,0.0,0.0,0.0,0.0,0.0,0.0,0.0,0.0,0.0,0.0,0.0,0.0,0.0,0.0,0.0,0.0,0.0,0.0,0.0,0.0,0.0,0.0,0.0,0.0,0.0,0.0,0.0,0.0,0.0,0.0,0.0,0.0,0.0,0.0,0.0,0.0,0.0,0.0,0.0,0.0,0.0,0.0,0.0,0.0,0.0,0.0,0.0,0.0,0.0,0.0,0.0,0.0,0.0,0.0,0.0,0.0,0.0,0.0,0.0,1.4067,1.4002,1.4012,0.0,0.0,0.0,0.0,0.0,0.0,0.0,0.0,0.0,0.0,0.0,0.0,0.0,0.0,0.0,0.0,0.0,0.0,0.0,0.0,0.0,0.0,0.0,0.0,0.0,0.0,0.0,0.0,0.0,0.0,0.0,0.0,0.0,0.0,0.0,0.0,0.0,0.0,0.0,0.0,0.0,0.0,0.0,0.0,0.0,0.0,0.0,0.0,0.0,0.0,0.0,0.0,0.0,0.0,0.0,0.0,0.0,0.0,0.0,0.0,0.0,0.0,0.0,0.0,0.0,0.0,0.0,0.0,0.0,0.0,0.0,0.0,0.0,0.0,0.0,0.0,0.0,0.0,0.0,0.0,0.0,0.0,0.0,0.0,0.0,0.0,0.0,0.0,0.0,0.0,0.0,0.0,0.0,0.0,0.0,0.0,0.0,0.0,0.0,0.0,0.0,0.0,0.0,0.0,0.0,0.0,0.0,0.0,0.0,0.0,1.4122,1.4195,1.4074,0.0,1.3991,0.0,0.0,0.0,0.0,0.0,0.0,0.0,0.0,0.0,0.0,0.0,0.0,0.0,0.0,0.0,0.0,0.0,0.0,0.0,0.0,0.0,0.0,0.0,0.0,0.0,0.0,0.0,0.0,0.0,0.0,0.0,0.0,0.0,0.0,0.0,0.0,0.0,0.0,0.0,0.0,0.0,0.0,0.0,0.0,0.0,0.0,0.0,0.0,0.0,0.0,0.0,0.0,0.0,0.0,0.0,0.0,0.0,0.0,0.0,0.0,0.0,0.0,0.0,0.0,0.0,0.0,0.0,0.0,0.0,0.0,0.0,0.0,0.0,0.0,0.0,0.0,0.0,0.0,0.0,0.0,0.0,0.0,0.0,0.0,0.0,0.0,0.0,0.0,0.0,0.0,0.0,0.0,0.0,0.0,0.0,0.0,0.0,0.0,0.0,0.0,0.0,0.0,0.0,0.0,0.0,0.0,0.0,0.0,0.0,0.0,1.3883,1.4327,1.4193,1.4143,0.0,0.0,0.0,0.0,0.0,0.0,0.0,0.0,0.0,0.0,0.0,0.0,0.0,0.0,0.0,0.0,0.0,0.0,0.0,0.0,0.0,0.0,0.0,0.0,0.0,0.0,0.0,0.0,0.0,0.0,0.0,0.0,0.0,0.0,0.0,0.0,0.0,0.0,0.0,0.0,0.0,0.0,0.0,0.0,0.0,0.0,0.0,0.0,0.0,0.0,0.0,0.0,0.0,0.0,0.0,0.0,0.0,0.0,0.0,0.0,0.0,0.0,0.0,0.0,0.0,0.0,0.0,0.0,0.0,0.0,0.0,0.0,0.0,0.0,0.0,0.0,0.0,0.0,0.0,0.0,0.0,0.0,0.0,0.0,0.0,0.0,0.0,0.0,0.0,0.0,0.0,0.0,0.0,0.0,0.0,0.0,0.0,0.0,0.0,0.0,0.0,0.0,0.0,0.0,0.0,0.0,0.0,0.0,0.0,0.0,1.3861,1.3771,1.4262,1.4208,1.4193,1.4271,0.0,0.0,0.0,0.0,0.0,0.0,0.0,0.0,0.0,0.0,0.0,0.0,0.0,0.0,0.0,0.0,0.0,0.0,0.0,0.0,0.0,0.0,0.0,0.0,0.0,0.0,0.0,0.0,0.0,0.0,0.0,0.0,0.0,0.0,0.0,0.0,0.0,0.0,0.0,0.0,0.0,0.0,0.0,0.0,0.0,0.0,0.0,0.0,0.0,0.0,0.0,0.0,0.0,0.0,0.0,0.0,0.0,0.0,0.0,0.0,0.0,0.0,0.0,0.0,0.0,0.0,0.0,0.0,0.0,0.0,0.0,0.0,0.0,0.0,0.0,0.0,0.0,0.0,0.0,0.0,0.0,0.0,0.0,0.0,0.0,0.0,0.0,0.0,0.0,0.0,0.0,0.0,0.0,0.0,0.0,0.0,0.0,0.0,0.0,0.0,0.0,0.0,0.0,0.0,0.0,0.0,0.0,0.0,1.4347,1.4224,1.4106,1.4023,1.4005,1.4079,0.0,0.0,0.0,0.0,0.0,0.0,0.0,0.0,0.0,0.0,0.0,0.0,0.0,0.0,0.0,0.0,0.0,0.0,0.0,0.0,0.0,0.0,0.0,0.0,0.0,0.0,0.0,0.0,0.0,0.0,0.0,0.0,0.0,0.0,0.0,0.0,0.0,0.0,0.0,0.0,0.0,0.0,0.0,0.0,0.0,0.0,0.0,0.0,0.0,0.0,0.0,0.0,0.0,0.0,0.0,0.0,0.0,0.0,0.0,0.0,0.0,0.0,0.0,0.0,0.0,0.0,0.0,0.0,0.0,0.0,0.0,0.0,0.0,0.0,0.0,0.0,0.0,0.0,0.0,0.0,0.0,0.0,0.0,0.0,0.0,0.0,0.0,0.0,0.0,0.0,0.0,0.0,0.0,0.0,0.0,0.0,0.0,0.0,0.0,0.0,0.0,0.0,0.0,0.0,0.0,0.0,0.0,0.0,0.0,1.3635,1.3973,1.4084,1.4002,1.4009,1.4033,0.0,0.0,0.0,0.0,0.0,0.0,0.0,0.0,0.0,0.0,0.0,0.0,0.0,0.0,0.0,0.0,0.0,0.0,0.0,0.0,0.0,0.0,0.0,0.0,0.0,0.0,0.0,0.0,0.0,0.0,0.0,0.0,0.0,0.0,0.0,0.0,0.0,0.0,0.0,0.0,0.0,0.0,0.0,0.0,0.0,0.0,0.0,0.0,0.0,0.0,0.0,0.0,0.0,0.0,0.0,0.0,0.0,0.0,0.0,0.0,0.0,0.0,0.0,0.0,0.0,0.0,0.0,0.0,0.0,0.0,0.0,0.0,0.0,0.0,0.0,0.0,0.0,0.0,0.0,0.0,0.0,0.0,0.0,0.0,0.0,0.0,0.0,0.0,0.0,0.0,0.0,0.0,0.0,0.0,0.0,0.0,0.0,0.0,0.0,0.0,0.0,0.0,0.0,0.0,0.0,0.0,0.0,0.0,0.0,1.3535,0.0,1.4125,1.4033,1.4089,1.4101,0.0,0.0,0.0,0.0,0.0,0.0,0.0,0.0,0.0,0.0,0.0,0.0,0.0,0.0,0.0,0.0,0.0,0.0,0.0,0.0,0.0,0.0,0.0,0.0,0.0,0.0,0.0,0.0,0.0,0.0,0.0,0.0,0.0,0.0,0.0,0.0,0.0,0.0,0.0,0.0,0.0,0.0,0.0,0.0,0.0,0.0,0.0,0.0,0.0,0.0,0.0,0.0,0.0,0.0,0.0,0.0,0.0,0.0,0.0,0.0,0.0,0.0,0.0,0.0,0.0,0.0,0.0,0.0,0.0,0.0,0.0,0.0,0.0,0.0,0.0,0.0,0.0,0.0,0.0,0.0,0.0,0.0,0.0,0.0,0.0,0.0,0.0,0.0,0.0,0.0,0.0,0.0,0.0,0.0,0.0,0.0,0.0,0.0,0.0,0.0,0.0,0.0,0.0,0.0,0.0,0.0,0.0,0.0,1.2766,1.4189,1.4273,1.4208,1.4092,1.421,1.4258,0.0,0.0,0.0,0.0,0.0,0.0,0.0,0.0,0.0,0.0,0.0,0.0,0.0,0.0,0.0,0.0,0.0,0.0,0.0,0.0,0.0,0.0,0.0,0.0,0.0,0.0,0.0,0.0,0.0,0.0,0.0,0.0,0.0,0.0,0.0,0.0,0.0,0.0,0.0,0.0,0.0,0.0,0.0,0.0,0.0,0.0,0.0,0.0,0.0,0.0,0.0,0.0,0.0,0.0,0.0,0.0,0.0,0.0,0.0,0.0,0.0,0.0,0.0,0.0,0.0,0.0,0.0,0.0,0.0,0.0,0.0,0.0,0.0,0.0,0.0,0.0,0.0,0.0,0.0,0.0,0.0,0.0,0.0,0.0,0.0,0.0,0.0,0.0,0.0,0.0,0.0,0.0,0.0,0.0,0.0,0.0,0.0,0.0,0.0,0.0,0.0,0.0,0.0,0.0,0.0,0.0,0.0,0.0,0.0,1.4064,1.4093,1.3988,1.3766,1.397,1.4085,0.0,0.0,0.0,0.0,0.0,0.0,0.0,0.0,0.0,0.0,0.0,0.0,0.0,0.0,0.0,0.0,0.0,0.0,0.0,0.0,0.0,0.0,0.0,0.0,0.0,0.0,0.0,0.0,0.0,0.0,0.0,0.0,0.0,0.0,0.0,0.0,0.0,0.0,0.0,0.0,0.0,0.0,0.0,0.0,0.0,0.0,0.0,0.0,0.0,0.0,0.0,0.0,0.0,0.0,0.0,0.0,0.0,0.0,0.0,0.0,0.0,0.0,0.0,0.0,0.0,0.0,0.0,0.0,0.0,0.0,0.0,0.0,0.0,0.0,0.0,0.0,0.0,0.0,0.0,0.0,0.0,0.0,0.0,0.0,0.0,0.0,0.0,0.0,0.0,0.0,0.0,0.0,0.0,0.0,0.0,0.0,0.0,0.0,0.0,0.0,0.0,0.0,0.0,0.0,0.0,0.0,0.0,0.0,0.0,1.4456,1.4474,1.4394,1.4199,1.4373,1.4328,1.3987,0.0,0.0,0.0,0.0,0.0,0.0,0.0,0.0,0.0,0.0,0.0,0.0,0.0,0.0,0.0,0.0,0.0,0.0,0.0,0.0,0.0,0.0,0.0,0.0,0.0,0.0,0.0,0.0,0.0,0.0,0.0,0.0,0.0,0.0,0.0,0.0,0.0,0.0,0.0,0.0,0.0,0.0,0.0,0.0,0.0,0.0,0.0,0.0,0.0,0.0,0.0,0.0,0.0,0.0,0.0,0.0,0.0,0.0,0.0,0.0,0.0,0.0,0.0,0.0,0.0,0.0,0.0,0.0,0.0,0.0,0.0,0.0,0.0,0.0,0.0,0.0,0.0,0.0,0.0,0.0,0.0,0.0,0.0,0.0,0.0,0.0,0.0,0.0,0.0,0.0,0.0,0.0,0.0,0.0,0.0,0.0,0.0,0.0,0.0,0.0,0.0,0.0,0.0,0.0,0.0,0.0,0.0,0.0,1.5329,1.548,1.5484,1.5239,1.5272,1.4865,0.0,0.0,0.0,0.0,0.0,0.0,0.0,0.0,0.0,0.0,0.0,0.0,0.0,0.0,0.0,0.0,0.0,0.0,0.0,0.0,0.0,0.0,0.0,0.0,0.0,0.0,0.0,0.0,0.0,0.0,0.0,0.0,0.0,0.0,0.0,0.0,0.0,0.0,0.0,0.0,0.0,0.0,0.0,0.0,0.0,0.0,0.0,0.0,0.0,0.0,0.0,0.0,0.0,0.0,0.0,0.0,0.0,0.0,0.0,0.0,0.0,0.0,0.0,0.0,0.0,0.0,0.0,0.0,0.0,0.0,0.0,0.0,0.0,0.0,0.0,0.0,0.0,0.0,0.0,0.0,0.0,0.0,0.0,0.0,0.0,0.0,0.0,0.0,0.0,0.0,0.0,0.0,0.0,0.0,0.0,0.0,0.0,0.0,0.0,0.0,0.0,0.0,0.0,0.0,0.0,0.0,0.0,0.0,0.0,1.6848,1.8053,1.7799,1.5935,1.5445,1.5122,0.0,0.0,0.0,0.0,0.0,0.0,0.0,0.0,0.0,0.0,0.0,0.0,0.0,0.0,0.0,0.0,0.0,0.0,0.0,0.0,0.0,0.0,0.0,0.0,0.0,0.0,0.0,0.0,0.0,0.0,0.0,0.0,0.0,0.0,0.0,0.0,0.0,0.0,0.0,0.0,0.0,0.0,0.0,0.0,0.0,0.0,0.0,0.0,0.0,0.0,0.0,0.0,0.0,0.0,0.0,0.0,0.0,0.0,0.0,0.0,0.0,0.0,0.0,0.0,0.0,0.0,0.0,0.0,0.0,0.0,0.0,0.0,0.0,0.0,0.0,0.0,0.0,0.0,0.0,0.0,0.0,0.0,0.0,0.0,0.0,0.0,0.0,0.0,0.0,0.0,0.0,0.0,0.0,0.0,0.0,0.0,0.0,0.0,0.0,0.0,0.0,0.0,0.0,0.0,0.0,0.0,0.0,0.0,1.7291,1.7373,1.9411,1.9571,1.7648,1.6989,1.6292,0.0,0.0,0.0,0.0,0.0,0.0,0.0,0.0,0.0,0.0,0.0,0.0,0.0,0.0,0.0,0.0,0.0,0.0,0.0,0.0,0.0,0.0,0.0,0.0,0.0,0.0,0.0,0.0,0.0,0.0,0.0,0.0,0.0,0.0,0.0,0.0,0.0,0.0,0.0,0.0,0.0,0.0,0.0,0.0,0.0,0.0,0.0,0.0,0.0,0.0,0.0,0.0,0.0,0.0,0.0,0.0,0.0,0.0,0.0,0.0,0.0,0.0,0.0,0.0,0.0,0.0,0.0,0.0,0.0,0.0,0.0,0.0,0.0,0.0,0.0,0.0,0.0,0.0,0.0,0.0,0.0,0.0,0.0,0.0,0.0,0.0,0.0,0.0,0.0,0.0,0.0,0.0,0.0,0.0,0.0,0.0,0.0,0.0,0.0,0.0,0.0,0.0,0.0,0.0,0.0,0.0,0.0,0.0,1.8075,1.7738,2.0196,2.1057,2.0073,1.904,1.774,0.0,0.0,0.0,0.0,0.0,0.0,0.0,0.0,0.0,0.0,0.0,0.0,0.0,0.0,0.0,0.0,0.0,0.0,0.0,0.0,0.0,0.0,0.0,0.0,0.0,0.0,0.0,0.0,0.0,0.0,0.0,0.0,0.0,0.0,0.0,0.0,0.0,0.0,0.0,0.0,0.0,0.0,0.0,0.0,0.0,0.0,0.0,0.0,0.0,0.0,0.0,0.0,0.0,0.0,0.0,0.0,0.0,0.0,0.0,0.0,0.0,0.0,0.0,0.0,0.0,0.0,0.0,0.0,0.0,0.0,0.0,0.0,0.0,0.0,0.0,0.0,0.0,0.0,0.0,0.0,0.0,0.0,0.0,0.0,0.0,0.0,0.0,0.0,0.0,0.0,0.0,0.0,0.0,0.0,0.0,0.0,0.0,0.0,0.0,0.0,0.0,0.0,0.0,0.0,0.0,0.0,0.0,0.0,2.0025,2.0324,2.2136,2.2895,2.2465,1.9378,1.7289,0.0,0.0,0.0,0.0,0.0,0.0,0.0,0.0,0.0,0.0,0.0,0.0,0.0,0.0,0.0,0.0,0.0,0.0,0.0,0.0,0.0,0.0,0.0,0.0,0.0,0.0,0.0,0.0,0.0,0.0,0.0,0.0,0.0,0.0,0.0,0.0,0.0,0.0,0.0,0.0,0.0,0.0,0.0,0.0,0.0,0.0,0.0,0.0,1.249,0.0,0.0,0.0,0.0,0.0,0.0,0.0,0.0,0.0,0.0,0.0,0.0,0.0,0.0,0.0,0.0,0.0,0.0,0.0,0.0,0.0,0.0,0.0,0.0,0.0,0.0,0.0,0.0,0.0,0.0,0.0,0.0,0.0,0.0,0.0,0.0,0.0,0.0,0.0,0.0,0.0,0.0,0.0,0.0,0.0,0.0,0.0,0.0,0.0,0.0,0.0,0.0,0.0,0.0,0.0,0.0,0.0,0.0,0.0,2.0638,2.1515,2.285,2.3273,2.2576,2.0444,1.8717,0.0,0.0,0.0,0.0,0.0,0.0,0.0,0.0,0.0,0.0,0.0,0.0,0.0,0.0,0.0,0.0,0.0,0.0,0.0,0.0,0.0,0.0,0.0,0.0,0.0,0.0,0.0,0.0,0.0,0.0,0.0,0.0,0.0,0.0,0.0,0.0,0.0,0.0,0.0,0.0,0.0,0.0,0.0,0.0,0.0,0.0,0.0,0.0,0.0,0.0,0.0,0.0,0.0,0.0,0.0,0.0,0.0,0.0,0.0,0.0,0.0,0.0,0.0,0.0,0.0,0.0,0.0,0.0,0.0,0.0,0.0,0.0,0.0,0.0,0.0,0.0,0.0,0.0,0.0,0.0,0.0,0.0,0.0,0.0,0.0,0.0,0.0,0.0,0.0,0.0,0.0,0.0,0.0,0.0,0.0,0.0,0.0,0.0,0.0,0.0,0.0,0.0,0.0,0.0,0.0,0.0,0.0,1.9486,2.0984,2.2382,2.3235,2.327,2.2479,2.1831,2.0669,1.8919,0.0,0.0,0.0,0.0,0.0,0.0,0.0,0.0,0.0,0.0,0.0,0.0,0.0,0.0,0.0,0.0,0.0,0.0,0.0,0.0,0.0,0.0,0.0,0.0,0.0,0.0,0.0,0.0,0.0,0.0,0.0,0.0,0.0,0.0,0.0,0.0,0.0,0.0,1.2432,1.2225,0.0,0.0,0.0,0.0,0.0,0.0,0.0,0.0,1.2343,0.0,0.0,0.0,0.0,0.0,0.0,0.0,0.0,0.0,0.0,0.0,0.0,0.0,0.0,0.0,0.0,0.0,0.0,0.0,0.0,0.0,0.0,0.0,0.0,0.0,0.0,0.0,0.0,0.0,0.0,0.0,0.0,0.0,0.0,0.0,0.0,0.0,0.0,0.0,0.0,0.0,0.0,0.0,0.0,0.0,0.0,0.0,0.0,0.0,0.0,0.0,0.0,0.0,0.0,0.0,0.0,1.8463,2.0516,2.2486,2.4277,2.4349,2.4379,2.4457,2.3136,2.1344,1.9139,0.0,0.0,0.0,0.0,0.0,0.0,0.0,0.0,0.0,0.0,0.0,0.0,0.0,0.0,0.0,0.0,0.0,0.0,0.0,0.0,0.0,0.0,0.0,0.0,0.0,0.0,0.0,0.0,0.0,0.0,0.0,0.0,0.0,0.0,0.0,0.0,0.0,0.0,0.0,1.2444,1.2219,0.0,0.0,0.0,0.0,0.0,0.0,0.0,0.0,1.2856,0.0,0.0,0.0,0.0,0.0,0.0,0.0,0.0,0.0,0.0,0.0,0.0,0.0,0.0,0.0,0.0,0.0,0.0,0.0,0.0,0.0,0.0,0.0,0.0,0.0,0.0,0.0,0.0,0.0,0.0,0.0,0.0,0.0,0.0,0.0,0.0,0.0,0.0,0.0,0.0,0.0,0.0,0.0,0.0,0.0,0.0,0.0,0.0,0.0,0.0,0.0,0.0,0.0,0.0,0.0,1.939,2.1608,2.3365,2.4647,2.5014,2.5045,2.4776,2.3765,2.2294,0.0,0.0,0.0,0.0,0.0,0.0,0.0,0.0,0.0,0.0,0.0,0.0,0.0,0.0,0.0,0.0,0.0,0.0,0.0,0.0,0.0,0.0,0.0,0.0,0.0,0.0,0.0,0.0,0.0,0.0,0.0,0.0,0.0,0.0,0.0,0.0,0.0,0.0,0.0,0.0,1.2997,1.3228,1.4029,0.0,0.0,0.0,0.0,0.0,0.0,1.3258,1.323,0.0,0.0,0.0,0.0,0.0,0.0,0.0,0.0,0.0,0.0,0.0,0.0,0.0,0.0,0.0,0.0,0.0,0.0,0.0,0.0,0.0,0.0,0.0,0.0,0.0,0.0,0.0,0.0,0.0,0.0,0.0,0.0,0.0,0.0,0.0,0.0,0.0,0.0,0.0,0.0,0.0,0.0,0.0,0.0,0.0,0.0,0.0,0.0,0.0,0.0,0.0,0.0,0.0,0.0,0.0,2.0229,2.2475,2.4088,2.5037,2.5679,2.5656,2.492,2.404,2.2697,0.0,0.0,0.0,0.0,0.0,0.0,0.0,0.0,0.0,0.0,0.0,0.0,0.0,0.0,0.0,0.0,0.0,0.0,0.0,0.0,0.0,0.0,0.0,0.0,0.0,0.0,0.0,0.0,0.0,0.0,0.0,0.0,0.0,0.0,0.0,0.0,0.0,0.0,0.0,0.0,0.0,1.4219,1.5102,1.4524,0.0,0.0,0.0,0.0,1.3496,1.385,0.0,0.0,0.0,0.0,0.0,0.0,0.0,0.0,0.0,0.0,0.0,0.0,0.0,0.0,0.0,0.0,0.0,0.0,0.0,0.0,0.0,0.0,0.0,0.0,0.0,0.0,0.0,0.0,0.0,0.0,0.0,0.0,0.0,0.0,0.0,0.0,0.0,0.0,0.0,0.0,0.0,0.0,0.0,0.0,0.0,0.0,0.0,0.0,0.0,0.0,0.0,0.0,0.0,0.0,0.0,0.0,2.0616,2.2864,2.4879,2.6523,2.6672,2.6451,2.5913,2.3862,2.1619,0.0,0.0,0.0,0.0,0.0,0.0,0.0,0.0,0.0,0.0,0.0,0.0,0.0,0.0,0.0,0.0,0.0,0.0,0.0,0.0,0.0,0.0,0.0,0.0,0.0,0.0,0.0,0.0,0.0,0.0,0.0,0.0,0.0,0.0,0.0,0.0,0.0,0.0,0.0,0.0,0.0,1.4363,1.4947,1.5021,1.5014,0.0,0.0,0.0,1.6144,1.6575,0.0,0.0,0.0,0.0,0.0,0.0,0.0,0.0,0.0,0.0,0.0,0.0,0.0,0.0,0.0,0.0,0.0,0.0,0.0,0.0,0.0,0.0,0.0,0.0,0.0,0.0,0.0,0.0,0.0,0.0,0.0,0.0,0.0,0.0,0.0,0.0,0.0,0.0,0.0,0.0,0.0,0.0,0.0,0.0,0.0,0.0,0.0,0.0,0.0,0.0,0.0,0.0,0.0,0.0,0.0,1.9136,2.0897,2.3708,2.5527,2.6262,2.6731,2.6634,2.5942,2.3766,2.162,0.0,0.0,0.0,0.0,0.0,0.0,0.0,0.0,0.0,0.0,0.0,0.0,0.0,0.0,0.0,0.0,0.0,0.0,0.0,0.0,0.0,0.0,0.0,0.0,0.0,0.0,0.0,0.0,0.0,0.0,0.0,0.0,0.0,0.0,0.0,0.0,0.0,0.0,0.0,0.0,0.0,0.0,1.6098,1.6154,0.0,0.0,0.0,1.6332,1.547,0.0,0.0,0.0,0.0,0.0,0.0,0.0,0.0,0.0,0.0,0.0,0.0,0.0,0.0,0.0,0.0,0.0,0.0,0.0,0.0,0.0,0.0,0.0,0.0,0.0,0.0,0.0,0.0,0.0,0.0,0.0,0.0,0.0,0.0,0.0,0.0,0.0,0.0,0.0,0.0,0.0,0.0,0.0,0.0,0.0,0.0,0.0,0.0,0.0,0.0,0.0,0.0,0.0,0.0,0.0,0.0,0.0,2.1578,2.4456,2.6102,2.6407,2.7061,2.6895,2.5868,2.4116,0.0,0.0,0.0,0.0,0.0,0.0,0.0,0.0,0.0,0.0,0.0,0.0,0.0,0.0,0.0,0.0,0.0,0.0,0.0,0.0,0.0,0.0,0.0,0.0,0.0,0.0,0.0,1.3339,0.0,0.0,0.0,0.0,0.0,0.0,0.0,0.0,0.0,0.0,0.0,0.0,0.0,0.0,1.6749,1.76,1.7677,1.7705,0.0,0.0,1.7419,1.5848,1.7505,1.8252,0.0,0.0,0.0,0.0,0.0,0.0,0.0,0.0,0.0,0.0,0.0,0.0,0.0,0.0,0.0,0.0,0.0,0.0,0.0,0.0,0.0,0.0,0.0,0.0,0.0,0.0,0.0,0.0,0.0,0.0,0.0,0.0,0.0,0.0,0.0,0.0,0.0,0.0,0.0,0.0,0.0,0.0,0.0,0.0,0.0,0.0,0.0,0.0,0.0,0.0,0.0,0.0,0.0,0.0,0.0,2.3094,2.4901,2.6538,2.7964,2.817,2.7495,2.6033,2.5181,2.326,0.0,0.0,0.0,0.0,0.0,0.0,0.0,0.0,0.0,0.0,0.0,0.0,0.0,0.0,0.0,0.0,0.0,0.0,0.0,0.0,0.0,0.0,0.0,0.0,0.0,0.0,0.0,0.0,0.0,0.0,0.0,0.0,0.0,0.0,0.0,0.0,0.0,0.0,0.0,0.0,0.0,1.803,1.9264,1.9696,2.0142,0.0,0.0,1.9441,1.9176,2.0055,1.9982,1.7467,0.0,0.0,0.0,0.0,0.0,0.0,0.0,0.0,0.0,0.0,0.0,0.0,0.0,0.0,0.0,0.0,0.0,0.0,0.0,0.0,0.0,0.0,0.0,0.0,0.0,0.0,0.0,0.0,0.0,0.0,0.0,0.0,0.0,0.0,0.0,0.0,0.0,0.0,0.0,0.0,0.0,0.0,0.0,0.0,0.0,0.0,0.0,0.0,0.0,0.0,0.0,0.0,0.0,2.0128,2.2586,2.4807,2.6699,2.8163,2.7849,2.7085,2.5978,2.4821,2.296,0.0,0.0,0.0,0.0,0.0,0.0,0.0,0.0,0.0,0.0,0.0,0.0,0.0,0.0,0.0,0.0,0.0,0.0,0.0,0.0,0.0,0.0,0.0,0.0,0.0,0.0,0.0,0.0,1.4394,1.4276,1.3189,0.0,0.0,0.0,0.0,0.0,0.0,0.0,0.0,0.0,0.0,1.8809,2.0297,2.0786,0.0,0.0,2.0848,2.0437,1.941,1.9914,1.9687,1.7488,1.7008,0.0,0.0,0.0,0.0,0.0,0.0,0.0,0.0,0.0,0.0,0.0,0.0,0.0,0.0,0.0,0.0,0.0,0.0,0.0,0.0,0.0,0.0,0.0,0.0,0.0,0.0,0.0,0.0,0.0,0.0,0.0,0.0,0.0,0.0,0.0,0.0,0.0,0.0,0.0,0.0,0.0,0.0,0.0,0.0,0.0,0.0,0.0,0.0,0.0,0.0,0.0,0.0,2.0415,2.2626,2.5082,2.699,2.8284,2.7811,2.7045,2.5991,2.5006,2.3378,0.0,0.0,0.0,0.0,0.0,0.0,0.0,0.0,0.0,0.0,0.0,0.0,0.0,0.0,0.0,0.0,0.0,0.0,0.0,0.0,0.0,0.0,0.0,0.0,0.0,0.0,0.0,0.0,1.4452,1.4259,1.3153,0.0,0.0,0.0,0.0,0.0,0.0,0.0,0.0,0.0,0.0,2.0114,2.1444,2.1432,2.1146,2.0775,2.0593,2.0068,1.8872,1.9343,1.9294,1.7614,0.0,0.0,0.0,0.0,0.0,0.0,0.0,0.0,0.0,0.0,0.0,0.0,0.0,0.0,0.0,0.0,0.0,0.0,0.0,0.0,0.0,0.0,0.0,0.0,0.0,0.0,0.0,0.0,0.0,0.0,0.0,0.0,0.0,0.0,0.0,0.0,0.0,0.0,0.0,0.0,0.0,0.0,0.0,0.0,0.0,0.0,0.0,0.0,0.0,0.0,0.0,0.0,0.0,2.1179,2.3622,2.5943,2.7568,2.8375,2.8375,2.7652,2.6189,2.6056,2.4966,2.2676,0.0,0.0,0.0,0.0,0.0,0.0,0.0,0.0,0.0,0.0,0.0,0.0,0.0,0.0,0.0,0.0,0.0,0.0,0.0,0.0,0.0,0.0,0.0,0.0,0.0,0.0,1.2969,1.301,1.3207,0.0,0.0,0.0,0.0,0.0,0.0,0.0,0.0,0.0,0.0,2.0509,2.2144,2.2735,2.1704,2.0886,2.083,1.9394,1.8158,1.7897,1.8659,1.8998,0.0,0.0,0.0,0.0,0.0,0.0,0.0,0.0,0.0,0.0,0.0,0.0,0.0,0.0,0.0,0.0,0.0,0.0,0.0,0.0,0.0,0.0,0.0,0.0,0.0,0.0,0.0,1.7935,1.7913,0.0,0.0,0.0,0.0,0.0,0.0,0.0,0.0,0.0,0.0,0.0,2.33,2.292,0.0,0.0,0.0,0.0,0.0,0.0,0.0,0.0,0.0,0.0,0.0,0.0,2.1584,2.2965,2.5792,2.7655,2.8435,2.851,2.8018,2.6928,2.6423,2.5048,2.27,0.0,0.0,0.0,0.0,0.0,0.0,0.0,0.0,0.0,0.0,0.0,0.0,0.0,0.0,0.0,0.0,0.0,0.0,0.0,0.0,0.0,0.0,0.0,0.0,0.0,1.437,0.0,0.0,0.0,0.0,0.0,0.0,0.0,0.0,0.0,0.0,0.0,1.9067,2.0355,2.0917,2.1621,2.2745,2.2487,2.2198,0.0,0.0,0.0,0.0,0.0,0.0,0.0,0.0,0.0,0.0,0.0,0.0,0.0,0.0,1.8965,1.7208,1.7004,1.6914,1.6315,0.0,0.0,0.0,0.0,0.0,0.0,0.0,0.0,0.0,0.0,0.0,0.0,0.0,0.0,0.0,0.0,2.0369,0.0,0.0,0.0,0.0,0.0,0.0,0.0,0.0,2.2722,2.3974,2.5064,2.4619,2.4672,0.0,2.4322,2.2598,0.0,0.0,0.0,0.0,0.0,0.0,0.0,0.0,2.2167,2.3053,2.6116,2.8018,2.8506,2.8581,2.8201,2.7356,2.6319,2.5034,2.3487,2.1918,2.0426,0.0,0.0,0.0,0.0,0.0,0.0,0.0,0.0,0.0,0.0,0.0,0.0,0.0,0.0,0.0,0.0,0.0,0.0,0.0,0.0,0.0,0.0,0.0,1.515,0.0,0.0,0.0,0.0,0.0,0.0,0.0,0.0,0.0,1.7974,1.9282,2.0553,2.1502,2.1797,2.1955,2.2111,0.0,0.0,0.0,0.0,0.0,0.0,0.0,1.8901,1.9048,1.8693,1.8491,1.8921,1.9641,2.0075,1.9794,0.0,0.0,1.8528,1.8301,1.8295,1.7861,1.7301,1.7098,1.7696,1.7364,1.7087,0.0,0.0,0.0,0.0,0.0,0.0,0.0,0.0,2.2583,2.2155,0.0,2.206,0.0,0.0,0.0,0.0,0.0,0.0,0.0,0.0,2.5634,2.6802,2.6784,2.5888,2.584,2.6449,2.485,2.401,2.3959,2.3248,0.0,0.0,0.0,0.0,0.0,0.0,2.2981,2.3958,2.6989,2.86,2.86,2.86,2.8219,2.7405,2.5908,2.5099,2.5021,2.3507,2.2275,2.1512,1.9074,0.0,0.0,0.0,0.0,0.0,0.0,0.0,0.0,0.0,0.0,0.0,0.0,0.0,0.0,0.0,0.0,0.0,0.0,0.0,0.0,1.5796,0.0,0.0,0.0,0.0,0.0,0.0,0.0,0.0,0.0,0.0,1.8649,2.0243,2.1585,2.1818,0.0,0.0,0.0,0.0,2.0303,1.8355,1.7554,1.7291,1.7317,1.8462,1.9504,1.9829,0.0,0.0,2.0784,2.0748,2.0732,2.0196,2.1001,2.1244,1.9926,1.9579,1.9277,1.8595,1.8311,1.8122,1.8116,1.8228,1.8143,2.5189,0.0,0.0,0.0,0.0,2.3388,2.436,2.6025,2.5973,2.5821,2.5593,2.5804,0.0,0.0,0.0,0.0,0.0,0.0,2.4552,2.575,2.619,2.7109,2.8421,2.7902,2.7909,2.8309,2.7577,2.6999,2.6631,2.6823,2.4701,2.0454,0.0,0.0,0.0,0.0,2.412,2.5543,2.7568,2.86,2.86,2.86,2.8219,2.7423,2.6952,2.6699,2.6699,2.5681,2.4756,2.3914,2.2106,0.0,0.0,0.0,0.0,0.0,0.0,0.0,0.0,0.0,0.0,0.0,0.0,0.0,0.0,0.0,0.0,0.0,0.0,0.0,1.5676,1.692,1.7158,0.0,0.0,0.0,0.0,0.0,0.0,0.0,0.0,0.0,2.0656,2.1294,2.1593,0.0,0.0,2.107,1.994,2.0629,2.1145,2.0764,0.0,0.0,0.0,2.0959,2.0882,2.1554,2.2575,2.3207,2.3031,2.3337,2.3319,2.2371,2.2535,2.251,2.1657,2.1187,2.0818,2.0399,2.0251,2.0271,2.0391,2.0406,2.0367,2.7967,2.6884,2.5461,2.5324,2.6003,2.5903,2.6887,2.8517,2.8491,2.8256,2.7933,2.8238,2.7172,2.5115,2.423,0.0,0.0,0.0,2.6479,2.7857,2.8154,2.8933,2.9982,2.9777,2.9783,2.9939,2.9701,2.9365,2.8998,2.8717,2.7133,2.4248,0.0,0.0,2.2367,2.3934,2.5229,2.6206,2.7748,2.8574,2.86,2.86,2.8207,2.7393,2.7375,2.7405,2.7387,2.6916,2.623,2.5362,2.4098,2.2158,0.0,0.0,0.0,0.0,0.0,0.0,0.0,0.0,0.0,0.0,0.0,1.6087,1.4615,0.0,0.0,0.0,1.6535,1.6734,1.728,1.7979,0.0,0.0,0.0,0.0,0.0,0.0,0.0,1.8162,2.0203,2.1645,2.1661,2.2027,2.2214,2.1967,2.1858,2.1425,2.0331,0.0,2.2018,2.1635,2.2031,2.2436,2.2623,2.2353,2.2274,2.2744,2.3082,2.3293,2.3288,2.3562,2.3516,2.2953,2.2804,2.2797,2.2601,2.2357,2.203,2.1557,2.1363,2.136,2.1512,2.1484,2.1397,3.0208,2.9907,2.6617,2.6277,2.786,2.7766,2.8618,3.0082,3.0079,2.9627,2.8851,2.9496,2.8496,2.6261,2.5521,0.0,0.0,2.7672,2.8743,2.9622,3.0883,3.1482,3.1482,3.1346,3.1263,3.1209,3.1068,3.0969,3.0837,2.9481,2.8689,2.8465,2.7097,2.5621,2.4253,2.5488,2.623,2.6301,2.7681,2.8434,2.8478,2.8496,2.8098,2.7247,2.7314,2.7399,2.7405,2.7392,2.7024,2.6237,2.5428,2.4182,2.235,0.0,0.0,0.0,0.0,0.0,0.0,0.0,0.0,0.0,0.0,0.0,0.0,0.0,0.0,0.0,1.8621,0.0,1.9616,1.9121,0.0,0.0,0.0,1.9764,2.0316,2.0979,2.1287,2.1102,0.0,0.0,0.0,0.0,2.32,2.3789,2.3776,2.3146,2.1596,2.2435,2.2786,2.1515,2.1788,2.2211,2.243,2.3032,2.3629,2.3736,2.3214,2.2987,2.2814,2.2743,2.2621,2.2587,2.2447,2.2601,2.311,2.3178,2.2963,2.2309,2.1928,2.1732,2.1761,2.1566,2.1422,3.0208,3.0128,2.928,2.9192,2.9589,2.9572,2.9757,3.0082,3.0098,2.992,2.9635,2.98,2.9462,2.8805,2.9785,2.998,2.9589,3.0222,3.074,3.1143,3.1114,3.1263,3.1464,3.1211,3.087,3.0576,3.0854,3.0757,3.0348,3.0394,2.9783,2.8605,2.8207,2.7236,2.5742,2.6024,2.6512,2.7121,2.7483,2.7646,2.7615,2.7609,2.7211,2.6399,2.6988,2.7326,2.7326,2.7947,2.8162,2.7824,2.7051,2.5841,2.4141,2.1464,0.0,0.0,0.0,0.0,0.0,0.0,0.0,0.0,0.0,1.7272,1.4911,0.0,1.8069,0.0,1.9727,2.1056,2.1165,2.1528,0.0,0.0,2.0989,2.0995,2.1214,2.2117,2.2497,2.191,2.2876,2.3532,2.344,2.3566,2.3891,2.4451,2.3603,2.2505,2.1521,2.2468,2.3065,2.2486,2.3061,2.3716,2.3717,2.425,2.4828,2.5271,2.5176,2.5166,2.5284,2.532,2.5127,2.4509,2.4333,2.4233,2.3936,2.3866,2.3825,2.3605,2.2976,2.2295,2.1906,2.1578,2.1435,3.0263,3.0236,3.0252,3.0216,3.0208,3.0208,3.0157,3.0083,3.0083,3.0019,2.9911,3.0294,3.041,3.0417,3.161,3.191,3.1489,3.1922,3.2175,3.2315,3.2264,3.2349,3.2524,3.2336,3.2112,3.1869,3.2069,3.1983,3.1705,3.1926,3.1625,3.0736,3.0742,2.9932,2.8345,2.6928,2.6415,2.6862,2.7224,2.735,2.7288,2.7681,2.7127,2.5655,2.6363,2.6483,2.5779,2.6206,2.6411,2.6303,2.5787,2.4933,2.3683,2.1492,1.9916,0.0,0.0,0.0,0.0,0.0,0.0,0.0,0.0,0.0,0.0,0.0,1.9004,0.0,2.0763,2.2123,2.1733,2.2086,2.2301,2.2149,2.2326,2.2573,2.28,2.3623,2.4003,2.3494,2.4074,2.4464,2.4407,2.4348,2.4406,2.4749,2.4049,2.3309,2.2904,2.3396,2.3718,2.3452,2.3906,2.4492,2.4908,2.5232,2.5547,2.5911,2.5805,2.5647,2.5667,2.5675,2.5507,2.5067,2.4868,2.4779,2.4681,2.4577,2.4513,2.439,2.3829,2.3089,2.2488,2.1914,2.1518,3.0333,3.0299,3.0279,3.0243,3.0208,3.0181,3.0142,3.0083,3.0083,3.0026,2.9972,3.092,3.1343,3.1386,3.2259,3.268,3.2718,3.305,3.3222,3.3278,3.3645,3.3814,3.3834,3.382,3.3778,3.372,3.3662,3.3567,3.3487,3.3441,3.3299,3.3103,3.3092,3.227,3.0647,2.7906,2.6446,2.6379,2.7158,2.7422,2.7215,2.7814,2.7043,2.4911,2.5485,2.5243,2.3894,2.3804,2.3777,2.37,2.3531,2.3225,2.2737,2.1109,2.0248,0.0,1.8981,0.0,0.0,0.0,0.0,0.0,0.0,0.0,0.0,1.9967,2.007,1.994,2.1834,2.2784,2.2186,2.2264,2.2602,2.3127,2.3786,2.4348,2.4723,2.529,2.5583,2.5397,2.5219,2.5122,2.5108,2.4935,2.4756,2.4746,2.4613,2.4429,2.4446,2.4436,2.4364,2.4276,2.433,2.4761,2.5576,2.587,2.6003,2.6159,2.5911,2.5389,2.5274,2.5222,2.5176,2.5151,2.5054,2.5045,2.5492,2.5355,2.5185,2.5171,2.4575,2.3827,2.3136,2.2264,2.1701,3.0273,3.0206,3.0209,3.0221,3.0185,3.015,3.0128,3.0094,3.0094,3.003,3.0029,3.15,3.2113,3.2137,3.3524,3.418,3.4164,3.3936,3.3889,3.3986,3.3853,3.3867,3.3947,3.3842,3.3602,3.3264,3.3593,3.3456,3.2884,3.3337,3.2844,3.148,3.1462,3.064,2.9106,0.0,0.0,0.0,2.7966,2.8025,2.7295,2.6218,2.5136,2.397,2.4133,0.0,2.3822,2.3804,2.3772,2.37,2.361,0.0,0.0,0.0,0.0,0.0,0.0,0.0,0.0,0.0,0.0,0.0,2.1784,2.122,2.0087,2.0858,2.1661,2.2221,2.3197,2.4,2.4423,2.501,2.5347,2.5345,2.5849,2.6204,2.6157,2.6649,2.697,2.6813,2.6213,2.5757,2.5617,2.507,2.4645,2.4645,2.4609,2.4569,2.4508,2.4498,2.4349,2.4038,2.4455,2.5017,2.5513,2.6135,2.6542,2.6568,2.6539,2.6408,2.6339,2.6328,2.6358,2.6342,2.6321,2.6269,2.6415,2.6232,2.599,2.6045,2.5351,2.4447,2.3324,2.239,2.1783,3.0821,0.0,3.0787,3.0676,0.0,3.0138,3.0094,3.0098,3.0061,3.0242,3.0617,3.1854,3.2608,3.3006,3.4213,3.4751,3.4746,3.4517,3.4439,3.4484,3.4203,3.413,3.4197,3.4061,3.3876,3.367,3.3801,3.3666,3.3289,3.3563,3.3186,3.218,3.2257,3.184,3.0996,3.0971,3.0181,2.8594,2.8993,2.9161,2.911,2.8375,2.7344,2.6135,0.0,0.0,0.0,0.0,0.0,0.0,0.0,0.0,0.0,0.0,0.0,2.4478,2.3737,2.3565,2.4258,2.4233,2.4447,2.5021,2.5091,2.4083,2.1678,2.3002,2.4133,2.4505,2.5193,2.5781,2.6146,2.6418,2.6503,2.6395,2.6818,2.706,2.6909,2.7098,2.7264,2.7095,2.6441,2.5931,2.5864,2.5077,2.4569,2.4544,2.4487,2.4452,2.441,2.4457,2.4369,2.4129,2.4897,2.5541,2.5775,2.656,2.7139,2.7152,2.7152,2.7152,2.7152,2.7152,2.7139,2.7126,2.6919,2.6709,2.667,2.6392,2.6096,2.604,2.5508,2.4866,2.4109,2.341,2.2719,3.173,3.1004,3.1493,3.1259,3.0545,3.0223,3.0171,3.0278,0.0,0.0,0.0,3.2042,3.2876,3.3733,3.4548,3.4908,3.4903,3.4825,3.4793,3.4788,3.4545,3.4444,3.4433,3.4311,3.4233,3.4227,3.4105,3.3966,3.3829,3.3829,3.3698,3.3473,3.357,3.357,3.3437,3.3418,3.2422,3.052,3.0165,3.0328,3.0973,3.0738,2.9914,2.8562,2.8374,2.7706,2.6453,2.5628,2.5207,2.5189,2.4341,2.3962,2.4192,2.4183,2.4283,2.4528,2.454,2.517,2.6508,2.6368,2.6722,2.797,2.8089,2.6936,2.4147,2.5592,2.661,2.6575,2.7006,2.7304,2.7408,2.7094,2.6893,2.6906,2.7356,2.7577,2.7397,2.7375,2.738,2.7204,2.6456,2.5858,2.5817,2.5046,2.4467,2.4441,2.4364,2.4369,2.4435,2.4564,2.4601,2.4556,2.5405,2.6132,2.6257,2.6916,2.7537,2.7534,2.7562,2.7585,2.7585,2.7585,2.7585,2.7534,2.7139,2.6854,2.6747,2.6392,2.6002,2.5975,2.5554,2.5162,2.5066,2.4637,2.3867,3.2893,3.2677,3.2,3.1623,3.144,3.0506,3.0441,3.0964,3.025,3.0397,3.1246,3.2061,3.2876,3.3752,3.4529,3.4908,3.4884,3.4825,3.4793,0.0,3.4645,3.4561,3.4556,3.4444,3.4381,3.4357,3.4221,3.4105,3.3985,3.3966,3.3829,3.3619,3.3723,3.3698,3.3577,3.3459,3.323,3.2868,3.1535,3.0865,3.0973,2.9656,2.8829,2.8587,2.7978,2.7471,2.7236,2.6495,2.6038,2.6014,2.5775,2.5924,2.6588,2.7158,2.7825,2.8506,2.8559,2.8952,2.9711,2.9233,2.8983,2.9273,2.9093,2.8577,2.7839,2.7999,2.8144,2.8061,2.7552,2.7349,2.7781,2.7294,2.7032,2.7338,2.7886,2.8178,2.8003,2.7981,2.7996,2.7947,2.6649,2.5769,2.5706,2.4942,2.4338,2.4338,2.4379,2.4476,2.482,2.4987,2.5024,2.5133,2.5948,2.659,2.6687,2.7177,2.7552,2.7585,2.7585,2.7585,2.7585,2.7585,2.7585,2.7585,2.7293,2.7115,2.7091,2.6657,2.6284,2.6177,2.5901,2.5683,2.5574,2.5353,2.4648,3.3648,3.3172,3.2658,3.2192,3.17,3.107,3.1209,3.18,3.1431,3.1734,3.2558,3.2951,3.3558,3.4358,3.4737,3.4908,3.4908,3.4879,3.4859,3.4849,3.4749,3.4703,3.4682,3.4495,3.4392,3.4386,3.4263,3.4117,3.4036,3.4055,3.3972,3.3719,3.3698,3.3608,3.3491,3.3448,3.3393,3.3393,3.2676,3.2306,3.2288,3.1575,3.1206,3.122,3.0833,3.0652,3.0652,2.9832,2.9401,2.9408,2.8853,2.8701,2.9034,2.894,2.9023,2.9362,2.9387,2.954,2.9879,3.0244,3.0403,3.0324,3.0498,3.0442,3.0056,2.9394,2.8976,2.892,2.853,2.8385,2.8671,2.8156,2.786,2.803,2.8557,2.885,2.8783,2.8821,2.881,2.8537,2.7295,2.6307,2.6151,2.508,2.4307,2.4312,2.4537,2.482,2.5103,2.5636,2.5898,2.5731,2.6257,2.6717,2.6829,2.7242,2.7552,2.7585,2.7585,2.7585,2.7585,2.7585,2.7585,2.7572,2.7384,2.7141,2.6998,2.6617,2.6311,2.6082,2.6002,2.5866,2.577,2.5079,2.3877,3.4631,3.4153,3.3629,3.2885,3.2033,3.1804,3.2083,3.2702,3.2695,3.316,3.3884,3.3794,3.4131,3.487,3.4908,3.4908,3.4908,3.4908,3.4908,3.4898,3.4845,3.481,3.4814,3.4583,3.4489,3.4454,3.4322,3.4197,3.4111,3.4167,3.408,3.3842,3.3678,3.3549,3.3444,3.3426,3.3393,3.3393,3.3393,3.3393,3.3393,3.3393,3.3375,3.3393,3.3357,3.3393,3.3349,3.2723,3.2372,3.2346,3.1634,3.1151,3.0936,3.0466,3.0118,2.9958,2.9922,2.9904,2.9972,3.0997,3.1507,3.1185,3.1663,3.1758,3.1213,3.0391,2.9779,2.9628,2.9364,2.9239,2.9252,2.8838,2.8592,2.8714,2.9045,2.923,2.9255,2.925,2.9121,2.8751,2.7661,2.6687,2.6168,2.5259,2.4578,2.4593,2.4851,2.5138,2.5503,2.6287,2.6572,2.6572,2.6717,2.6985,2.7003,2.7305,2.7555,2.7585,2.7585,2.7585,2.7585,2.7585,2.7585,2.756,2.7384,2.7141,2.6854,2.659,2.6337,2.6123,2.6029,2.5975,2.5797,2.4501,2.3002,3.616,3.6541,3.4998,3.3757,3.2832,3.2715,3.3065,3.3638,3.3622,3.4036,3.4709,3.4041,3.4188,3.4832,3.4908,3.4908,3.4908,3.4908,3.4908,3.4908,3.4898,3.4889,3.4879,3.4795,3.4763,3.4713,3.4501,3.4363,3.4328,3.4233,3.4124,3.3966,3.3726,3.3591,3.3581,3.3459,3.3393,3.3393,3.3393,3.3393,3.3393,3.3393,3.3393,3.3393,3.3393,3.3393,3.3378,3.3257,3.3184,3.3187,3.2891,3.244,3.1839,3.2207,3.2222,3.1492,3.1457,3.15,3.1528,3.2287,3.2463,3.1987,3.2109,3.1894,3.1105,3.1104,3.0936,3.0325,2.9578,2.9368,2.9566,2.8956,2.8674,2.9032,2.923,2.9259,2.9116,2.8702,2.8321,2.8036,2.7389,2.6449,2.593,2.546,2.5176,2.507,2.5203,2.5567,2.6314,2.6672,2.7018,2.7272,2.749,2.7475,2.749,2.7522,2.7585,2.7585,2.7585,2.7585,2.7585,2.7585,2.7585,2.7575,2.7423,2.7233,2.7089,2.6893,2.6604,2.6337,2.6217,2.615,2.5685,2.4486,2.3023,3.6105,3.6313,3.5035,3.4185,3.3705,3.3641,3.4012,3.464,3.5056,3.5433,3.5652,3.5334,3.5083,3.4927,3.4908,3.4908,3.4908,3.4908,3.4908,3.4908,3.4908,3.4908,3.4898,3.4844,3.4793,3.4783,3.4612,3.4497,3.4369,3.4191,3.4011,3.3881,3.3766,3.3647,3.3491,3.3517,3.3488,3.3393,3.3393,3.3393,3.3393,3.3393,3.3393,3.3393,3.3393,3.3371,3.3337,3.3236,3.3168,3.3114,3.3021,3.2797,3.2465,3.2283,3.2053,3.1732,3.1714,3.1928,3.2374,3.2721,3.2794,3.2546,3.2369,3.2012,3.1458,3.1257,3.0912,3.0372,3.0074,2.9947,2.9859,2.9441,2.9238,2.9432,2.9502,2.948,2.9355,2.9206,2.8997,2.8618,2.7899,2.7264,2.6763,2.6202,2.5853,2.579,2.5918,2.6299,2.6766,2.7051,2.7335,2.7522,2.7585,2.7585,2.7585,2.7585,2.7585,2.7585,2.7585,2.7585,2.7585,2.7585,2.7585,2.7585,2.7499,2.7361,2.7207,2.7102,2.692,2.663,2.6243,2.5998,2.5295,2.4212,2.2929,3.606,3.6168,3.5732,3.5185,3.4644,3.4838,3.5027,3.5242,3.5776,3.599,3.5997,3.6141,3.5865,3.5287,3.5026,3.4908,3.4908,3.4908,3.4908,3.4908,3.4908,3.4908,3.4898,3.4859,3.4839,3.48,3.4708,3.4556,3.4392,3.4215,3.403,3.3881,3.3848,3.3739,3.3553,3.3577,3.3574,3.3448,3.3404,3.3393,3.3393,3.3393,3.3393,3.3393,3.3371,3.3344,3.3292,3.316,3.3057,3.2987,3.294,3.2908,3.2872,3.2339,3.2035,3.2035,3.2017,3.2275,3.2872,3.2908,3.2868,3.2787,3.2573,3.2249,3.1813,3.1439,3.0982,3.0468,3.041,3.0267,2.9979,2.9797,2.9697,2.9653,2.9675,2.9653,2.9502,2.9597,2.9475,2.9124,2.8522,2.8004,2.7557,2.683,2.6256,2.6401,2.6645,2.6931,2.7031,2.7335,2.757,2.7585,2.7625,2.7638,2.7597,2.7585,2.7585,2.7585,2.7585,2.7585,2.7585,2.7585,2.7585,2.7585,2.7585,2.7562,2.7425,2.7323,2.7102,2.6749,2.6337,2.5862,2.5351,2.4281,2.3348,3.6375,3.7209,3.7927,3.7133,3.5694,3.6325,3.6129,3.5385,3.5337,3.5274,3.5448,3.6035,3.625,3.6145,3.542,3.4932,3.4946,3.4965,3.4946,3.4908,3.4908,3.4908,3.4908,3.4903,3.4898,3.4898,3.4815,3.466,3.4409,3.4387,3.4245,3.4023,3.3985,3.3926,3.3773,3.3682,3.3605,3.357,3.3473,3.34,3.3393,3.3393,3.3393,3.3386,3.3337,3.3292,3.3269,3.3106,3.2995,3.2987,3.2932,3.2908,3.289,3.2836,3.2793,3.2793,3.2811,3.2829,3.2882,3.2908,3.2812,3.2625,3.2688,3.2571,3.1975,3.1776,3.1413,3.0818,3.0487,3.0188,2.982,2.9748,2.9675,2.9563,2.963,2.9642,2.9496,2.9507,2.9378,2.9133,2.89,2.8466,2.7728,2.6902,2.6754,2.69,2.7006,2.7122,2.7445,2.758,2.761,2.7638,2.7688,2.7753,2.7638,2.7625,2.7625,2.7585,2.7585,2.7585,2.7585,2.7585,2.7585,2.7585,2.7585,2.76,2.7587,2.7435,2.7152,2.6747,2.6231,2.5753,2.5342,2.4927,2.4,3.7232,3.7987,3.828,3.797,3.7363,3.7054,3.6664,3.6265,3.6181,3.6387,3.6739,3.7019,3.7376,3.7742,3.6889,3.622,3.5747,3.5728,3.5443,3.4965,3.4908,3.4908,3.4908,3.4908,3.4908,3.4903,3.4888,3.4746,3.4528,3.437,3.4179,3.403,3.4004,3.3927,3.3822,3.3854,3.378,3.3626,3.3549,3.3477,3.34,3.3393,3.3393,3.3386,3.333,3.3262,3.3183,3.3057,3.2989,3.2932,3.2908,3.2908,3.2908,3.2908,3.2908,3.2908,3.2908,3.2908,3.2908,3.2908,3.2868,3.2763,3.2589,3.2429,3.2091,3.1675,3.1249,3.0942,3.0628,3.0279,2.9984,2.9858,2.9775,2.9664,2.9664,2.9619,2.9446,2.9378,2.9309,2.9137,2.8978,2.8717,2.8303,2.7894,2.7721,2.7737,2.7613,2.7584,2.7673,2.7725,2.774,2.7725,2.7778,2.779,2.7753,2.7713,2.77,2.7625,2.7585,2.7585,2.7585,2.7585,2.7585,2.7572,2.7572,2.7471,2.742,2.7201,2.6956,2.6378,2.588,2.5591,2.5314,2.4723,2.393,3.7647,3.8336,3.8395,3.8196,3.7865,3.7552,3.7193,3.686,3.6758,3.7099,3.764,3.765,3.8018,3.8591,3.8343,3.7756,3.6979,3.6467,3.5893,3.533,3.504,3.4908,3.4908,3.4908,3.4908,3.4903,3.487,3.4766,3.4607,3.4363,3.4203,3.4074,3.4061,3.4005,3.3971,3.3985,3.3875,3.3698,3.3615,3.3527,3.3415,3.3393,3.3393,3.3371,3.3307,3.3198,3.3119,3.3018,3.2948,3.2908,3.2908,3.2908,3.2908,3.2908,3.2908,3.2908,3.2908,3.2908,3.2908,3.2908,3.2908,3.2884,3.253,3.2292,3.2266,3.1592,3.1162,3.1031,3.0624,3.0236,3.0146,2.9935,2.9742,2.9653,2.9642,2.9563,2.9385,2.9328,2.9236,2.9126,2.8978,2.8838,2.8708,2.8553,2.8365,2.8223,2.8039,2.7915,2.7865,2.788,2.7843,2.7815,2.784,2.7815,2.7753,2.7728,2.7715,2.7638,2.7585,2.7585,2.7585,2.7585,2.7572,2.756,2.7471,2.7344,2.7163,2.6941,2.6469,2.5893,2.5536,2.5258,2.4854,2.4397,2.3711,3.7675,3.8494,3.8434,3.8129,3.7604,3.7989,3.7737,3.7085,3.6783,3.7032,3.7559,3.7685,3.8071,3.8745,3.9334,3.9348,3.8438,3.7111,3.632,3.6031,3.5268,3.4908,3.4908,3.5003,3.5116,3.513,3.4863,3.4742,3.4701,3.4493,3.4305,3.4197,3.4197,3.4167,3.4185,3.4068,3.394,3.38,3.3671,3.356,3.3415,3.3393,3.3393,3.3378,3.3211,3.3109,3.3119,3.2979,3.2908,3.2908,3.2908,3.2908,3.2908,3.2908,3.2908,3.2908,3.2908,3.2908,3.29,3.2884,3.286,3.2852,3.2513,3.2344,3.2352,3.1686,3.122,3.123,3.0658,3.0167,3.0316,2.9897,2.9547,2.9507,2.9529,2.9484,2.945,2.9366,2.9248,2.911,2.8978,2.8873,2.8775,2.866,2.8505,2.8299,2.8174,2.8113,2.8014,2.8005,2.7943,2.7868,2.7893,2.7893,2.7806,2.7703,2.7678,2.7653,2.7612,2.7585,2.7585,2.7585,2.7585,2.7547,2.7238,2.7084,2.6576,2.6351,2.604,2.555,2.5244,2.4863,2.4413,2.3978,2.3676,3.885,4.0124,4.0148,3.9968,3.9549,3.8772,3.8142,3.7718,3.6577,3.6392,3.7033,3.7563,3.8136,3.8826,3.9587,3.9797,3.9456,3.8381,3.732,3.6258,3.5325,3.4965,3.5059,3.5519,3.6083,3.6319,3.5359,3.502,3.5232,3.4753,3.4347,3.4227,3.4216,3.4216,3.4216,3.4154,3.4018,3.3815,3.3766,3.364,3.3422,3.3393,3.3393,3.3371,3.3211,3.3119,3.3111,3.2961,3.289,3.2908,3.2908,3.2908,3.2908,3.2908,3.2908,3.2908,3.2908,3.2908,3.2884,3.2747,3.2731,3.2771,3.2464,3.2266,3.2318,3.1804,3.1456,3.1418,3.0858,3.0474,3.0242,2.987,2.9605,2.9705,2.9497,2.9332,2.9252,2.9206,2.916,2.9098,2.8978,2.8889,2.8803,2.8684,2.8541,2.8372,2.8259,2.8186,2.8149,2.814,2.8091,2.7995,2.798,2.7955,2.784,2.774,2.769,2.765,2.7625,2.7585,2.7585,2.7572,2.7585,2.7355,2.7058,2.664,2.615,2.5838,2.5591,2.5175,2.4765,2.4363,2.3941,2.3631,2.3385,3.9706,4.0923,4.0613,4.0461,4.0364,3.9278,3.8852,3.8661,3.7604,3.7498,3.8136,3.7905,3.8418,3.9209,3.9517,3.9711,3.9805,3.9079,3.814,3.7111,3.6239,3.5836,3.5898,3.6353,3.6656,3.6793,3.6115,3.5741,3.5745,3.5195,3.4651,3.4296,3.4216,3.4216,3.4216,3.421,3.4068,3.3854,3.3807,3.3689,3.3459,3.3393,3.3393,3.3371,3.3203,3.3127,3.3086,3.2961,3.2908,3.2908,3.2908,3.2908,3.2908,3.2908,3.2908,3.2908,3.2908,3.2908,3.2884,3.2763,3.2707,3.2747,3.2404,3.217,3.2161,3.1802,3.1502,3.144,3.0875,3.0474,3.0327,2.976,2.9544,2.9711,2.9425,2.9202,2.9126,2.9114,2.9064,2.9029,2.8971,2.8865,2.874,2.8657,2.8553,2.842,2.8335,2.8287,2.8259,2.8287,2.8201,2.8115,2.8091,2.8002,2.789,2.779,2.7688,2.7663,2.765,2.7612,2.7585,2.7572,2.756,2.7047,2.668,2.6216,2.5729,2.5646,2.5439,2.4907,2.4321,2.3971,2.363,2.3467,2.3246,4.0204,4.0848,4.014,3.9895,3.9876,3.9679,3.9577,3.9612,3.933,3.9478,3.9767,3.8644,3.8776,3.9725,3.9376,3.9462,3.9758,3.926,3.8836,3.8495,3.7907,3.7428,3.7168,3.7073,3.6927,3.6774,3.6957,3.6745,3.6233,3.5763,3.526,3.4624,3.4389,3.4277,3.4352,3.4271,3.4068,3.3847,3.3807,3.3682,3.3415,3.3393,3.3393,3.3386,3.3203,3.3104,3.3104,3.2987,3.2908,3.2908,3.2908,3.2908,3.2908,3.2908,3.2908,3.2908,3.2908,3.2892,3.2892,3.2745,3.2763,3.2731,3.2361,3.2197,3.2117,3.1719,3.1406,3.1431,3.0722,3.0338,3.038,2.9749,2.9346,2.9465,2.9289,2.9121,2.9114,2.9114,2.9052,2.8955,2.8893,2.8826,2.8633,2.8597,2.8517,2.8444,2.8399,2.8372,2.8372,2.836,2.8323,2.8262,2.8162,2.8079,2.7955,2.7828,2.7725,2.7675,2.7612,2.7486,2.7408,2.7382,2.719,2.6682,2.627,2.5783,2.5453,2.537,2.5048,2.4493,2.4028,2.3658,2.345,2.3318,2.32,4.0228,4.0945,4.0686,4.0597,4.0478,3.9917,3.9636,3.9532,3.89,3.8856,3.8807,3.888,3.9001,3.928,3.9642,3.9851,3.9835,3.967,3.9583,3.9545,3.9394,3.8471,3.7452,3.6827,3.7116,3.7802,3.7605,3.741,3.751,3.6392,3.5857,3.5993,3.4798,3.455,3.5002,3.4513,3.4098,3.3854,3.3807,3.3657,3.3444,3.3393,3.3393,3.3389,3.3168,3.3065,3.3096,3.2979,3.2908,3.2908,3.2908,3.2908,3.2908,3.2908,3.29,3.29,3.29,3.2868,3.2763,3.2488,3.2403,3.2564,3.2135,3.1819,3.209,3.1709,3.1445,3.1261,3.0654,3.0221,3.0189,2.9582,2.9236,2.9202,2.9156,2.9114,2.9114,2.9103,2.9052,2.8916,2.8842,2.8767,2.8648,2.8517,2.8444,2.8424,2.8411,2.8411,2.8411,2.8399,2.8348,2.8259,2.8174,2.8115,2.8017,2.7865,2.7778,2.7715,2.7552,2.7271,2.7128,2.6958,2.6604,2.6137,2.5934,2.5522,2.523,2.5033,2.4549,2.4217,2.4013,2.3806,2.348,2.3273,2.3183,4.0503,4.0951,4.0888,4.0854,4.0815,4.0315,4.0113,4.0011,3.9558,3.9283,3.927,3.9231,3.9415,3.9591,3.9628,3.9794,3.9961,3.9922,3.9876,3.9824,3.9489,3.8793,3.8059,3.7694,3.8111,3.8571,3.8507,3.8354,3.8154,3.7221,3.6839,3.6415,3.5392,3.5039,3.533,3.46,3.4017,3.3822,3.3753,3.3594,3.3408,3.3393,3.3393,3.3341,3.3127,3.2995,3.2906,3.281,3.2802,3.2858,3.2908,3.2908,3.2908,3.2908,3.2892,3.286,3.2852,3.2804,3.2698,3.2412,3.2275,3.2275,3.1973,3.1801,3.1691,3.154,3.1428,3.0948,3.0479,3.0162,2.9892,2.9425,2.916,2.9126,2.9114,2.9114,2.9114,2.9114,2.9052,2.8932,2.8834,2.8747,2.8609,2.8481,2.8436,2.8411,2.8411,2.8411,2.8411,2.8399,2.8372,2.8299,2.8259,2.8238,2.8155,2.8005,2.7778,2.7703,2.7372,2.7089,2.679,2.6564,2.6245,2.588,2.5605,2.5342,2.509,2.4863,2.4621,2.4362,2.4173,2.3879,2.3524,2.3228,2.3153,4.0893,4.0899,4.0837,4.0807,4.0809,4.0804,4.0724,4.0782,4.0657,4.0621,4.0473,3.9901,3.9897,4.04,3.9668,3.9514,4.0062,3.9962,3.9905,3.973,3.9361,3.8874,3.8893,3.902,3.8963,3.8874,3.9508,3.9218,3.8653,3.8312,3.7816,3.7073,3.6154,3.5652,3.5571,3.4734,3.4081,3.3795,3.3678,3.3537,3.3422,3.3393,3.3371,3.3297,3.3073,3.2844,3.2688,3.2622,3.2688,3.2868,3.285,3.285,3.2876,3.2884,3.2836,3.2797,3.2773,3.2714,3.2615,3.2497,3.2326,3.2082,3.2161,3.1957,3.1382,3.1361,3.1274,3.0773,3.0321,2.9957,2.9589,2.9243,2.9137,2.9114,2.9114,2.9114,2.9114,2.9103,2.9052,2.8932,2.8846,2.8743,2.8624,2.8505,2.8411,2.8411,2.8411,2.8411,2.8411,2.8411,2.8411,2.8399,2.8372,2.8399,2.829,2.814,2.7865,2.7653,2.7178,2.68,2.6418,2.6164,2.5934,2.5688,2.5481,2.5286,2.5061,2.4849,2.4664,2.4391,2.413,2.382,2.348,2.3258,2.3095,4.0866,4.0815,4.0812,4.0807,4.0804,4.0801,4.0806,4.0806,4.0805,4.0733,4.0558,4.0348,4.0261,4.0256,3.9981,3.994,4.0019,3.9954,3.9895,3.9857,3.9786,3.9635,3.9489,3.9323,3.8917,3.8955,3.9545,3.9632,3.9199,3.8682,3.8428,3.8356,3.7108,3.6433,3.6302,3.5431,3.4585,3.3935,3.3664,3.3527,3.3422,3.3386,3.3326,3.3173,3.2955,3.2756,3.259,3.2573,3.2631,3.2664,3.2672,3.2696,3.2771,3.2713,3.2672,3.2665,3.2648,3.2599,3.2472,3.2258,3.2073,3.201,3.1838,3.1576,3.1315,3.1261,3.1173,3.0804,3.0294,2.9733,2.9328,2.9156,2.9114,2.9114,2.9114,2.9114,2.9114,2.9114,2.9052,2.8932,2.8846,2.8743,2.8624,2.8508,2.8448,2.8424,2.8411,2.8411,2.8411,2.8411,2.8411,2.8411,2.856,2.8593,2.8556,2.8363,2.8017,2.7656,2.715,2.6604,2.6205,2.5947,2.5811,2.5619,2.5411,2.5216,2.5047,2.4934,2.4792,2.4434,2.4101,2.3835,2.3569,2.3318,2.3095,4.0856,4.0809,4.0807,4.0793,4.0809,4.08,4.0808,4.0799,4.0803,4.0739,4.066,4.0646,4.0546,4.0383,4.0325,4.0266,4.0167,4.0038,3.9968,3.9916,3.9876,3.9876,3.9862,3.9526,3.9272,3.9342,3.9659,3.9757,3.9503,3.9157,3.8977,3.9087,3.7896,3.7306,3.7007,3.6005,3.5028,3.4401,3.3828,3.3527,3.3415,3.3393,3.3248,3.3057,3.2884,3.2732,3.2499,3.2482,3.2523,3.254,3.2523,3.2565,3.2673,3.2648,3.2597,3.2547,3.2446,3.2378,3.2232,3.2029,3.1793,3.1656,3.1626,3.1305,3.11,3.1028,3.0895,3.0426,2.9979,2.9622,2.9183,2.9114,2.9114,2.9114,2.9114,2.9114,2.9114,2.9103,2.9075,2.8978,2.8912,2.8811,2.8708,2.8602,2.8494,2.8485,2.8476,2.8476,2.8411,2.8411,2.8411,2.8476,2.8707,2.8799,2.8828,2.8606,2.817,2.7719,2.7195,2.6611,2.6086,2.5908,2.577,2.5591,2.5425,2.5258,2.5118,2.5005,2.4878,2.4607,2.4303,2.3967,2.3658,2.3363,2.3183,4.0871,4.0801,4.0796,4.0806,4.0803,4.0799,4.0796,4.0797,4.0794,4.0781,4.0759,4.0762,4.0666,4.0575,4.0485,4.0421,4.0363,4.0425,4.0363,3.9973,3.9943,3.9927,3.9873,3.9824,3.9786,3.9876,3.9876,3.9815,3.9693,3.9593,3.9352,3.9193,3.8577,3.7989,3.7553,3.6542,3.5477,3.4885,3.4237,3.368,3.3433,3.3386,3.3218,3.2971,3.2844,3.2691,3.2474,3.2431,3.2431,3.2473,3.2431,3.2456,3.2532,3.2564,3.2539,3.2482,3.2344,3.2249,3.2161,3.1947,3.1691,3.122,3.1592,3.1382,3.0808,3.0821,3.0679,3.0167,2.9727,2.9566,2.9183,2.9114,2.9114,2.9114,2.9114,2.9114,2.9114,2.9114,2.9103,2.9075,2.8971,2.8854,2.8833,2.8783,2.8659,2.8565,2.8575,2.8597,2.8593,2.8643,2.8774,2.8903,2.9195,2.9115,2.9072,2.8923,2.8498,2.7956,2.7367,2.6845,2.6243,2.5964,2.5826,2.5647,2.5495,2.5356,2.523,2.5118,2.4963,2.4763,2.4391,2.3954,2.3645,2.3392,2.3243,4.0859,4.0803,4.0802,4.0803,4.08,4.0803,4.0803,4.0797,4.0794,4.0742,4.0657,4.0651,4.0623,4.0523,4.0471,4.0379,4.0519,4.0812,4.0758,4.0176,4.0041,3.9996,3.9911,3.9895,3.9895,3.9895,3.9895,3.9826,3.9734,3.967,3.9545,3.9313,3.9104,3.869,3.8056,3.7357,3.6351,3.5271,3.4665,3.4153,3.3538,3.3356,3.3211,3.2916,3.2762,3.2582,3.2457,3.2406,3.2414,3.2423,3.2414,3.2405,3.244,3.2439,3.244,3.2414,3.2362,3.2232,3.209,3.2028,3.181,3.1615,3.1691,3.1534,3.1008,3.0888,3.0669,3.0214,2.976,2.9481,2.916,2.9114,2.9114,2.9114,2.9114,2.9114,2.9114,2.9114,2.9114,2.9103,2.8994,2.8905,2.8888,2.895,2.8981,2.9048,2.9208,2.9307,2.9373,2.9454,2.9611,2.9707,2.982,2.9572,2.9332,2.9146,2.8833,2.8295,2.7755,2.7328,2.675,2.6174,2.5909,2.5911,2.5758,2.5578,2.5439,2.5258,2.4963,2.4692,2.4291,2.3883,2.3586,2.3318,2.3213,4.0855,4.0807,4.0843,4.0836,4.0803,4.0809,4.0809,4.0797,4.0813,4.0778,4.0733,4.0704,4.0677,4.0714,4.1062,4.1074,4.1061,4.1283,4.0989,4.028,4.0101,4.0031,3.9911,3.9895,3.9895,3.9895,3.9895,3.9878,3.9779,3.9728,3.9629,3.9501,3.9389,3.9041,3.855,3.794,3.7022,3.5829,3.5104,3.439,3.3502,3.3355,3.3147,3.2942,3.2758,3.254,3.2431,3.2406,3.2406,3.2406,3.2406,3.2406,3.2406,3.2406,3.2406,3.2388,3.231,3.2152,3.1973,3.1847,3.1632,3.1423,3.1568,3.1351,3.0938,3.073,3.059,3.0016,2.96,2.9278,2.9126,2.913,2.9114,2.9114,2.9161,2.9177,2.9146,2.9161,2.9209,2.9256,2.9162,2.9077,2.89,2.9016,2.9252,2.949,2.9766,2.9945,3.0103,3.0137,3.0214,3.0189,3.0197,3.0095,2.9788,2.9563,2.9218,2.8669,2.8195,2.7768,2.7329,2.6793,2.6498,2.6414,2.619,2.5869,2.5578,2.537,2.5005,2.465,2.4305,2.3956,2.3556,2.3273,2.3168,4.0871,4.0809,4.0862,4.0845,4.0803,4.0796,4.0796,4.0797,4.0794,4.0794,4.0794,4.079,4.0749,4.0903,4.1387,4.1705,4.1477,4.1613,4.1246,4.0348,4.034,4.0273,3.9946,3.9895,3.9895,3.9895,3.9895,3.9895,3.9873,3.9804,3.9722,3.9593,3.942,3.9298,3.9019,3.8421,3.742,3.6563,3.5754,3.4837,3.4074,3.3697,3.3516,3.3346,3.3176,3.3087,3.3064,3.3055,3.2888,3.2792,3.2669,3.2581,3.2441,3.2406,3.2406,3.2388,3.224,3.2054,3.1846,3.1772,3.1614,3.1288,3.146,3.121,3.0838,3.0648,3.0378,2.967,2.9321,2.9156,2.9141,2.9256,2.9347,2.9442,2.9509,2.9572,2.9682,2.9761,2.9825,2.9746,2.9509,2.943,2.9405,2.9478,2.9774,3.0182,3.0463,3.0544,3.0669,3.0591,3.0594,3.0524,3.0506,3.054,3.0338,3.0057,2.9644,2.9086,2.867,2.8272,2.7862,2.7425,2.7228,2.6989,2.6456,2.6134,2.5814,2.5495,2.5174,2.4821,2.4435,2.4015,2.3556,2.3273,2.3138,4.0872,4.0807,4.0798,4.0808,4.0797,4.08,4.0797,4.0797,4.0794,4.0794,4.0794,4.0813,4.0752,4.0957,4.1527,4.1393,4.1292,4.1822,4.1608,4.0416,4.0637,4.0501,3.9987,3.9895,3.9895,3.9895,3.9895,3.9895,3.9889,3.9873,3.9753,3.9581,3.9496,3.9376,3.9146,3.8796,3.8272,3.7437,3.6964,3.6321,3.5504,3.5149,3.4952,3.4793,3.4578,3.4367,3.4153,3.41,3.3933,3.3336,3.3327,3.3029,3.2546,3.2406,3.2406,3.2406,3.2336,3.2205,3.1936,3.1882,3.1718,3.1378,3.149,3.1471,3.1025,3.0531,3.0135,2.9592,2.9387,2.9388,2.9469,2.9753,2.9971,3.0212,3.0389,3.063,3.0756,3.0361,3.044,3.0519,3.0361,3.025,3.0176,3.0253,3.0383,3.0784,3.111,3.1155,3.1162,3.104,3.0994,3.0937,3.0809,3.0836,3.0646,3.0403,3.001,2.9487,2.9126,2.8774,2.8478,2.8127,2.7833,2.7509,2.6947,2.6414,2.6106,2.5772,2.5397,2.5019,2.4608,2.4086,2.3522,2.3315,2.317,4.0866,4.0804,4.0812,4.0802,4.0797,4.0794,4.0794,4.0794,4.0794,4.0794,4.0794,4.0794,4.0994,4.1316,4.1759,4.1639,4.143,4.1908,4.1488,4.0506,4.0538,4.043,3.9998,3.9895,3.9895,3.9957,3.9895,3.9895,3.9884,3.9815,3.9705,3.9623,3.9477,3.9344,3.9176,3.9,3.8354,3.7536,3.6804,3.6225,3.5818,3.5508,3.5316,3.5222,3.4995,3.486,3.4804,3.4679,3.4302,3.3678,3.3512,3.3398,3.3099,3.3038,3.3029,3.3046,3.3029,3.2695,3.2123,3.2,3.1734,3.146,3.1344,3.1035,3.0681,3.0429,3.025,3.0085,2.9967,2.9994,3.0176,3.0575,3.0686,3.0907,3.1163,3.1226,3.1353,3.1198,3.1056,3.1151,3.1246,3.1177,3.1065,3.0996,3.099,3.1109,3.1321,3.1354,3.1389,3.1344,3.1344,3.1375,3.1231,3.1116,3.0852,3.0598,3.0295,2.9844,2.9535,2.9239,2.9111,2.883,2.8493,2.7959,2.734,2.6863,2.6483,2.598,2.5522,2.5146,2.4779,2.4319,2.3852,2.3539,2.3392,4.0827,4.0807,4.0801,4.0811,4.0803,4.08,4.0794,4.0794,4.0794,4.0794,4.079,4.0778,4.1061,4.1429,4.1436,4.1335,4.1423,4.1543,4.1182,4.0716,4.0633,4.0753,4.0672,4.0506,4.0279,4.0184,3.9976,3.9897,3.9804,3.9717,3.9634,3.9628,3.9427,3.9292,3.9185,3.8954,3.8416,3.7439,3.6939,3.6506,3.6198,3.6094,3.6002,3.5838,3.5571,3.5333,3.5351,3.5338,3.4951,3.4345,3.4222,3.4179,3.3889,3.3792,3.3801,3.3749,3.3626,3.316,3.2553,3.2191,3.1854,3.1735,3.1664,3.1576,3.079,3.0538,3.0395,3.0481,3.068,3.0855,3.1133,3.129,3.1476,3.1555,3.1729,3.1684,3.1716,3.1811,3.1937,3.2111,3.2206,3.219,3.2057,3.1805,3.1676,3.1559,3.1558,3.1565,3.1524,3.1496,3.1496,3.1481,3.1292,3.1102,3.0866,3.0628,3.0371,3.0142,2.9819,2.9605,2.9392,2.925,2.9012,2.8422,2.7818,2.7664,2.7495,2.6539,2.5633,2.5328,2.5004,2.465,2.4276,2.391,2.3537,4.0812,4.0807,4.0804,4.0801,4.0811,4.0806,4.0832,4.091,4.0852,4.0852,4.0787,4.0755,4.0779,4.0728,4.0789,4.0723,4.0662,4.1304,4.1379,4.1604,4.2018,4.2015,4.1734,4.1302,4.098,4.0847,4.0298,3.9864,3.973,3.9617,3.9551,3.9496,3.9294,3.9213,3.9073,3.8819,3.8265,3.7555,3.7269,3.7227,3.7063,3.7111,3.7397,3.7434,3.7253,3.7091,3.7074,3.6708,3.6162,3.5389,3.5293,3.5109,3.4688,3.4609,3.4592,3.4346,3.4117,3.366,3.3149,3.2392,3.2112,3.2457,3.249,3.206,3.1077,3.1935,3.1783,3.078,3.105,3.1377,3.1559,3.1744,3.2136,3.2279,3.2376,3.2424,3.2519,3.274,3.2882,3.3087,3.2993,3.2708,3.2625,3.2299,3.2089,3.1943,3.1619,3.1611,3.1524,3.1496,3.1496,3.1438,3.1219,3.0984,3.0717,3.0492,3.0341,3.0112,2.9819,2.9679,2.956,2.9432,2.932,2.9111,2.8605,2.8563,2.8296,2.7226,2.6301,2.5674,2.5242,2.5037,2.458,2.409,2.3688,4.0861,4.0854,4.0821,4.0797,4.0828,4.1319,4.1525,4.1529,4.1525,4.1219,4.081,4.1166,4.1093,4.0705,4.0534,4.0492,4.0604,4.1204,4.1452,4.1717,4.2074,4.2407,4.2122,4.1776,4.1169,4.1056,4.0387,3.9826,3.9699,3.9576,3.9064,3.8908,3.9047,3.9127,3.8973,3.8509,3.7945,3.7529,3.7145,3.6822,3.7239,3.709,3.7387,3.7846,3.7503,3.7316,3.7223,3.7077,3.6543,3.6047,3.5872,3.5644,3.5451,3.539,3.5197,3.496,3.4731,3.4406,3.3563,3.263,3.1918,3.1424,3.1505,3.1428,3.0903,3.1079,3.1347,3.1162,3.143,3.1732,3.2551,3.2724,3.2927,3.2977,3.3008,3.304,3.2977,3.304,3.2866,3.2661,3.2721,3.2674,3.2672,3.2678,3.2487,3.2314,3.1962,3.1654,3.1553,3.1496,3.1496,3.1496,3.1307,3.119,3.0955,3.0672,3.0371,3.0082,2.9834,2.9696,2.9602,2.9588,2.949,2.9378,2.9209,2.8886,2.8394,2.7678,2.6987,2.6355,2.5904,2.5587,2.5015,2.432,2.3925,4.0895,4.0886,4.0823,4.08,4.0882,4.1399,4.1641,4.1645,4.1603,4.1348,4.081,4.1288,4.1214,4.0691,4.0531,4.0496,4.0684,4.1184,4.1605,4.2056,4.2536,4.2889,4.2797,4.252,4.2179,4.1681,4.0759,4.018,4.0087,3.9639,3.9151,3.8854,3.8791,3.8954,3.8535,3.8102,3.7689,3.7378,3.6699,3.6396,3.6988,3.6974,3.7169,3.7755,3.7567,3.7372,3.7268,3.7097,3.6779,3.6408,3.6233,3.6197,3.6162,3.6092,3.5846,3.5671,3.546,3.5231,3.4281,3.3229,3.2276,3.1719,3.1627,3.1196,3.0577,3.0604,3.1421,3.1494,3.177,3.2277,3.3222,3.3214,3.3182,3.3166,3.3182,3.3151,3.2753,3.2642,3.2326,3.206,3.2136,3.2092,3.1983,3.1961,3.2189,3.2052,3.1893,3.1625,3.1539,3.1496,3.1496,3.1496,3.1452,3.1379,3.1292,3.0851,3.0416,3.0112,2.988,2.968,2.9602,2.9602,2.9602,2.9518,2.9321,2.904,2.8758,2.8463,2.7785,2.7026,2.6596,2.6163,2.534,2.4667,2.4242,4.0905,4.0899,4.0818,4.0804,4.0812,4.086,4.0951,4.1122,4.1142,4.1029,4.0881,4.0889,4.0853,4.0688,4.0639,4.0504,4.0696,4.1325,4.1953,4.2558,4.3341,4.4049,4.4129,4.3809,4.3013,4.3078,4.1815,4.0688,4.0535,3.9733,3.9209,3.8897,3.8769,3.8736,3.7998,3.7762,3.762,3.7371,3.6431,3.6381,3.6733,3.6872,3.7273,3.7684,3.764,3.741,3.7287,3.7105,3.6867,3.6769,3.6751,3.6751,3.6769,3.6787,3.6681,3.6603,3.6092,3.5819,3.5545,3.4509,3.324,3.2143,3.1883,3.1732,3.1468,3.1658,3.188,3.175,3.2098,3.2663,3.3113,3.3309,3.3309,3.3293,3.3293,3.2961,3.2531,3.2386,3.2149,3.1488,3.1286,3.1205,3.1074,3.109,3.1577,3.1686,3.1675,3.1581,3.1495,3.1496,3.1496,3.1496,3.1496,3.1438,3.1278,3.0866,3.0477,3.0188,2.9911,2.9696,2.9602,2.9602,2.9602,2.9602,2.9504,2.9307,2.9404,2.9459,2.8536,2.7619,2.7149,2.6614,2.577,2.5032,2.4593,4.0895,4.0888,4.0826,4.0807,4.0879,4.142,4.1644,4.1725,4.2125,4.2099,4.1635,4.1533,4.1498,4.1338,4.0815,4.0573,4.0734,4.1876,4.2607,4.2825,4.3889,4.4494,4.4617,4.4118,4.3449,4.2662,4.1546,4.0583,3.9871,3.945,3.8896,3.8492,3.8544,3.8476,3.825,3.7764,3.6858,3.6652,3.5919,3.5548,3.6308,3.6767,3.7212,3.789,3.7684,3.74,3.7297,3.7114,3.6972,3.6927,3.6909,3.698,3.698,3.698,3.6769,3.6593,3.6135,3.6067,3.5202,3.399,3.297,3.2305,3.1807,3.1654,3.11,3.1434,3.1672,3.2012,3.2413,3.2908,3.3185,3.329,3.3322,3.3309,3.3135,3.2506,3.2124,3.2244,3.2051,3.1058,3.054,3.0709,3.0689,3.0661,3.1023,3.1277,3.1269,3.1371,3.1301,3.1436,3.1496,3.1496,3.1481,3.1438,3.1263,3.0881,3.0643,3.0416,3.002,2.9649,2.9602,2.9602,2.9602,2.9602,2.9602,2.9602,2.9571,2.9439,2.8873,2.8203,2.7765,2.7059,2.6178,2.5451,2.4898,4.0888,4.0903,4.0851,4.0826,4.0882,4.1409,4.1631,4.1683,4.2151,4.2067,4.1593,4.1508,4.1451,4.1222,4.0907,4.0823,4.099,4.2078,4.2995,4.3174,4.4283,4.4762,4.463,4.4093,4.3514,4.2544,4.1511,4.0547,4.0014,3.9466,3.898,3.859,3.8328,3.8655,3.8595,3.803,3.7667,3.7566,3.713,3.6916,3.7449,3.7734,3.7806,3.825,3.8077,3.7391,3.7278,3.7108,3.6874,3.6787,3.6804,3.6945,3.6989,3.6892,3.6716,3.6566,3.6506,3.6304,3.5282,3.4706,3.3861,3.298,3.1873,3.1422,3.1441,3.1885,3.2258,3.2569,3.2809,3.3108,3.3431,3.3494,3.3437,3.3424,3.3103,3.2503,3.1823,3.1928,3.1453,3.0477,2.9971,3.016,3.041,3.0422,3.0532,3.071,3.0875,3.1007,3.1165,3.1346,3.1361,3.1227,3.1316,3.1332,3.1187,3.094,3.0734,3.0628,3.0219,2.9742,2.9602,2.9602,2.9602,2.9602,2.9602,2.9587,2.9556,2.9322,2.8986,2.8711,2.8395,2.7598,2.6597,2.5928,2.5329,4.0888,4.0888,4.0888,4.0876,4.0809,4.0889,4.0879,4.0829,4.0797,4.0819,4.0839,4.0835,4.0881,4.0795,4.068,4.0992,4.1533,4.2331,4.2923,4.3607,4.4272,4.4591,4.4516,4.4036,4.3476,4.2812,4.1908,4.0879,4.0454,3.9578,3.9073,3.9015,3.8878,3.908,3.9036,3.9135,3.8947,3.866,3.842,3.8451,3.895,3.881,3.8904,3.9013,3.8516,3.7696,3.7377,3.7116,3.6658,3.6506,3.6541,3.6831,3.6954,3.6954,3.6954,3.6989,3.6982,3.633,3.581,3.5364,3.5052,3.4079,3.322,3.2792,3.2637,3.2739,3.3017,3.3299,3.3545,3.3706,3.388,3.3783,3.3697,3.3542,3.3346,3.2595,3.1681,3.1191,3.0626,3.0002,2.9572,2.9614,3.0023,3.0144,3.0635,3.0953,3.1127,3.0792,3.0997,3.1331,3.1227,3.0747,3.0897,3.1166,3.1068,3.0969,3.0852,3.0762,3.0356,2.9942,2.9788,2.9618,2.9602,2.9602,2.9602,2.9556,2.9446,2.9401,2.9331,2.9025,2.8443,2.796,2.6913,2.6403,2.5779,4.0888,4.0888,4.0888,4.0886,4.087,4.0818,4.0802,4.0797,4.0803,4.1049,4.1606,4.0981,4.0938,4.1503,4.1447,4.1451,4.1785,4.2229,4.2633,4.322,4.3824,4.3978,4.3985,4.3796,4.3311,4.2759,4.1995,4.1086,3.9983,3.9244,3.9101,3.9082,3.9101,3.9323,3.9749,4.0162,3.9735,3.9444,3.9235,3.9528,3.984,3.9553,3.9608,3.9283,3.8684,3.789,3.7393,3.7114,3.6771,3.6751,3.6285,3.6338,3.6989,3.6541,3.6268,3.6867,3.6541,3.5977,3.5757,3.5327,3.5103,3.5258,3.4676,3.4256,3.397,3.3817,3.393,3.4123,3.426,3.4384,3.4288,3.4156,3.3962,3.372,3.3465,3.2878,3.2013,3.1397,3.0816,3.0255,2.9781,2.9874,3.0192,3.0574,3.1067,3.1418,3.1425,3.1027,3.0888,3.1269,3.1032,3.0523,3.0822,3.1211,3.1215,3.1116,3.1014,3.0851,3.0492,3.0172,2.9958,2.9819,2.9665,2.9587,2.9571,2.943,2.9242,2.923,2.9263,2.8583,2.8003,2.7709,2.7342,2.68,2.6289,4.0888,4.0888,4.0888,4.0886,4.0842,4.0806,4.0809,4.0797,4.0794,4.1126,4.1432,4.1003,4.1026,4.1244,4.1193,4.1276,4.159,4.1831,4.2197,4.2746,4.3294,4.3637,4.372,4.3657,4.3413,4.2854,4.2233,4.14,4.0108,3.9332,3.9101,3.9101,3.9101,3.9514,3.9948,4.017,4.0117,4.0007,3.9985,4.002,4.0004,3.995,3.9671,3.9444,3.8771,3.7898,3.7393,3.7114,3.6894,3.6734,3.611,3.6461,3.6962,3.6566,3.6391,3.6919,3.6699,3.6443,3.6303,3.6014,3.592,3.5896,3.5811,3.5407,3.5187,3.5036,3.4988,3.502,3.5023,3.4977,3.4751,3.4525,3.4226,3.3908,3.3547,3.3172,3.2555,3.1928,3.1349,3.0756,3.0557,3.0597,3.0836,3.1195,3.1409,3.1591,3.1637,3.1461,3.1283,3.1402,3.0925,3.0253,3.0792,3.1361,3.1305,3.1232,3.1175,3.1043,3.0807,3.0492,3.0219,2.9973,2.9834,2.9665,2.954,2.9383,2.9242,2.9133,2.9002,2.8394,2.81,2.8084,2.7777,2.7147,2.6673,4.0888,4.0888,4.0888,4.0859,4.0807,4.0811,4.0803,4.0794,4.0794,4.0813,4.0832,4.081,4.0749,4.0835,4.0866,4.1133,4.1351,4.1527,4.1909,4.2388,4.3025,4.3455,4.3663,4.3676,4.3533,4.3214,4.2555,4.1563,4.0579,3.9688,3.9101,3.9101,3.9101,3.9503,4.0219,4.0037,4.0061,4.042,4.0525,4.0591,4.0293,3.9986,3.9643,3.9733,3.8758,3.7609,3.7351,3.703,3.6691,3.6453,3.6365,3.6751,3.6734,3.6927,3.6954,3.6954,3.6857,3.6839,3.6787,3.6638,3.6744,3.6624,3.6385,3.6098,3.59,3.5558,3.5368,3.5396,3.5368,3.5205,3.4982,3.4695,3.4386,3.4013,3.3614,3.3264,3.282,3.2231,3.1694,3.1163,3.0905,3.1004,3.1363,3.1679,3.1768,3.1829,3.1846,3.1789,3.1593,3.155,3.1088,3.0313,3.0852,3.1391,3.1242,3.1215,3.1277,3.1175,3.0999,3.0807,3.0492,3.0234,2.9973,2.9772,2.9556,2.9446,2.9305,2.918,2.9006,2.8716,2.8522,2.8602,2.8236,2.7611,2.7335,4.0888,4.0888,4.0888,4.084,4.0809,4.0812,4.0797,4.0797,4.0794,4.0794,4.079,4.0742,4.0671,4.0619,4.0947,4.124,4.1299,4.117,4.1707,4.2109,4.2653,4.3208,4.3606,4.3701,4.3715,4.3351,4.2655,4.1631,4.0603,3.9706,3.9101,3.9101,3.9131,3.9574,4.0481,4.0118,3.9979,4.0476,4.0145,4.0265,4.0202,4.0122,3.9976,3.9433,3.8407,3.7809,3.7469,3.7089,3.6939,3.6787,3.6223,3.6118,3.6055,3.6681,3.6945,3.698,3.698,3.698,3.698,3.698,3.698,3.697,3.6733,3.655,3.6241,3.5767,3.5521,3.5611,3.5543,3.5332,3.5111,3.4799,3.4485,3.4063,3.3697,3.3373,3.3063,3.2547,3.201,3.1697,3.1368,3.1526,3.1899,3.205,3.211,3.2193,3.2242,3.2123,3.1718,3.1553,3.1524,3.1002,3.1136,3.1406,3.1256,3.1241,3.1349,3.1322,3.1175,3.097,3.0762,3.0432,3.0126,2.9789,2.9571,2.9477,2.9352,2.9178,2.9004,2.8796,2.87,2.8683,2.8651,2.8145,2.8079,4.0888,4.0888,4.0893,4.0866,4.0809,4.0812,4.08,4.08,4.0794,4.0794,4.0787,4.0717,4.0661,4.0563,4.0886,4.0993,4.0931,4.0685,4.1089,4.1611,4.2122,4.2773,4.3208,4.3758,4.4061,4.3798,4.2643,4.1573,4.0514,3.9669,3.9101,3.9101,3.9173,3.9567,4.0415,3.9916,3.9685,4.0125,3.9395,3.9265,3.9523,3.9292,3.8958,3.8336,3.8016,3.7604,3.7392,3.7038,3.7009,3.6945,3.6593,3.6478,3.6531,3.6804,3.6962,3.698,3.698,3.698,3.698,3.698,3.698,3.697,3.6605,3.6245,3.6248,3.5772,3.5327,3.535,3.5055,3.4851,3.4799,3.457,3.4337,3.3987,3.3784,3.3566,3.331,3.2961,3.2692,3.2582,3.2379,3.2455,3.2721,3.2724,3.2735,3.2498,3.2561,3.2273,3.1882,3.1539,3.1525,3.1496,3.1496,3.1496,3.1421,3.1391,3.1451,3.1394,3.1307,3.1131,3.0925,3.0582,3.0264,2.9943,2.9696,2.9542,2.9401,2.9226,2.9004,2.8812,2.8732,2.8683,2.8635,2.8603,2.8454,4.0888,4.0903,4.09,4.0855,4.0807,4.0798,4.0808,4.08,4.0794,4.081,4.0781,4.0707,4.0635,4.0523,4.0368,4.0279,4.022,4.0195,4.058,4.1137,4.1478,4.2526,4.336,4.3866,4.4025,4.3504,4.2372,4.1276,4.0205,3.9486,3.9101,3.9101,3.9233,3.9455,3.9679,3.9482,3.9263,3.9515,3.9149,3.8465,3.8182,3.7942,3.7765,3.7509,3.7259,3.7172,3.7056,3.698,3.698,3.6962,3.6909,3.6857,3.6839,3.6927,3.6945,3.698,3.698,3.698,3.698,3.698,3.698,3.6843,3.6281,3.6069,3.6124,3.5821,3.5379,3.5013,3.4739,3.4582,3.4558,3.4374,3.4151,3.3899,3.3771,3.3684,3.3461,3.3277,3.323,3.3198,3.3198,3.3214,3.323,3.3261,3.3105,3.2866,3.2607,3.229,3.1981,3.1683,3.1496,3.1496,3.1496,3.1496,3.1496,3.1496,3.1496,3.1481,3.1379,3.1248,3.1087,3.0792,3.0477,3.0112,2.9897,2.9713,2.9493,2.9273,2.9067,2.8892,2.878,2.8732,2.8683,2.8635,2.8603,4.0888,4.0888,4.09,4.0851,4.0812,4.0798,4.0806,4.08,4.0794,4.0759,4.071,4.0657,4.0589,4.0512,4.03,4.0182,4.0133,3.9978,4.046,4.1132,4.1459,4.2558,4.3424,4.3703,4.3567,4.2686,4.1521,4.0463,3.9801,3.9328,3.9101,3.9101,3.9101,3.9376,3.983,3.9516,3.9143,3.9309,3.9054,3.8436,3.8111,3.7872,3.7549,3.7326,3.7143,3.7076,3.7017,3.6989,3.698,3.698,3.698,3.698,3.698,3.698,3.698,3.698,3.698,3.698,3.698,3.698,3.698,3.697,3.6564,3.6371,3.6262,3.5913,3.5459,3.5048,3.4799,3.4679,3.457,3.4201,3.3924,3.3629,3.3437,3.3424,3.3332,3.3293,3.3277,3.3261,3.3261,3.3261,3.3277,3.3214,3.3051,3.2839,3.2635,3.2304,3.1883,3.1668,3.1524,3.1496,3.1496,3.1496,3.1496,3.1496,3.1496,3.1496,3.1467,3.1351,3.119,3.1029,3.0703,3.0326,3.0082,2.9897,2.9649,2.9368,2.9242,2.9083,2.8876,2.878,2.8732,2.8683,2.8651]}]]